Time,TemperatureF,DewpointF,PressureIn,WindDirection,WindDirectionDegrees,WindSpeedMPH,WindSpeedGustMPH,Humidity,HourlyPrecipIn,Conditions,Clouds,dailyrainin,SoftwareType,DateUTC
2013-06-02 00:00:00,73.8,66.5,30.09,WSW,252,1.0,8.0,78,0.00,,---,0.00,VWS V14.01,2013-06-02 04:00:00,
2013-06-02 00:01:00,73.8,66.5,30.09,West,267,3.0,6.0,78,0.00,,---,0.00,VWS V14.01,2013-06-02 04:01:00,
2013-06-02 00:02:00,73.7,66.4,30.09,South,188,3.0,6.0,78,0.00,,---,0.00,VWS V14.01,2013-06-02 04:02:00,
2013-06-02 00:03:00,73.7,66.4,30.09,West,267,1.0,4.0,78,0.00,,---,0.00,VWS V14.01,2013-06-02 04:03:00,
2013-06-02 00:04:00,73.7,66.4,30.09,WSW,252,2.0,2.0,78,0.00,,---,0.00,VWS V14.01,2013-06-02 04:04:00,
2013-06-02 00:05:00,73.7,66.4,30.09,SSW,213,2.0,4.0,78,0.00,,---,0.00,VWS V14.01,2013-06-02 04:05:00,
2013-06-02 00:06:00,73.7,66.4,30.09,WSW,250,4.0,4.0,78,0.00,,---,0.00,VWS V14.01,2013-06-02 04:06:00,
2013-06-02 00:07:00,73.6,66.3,30.09,WNW,295,2.0,4.0,78,0.00,,---,0.00,VWS V14.01,2013-06-02 04:07:00,
2013-06-02 00:08:00,73.6,66.3,30.10,SW,215,3.0,4.0,78,0.00,,---,0.00,VWS V14.01,2013-06-02 04:08:00,
2013-06-02 00:09:00,73.6,66.3,30.09,SSW,205,2.0,4.0,78,0.00,,---,0.00,VWS V14.01,2013-06-02 04:09:00,
2013-06-02 00:10:00,73.5,66.2,30.09,South,182,5.0,5.0,78,0.00,,---,0.00,VWS V14.01,2013-06-02 04:10:00,
2013-06-02 00:11:00,73.5,66.2,30.09,South,186,4.0,5.0,78,0.00,,---,0.00,VWS V14.01,2013-06-02 04:11:00,
2013-06-02 00:12:00,73.5,66.2,30.09,West,261,1.0,4.0,78,0.00,,---,0.00,VWS V14.01,2013-06-02 04:12:00,
2013-06-02 00:13:00,73.5,66.2,30.09,SW,230,6.0,7.0,78,0.00,,---,0.00,VWS V14.01,2013-06-02 04:13:00,
2013-06-02 00:14:00,73.5,66.2,30.09,South,178,2.0,6.0,78,0.00,,---,0.00,VWS V14.01,2013-06-02 04:14:00,
2013-06-02 00:15:00,73.4,66.1,30.09,SSW,203,0.0,3.0,78,0.00,,---,0.00,VWS V14.01,2013-06-02 04:15:00,
2013-06-02 00:16:00,73.4,66.1,30.09,SSW,199,1.0,1.0,78,0.00,,---,0.00,VWS V14.01,2013-06-02 04:16:00,
2013-06-02 00:17:00,73.4,66.5,30.09,WNW,283,0.0,3.0,79,0.00,,---,0.00,VWS V14.01,2013-06-02 04:17:00,
2013-06-02 00:18:00,73.3,66.4,30.09,South,188,2.0,2.0,79,0.00,,---,0.00,VWS V14.01,2013-06-02 04:18:00,
2013-06-02 00:19:00,73.3,66.4,30.09,South,190,4.0,4.0,79,0.00,,---,0.00,VWS V14.01,2013-06-02 04:19:00,
2013-06-02 00:20:00,73.3,66.4,30.09,WSW,257,1.0,4.0,79,0.00,,---,0.00,VWS V14.01,2013-06-02 04:20:00,
2013-06-02 00:21:00,73.2,66.3,30.09,SW,215,4.0,4.0,79,0.00,,---,0.00,VWS V14.01,2013-06-02 04:21:00,
2013-06-02 00:22:00,73.2,66.3,30.09,SSW,200,2.0,5.0,79,0.00,,---,0.00,VWS V14.01,2013-06-02 04:22:00,
2013-06-02 00:23:00,73.2,66.3,30.09,SW,229,2.0,5.0,79,0.00,,---,0.00,VWS V14.01,2013-06-02 04:23:00,
2013-06-02 00:24:00,73.1,66.2,30.09,SW,226,2.0,2.0,79,0.00,,---,0.00,VWS V14.01,2013-06-02 04:24:00,
2013-06-02 00:25:00,73.1,66.2,30.09,SW,236,4.0,4.0,79,0.00,,---,0.00,VWS V14.01,2013-06-02 04:25:00,
2013-06-02 00:26:00,73.1,66.2,30.09,ESE,122,4.0,5.0,79,0.00,,---,0.00,VWS V14.01,2013-06-02 04:26:00,
2013-06-02 00:27:00,73.1,66.2,30.09,West,269,2.0,4.0,79,0.00,,---,0.00,VWS V14.01,2013-06-02 04:27:00,
2013-06-02 00:28:00,73.0,66.1,30.09,West,265,2.0,3.0,79,0.00,,---,0.00,VWS V14.01,2013-06-02 04:28:00,
2013-06-02 00:29:00,73.0,66.1,30.09,SW,223,1.0,5.0,79,0.00,,---,0.00,VWS V14.01,2013-06-02 04:29:00,
2013-06-02 00:30:00,73.0,66.1,30.09,West,264,1.0,2.0,79,0.00,,---,0.00,VWS V14.01,2013-06-02 04:30:00,
2013-06-02 00:31:00,73.0,66.1,30.08,West,268,1.0,2.0,79,0.00,,---,0.00,VWS V14.01,2013-06-02 04:31:00,
2013-06-02 00:32:00,72.9,66.0,30.09,West,261,2.0,8.0,79,0.00,,---,0.00,VWS V14.01,2013-06-02 04:32:00,
2013-06-02 00:33:00,72.9,66.4,30.09,West,268,1.0,4.0,80,0.00,,---,0.00,VWS V14.01,2013-06-02 04:33:00,
2013-06-02 00:34:00,72.9,66.4,30.09,SW,219,2.0,3.0,80,0.00,,---,0.00,VWS V14.01,2013-06-02 04:34:00,
2013-06-02 00:35:00,72.8,66.3,30.08,WSW,249,1.0,3.0,80,0.00,,---,0.00,VWS V14.01,2013-06-02 04:35:00,
2013-06-02 00:36:00,72.8,66.3,30.08,West,262,4.0,7.0,80,0.00,,---,0.00,VWS V14.01,2013-06-02 04:36:00,
2013-06-02 00:37:00,72.8,66.3,30.08,SSE,157,2.0,4.0,80,0.00,,---,0.00,VWS V14.01,2013-06-02 04:37:00,
2013-06-02 00:38:00,72.7,66.2,30.08,WSW,257,1.0,2.0,80,0.00,,---,0.00,VWS V14.01,2013-06-02 04:38:00,
2013-06-02 00:39:00,72.7,66.2,30.08,WSW,253,3.0,3.0,80,0.00,,---,0.00,VWS V14.01,2013-06-02 04:39:00,
2013-06-02 00:40:00,72.7,66.2,30.08,SSW,209,2.0,4.0,80,0.00,,---,0.00,VWS V14.01,2013-06-02 04:40:00,
2013-06-02 00:41:00,72.7,66.2,30.08,SW,215,3.0,5.0,80,0.00,,---,0.00,VWS V14.01,2013-06-02 04:41:00,
2013-06-02 00:42:00,72.7,66.2,30.08,WSW,252,5.0,5.0,80,0.00,,---,0.00,VWS V14.01,2013-06-02 04:42:00,
2013-06-02 00:43:00,72.7,66.2,30.08,West,276,1.0,5.0,80,0.00,,---,0.00,VWS V14.01,2013-06-02 04:43:00,
2013-06-02 00:44:00,72.6,66.1,30.08,SW,217,2.0,3.0,80,0.00,,---,0.00,VWS V14.01,2013-06-02 04:44:00,
2013-06-02 00:45:00,72.6,66.1,30.08,SSW,198,0.0,2.0,80,0.00,,---,0.00,VWS V14.01,2013-06-02 04:45:00,
2013-06-02 00:46:00,72.6,66.1,30.08,SW,223,3.0,3.0,80,0.00,,---,0.00,VWS V14.01,2013-06-02 04:46:00,
2013-06-02 00:47:00,72.6,66.1,30.08,WSW,256,2.0,5.0,80,0.00,,---,0.00,VWS V14.01,2013-06-02 04:47:00,
2013-06-02 00:48:00,72.6,66.1,30.08,SW,221,3.0,4.0,80,0.00,,---,0.00,VWS V14.01,2013-06-02 04:48:00,
2013-06-02 00:49:00,72.5,66.0,30.08,West,278,5.0,6.0,80,0.00,,---,0.00,VWS V14.01,2013-06-02 04:49:00,
2013-06-02 00:50:00,72.5,66.0,30.08,WSW,253,4.0,5.0,80,0.00,,---,0.00,VWS V14.01,2013-06-02 04:50:00,
2013-06-02 00:51:00,72.5,66.0,30.08,SW,214,2.0,5.0,80,0.00,,---,0.00,VWS V14.01,2013-06-02 04:51:00,
2013-06-02 00:52:00,72.5,66.0,30.08,SW,219,2.0,5.0,80,0.00,,---,0.00,VWS V14.01,2013-06-02 04:52:00,
2013-06-02 00:53:00,72.5,66.0,30.08,South,172,3.0,3.0,80,0.00,,---,0.00,VWS V14.01,2013-06-02 04:53:00,
2013-06-02 00:54:00,72.5,66.0,30.08,WSW,256,3.0,3.0,80,0.00,,---,0.00,VWS V14.01,2013-06-02 04:54:00,
2013-06-02 00:55:00,72.4,65.9,30.08,SSW,212,1.0,3.0,80,0.00,,---,0.00,VWS V14.01,2013-06-02 04:55:00,
2013-06-02 00:56:00,72.4,65.9,30.08,SW,217,1.0,1.0,80,0.00,,---,0.00,VWS V14.01,2013-06-02 04:56:00,
2013-06-02 00:57:00,72.4,65.9,30.08,SW,225,3.0,4.0,80,0.00,,---,0.00,VWS V14.01,2013-06-02 04:57:00,
2013-06-02 00:58:00,72.4,65.9,30.08,SW,222,3.0,4.0,80,0.00,,---,0.00,VWS V14.01,2013-06-02 04:58:00,
2013-06-02 00:59:00,72.3,66.2,30.08,SW,229,0.0,5.0,81,0.00,,---,0.00,VWS V14.01,2013-06-02 04:59:00,
2013-06-02 01:00:00,72.3,66.2,30.08,West,281,2.0,3.0,81,0.00,,---,0.00,VWS V14.01,2013-06-02 05:00:00,
2013-06-02 01:01:00,72.3,66.2,30.08,SW,232,4.0,4.0,81,0.00,,---,0.00,VWS V14.01,2013-06-02 05:01:00,
2013-06-02 01:02:00,72.3,66.2,30.08,WSW,239,2.0,5.0,81,0.00,,---,0.00,VWS V14.01,2013-06-02 05:02:00,
2013-06-02 01:03:00,72.3,66.2,30.08,SW,223,5.0,6.0,81,0.00,,---,0.00,VWS V14.01,2013-06-02 05:03:00,
2013-06-02 01:04:00,72.3,66.2,30.08,SSW,198,0.0,5.0,81,0.00,,---,0.00,VWS V14.01,2013-06-02 05:04:00,
2013-06-02 01:05:00,72.2,66.1,30.08,SW,218,5.0,6.0,81,0.00,,---,0.00,VWS V14.01,2013-06-02 05:05:00,
2013-06-02 01:06:00,72.2,66.1,30.08,West,281,1.0,5.0,81,0.00,,---,0.00,VWS V14.01,2013-06-02 05:06:00,
2013-06-02 01:07:00,72.2,66.1,30.08,SW,236,1.0,2.0,81,0.00,,---,0.00,VWS V14.01,2013-06-02 05:07:00,
2013-06-02 01:08:00,72.2,66.1,30.08,SW,227,4.0,6.0,81,0.00,,---,0.00,VWS V14.01,2013-06-02 05:08:00,
2013-06-02 01:09:00,72.1,65.9,30.08,SSW,210,2.0,4.0,81,0.00,,---,0.00,VWS V14.01,2013-06-02 05:09:00,
2013-06-02 01:10:00,72.1,65.9,30.08,WSW,239,2.0,2.0,81,0.00,,---,0.00,VWS V14.01,2013-06-02 05:10:00,
2013-06-02 01:11:00,72.1,65.9,30.08,West,267,3.0,3.0,81,0.00,,---,0.00,VWS V14.01,2013-06-02 05:11:00,
2013-06-02 01:12:00,72.0,65.9,30.08,WSW,241,5.0,5.0,81,0.00,,---,0.00,VWS V14.01,2013-06-02 05:12:00,
2013-06-02 01:13:00,72.0,65.9,30.08,WSW,238,2.0,6.0,81,0.00,,---,0.00,VWS V14.01,2013-06-02 05:13:00,
2013-06-02 01:14:00,72.0,65.9,30.08,SSW,192,7.0,7.0,81,0.00,,---,0.00,VWS V14.01,2013-06-02 05:14:00,
2013-06-02 01:15:00,72.0,65.9,30.08,WNW,290,2.0,6.0,81,0.00,,---,0.00,VWS V14.01,2013-06-02 05:15:00,
2013-06-02 01:16:00,72.0,65.9,30.08,SSE,153,4.0,6.0,81,0.00,,---,0.00,VWS V14.01,2013-06-02 05:16:00,
2013-06-02 01:17:00,72.0,65.9,30.08,SSE,152,0.0,4.0,81,0.00,,---,0.00,VWS V14.01,2013-06-02 05:17:00,
2013-06-02 01:18:00,71.9,65.8,30.08,West,277,1.0,3.0,81,0.00,,---,0.00,VWS V14.01,2013-06-02 05:18:00,
2013-06-02 01:19:00,71.9,65.8,30.08,SW,227,3.0,6.0,81,0.00,,---,0.00,VWS V14.01,2013-06-02 05:19:00,
2013-06-02 01:20:00,71.9,65.8,30.08,WSW,242,3.0,3.0,81,0.00,,---,0.00,VWS V14.01,2013-06-02 05:20:00,
2013-06-02 01:21:00,71.9,65.8,30.08,WSW,252,4.0,4.0,81,0.00,,---,0.00,VWS V14.01,2013-06-02 05:21:00,
2013-06-02 01:22:00,71.8,66.0,30.08,South,182,4.0,4.0,82,0.00,,---,0.00,VWS V14.01,2013-06-02 05:22:00,
2013-06-02 01:23:00,71.8,66.0,30.08,WSW,240,0.0,4.0,82,0.00,,---,0.00,VWS V14.01,2013-06-02 05:23:00,
2013-06-02 01:24:00,71.8,66.0,30.08,SW,215,4.0,4.0,82,0.00,,---,0.00,VWS V14.01,2013-06-02 05:24:00,
2013-06-02 01:25:00,71.8,66.0,30.08,SW,236,0.0,3.0,82,0.00,,---,0.00,VWS V14.01,2013-06-02 05:25:00,
2013-06-02 01:26:00,71.8,66.0,30.08,WSW,252,5.0,5.0,82,0.00,,---,0.00,VWS V14.01,2013-06-02 05:26:00,
2013-06-02 01:27:00,71.8,66.0,30.08,WSW,238,2.0,5.0,82,0.00,,---,0.00,VWS V14.01,2013-06-02 05:27:00,
2013-06-02 01:28:00,71.8,66.0,30.08,West,262,2.0,3.0,82,0.00,,---,0.00,VWS V14.01,2013-06-02 05:28:00,
2013-06-02 01:29:00,71.7,65.9,30.08,West,276,5.0,5.0,82,0.00,,---,0.00,VWS V14.01,2013-06-02 05:29:00,
2013-06-02 01:30:00,71.7,65.9,30.08,WSW,242,2.0,4.0,82,0.00,,---,0.00,VWS V14.01,2013-06-02 05:30:00,
2013-06-02 01:31:00,71.7,65.9,30.08,SE,126,1.0,4.0,82,0.00,,---,0.00,VWS V14.01,2013-06-02 05:31:00,
2013-06-02 01:32:00,71.7,65.9,30.08,West,265,2.0,4.0,82,0.00,,---,0.00,VWS V14.01,2013-06-02 05:32:00,
2013-06-02 01:33:00,71.7,65.9,30.08,SSW,213,0.0,2.0,82,0.00,,---,0.00,VWS V14.01,2013-06-02 05:33:00,
2013-06-02 01:34:00,71.6,65.8,30.08,SSE,162,1.0,3.0,82,0.00,,---,0.00,VWS V14.01,2013-06-02 05:34:00,
2013-06-02 01:35:00,71.6,65.8,30.08,SSW,210,2.0,2.0,82,0.00,,---,0.00,VWS V14.01,2013-06-02 05:35:00,
2013-06-02 01:36:00,71.6,65.8,30.08,South,171,2.0,2.0,82,0.00,,---,0.00,VWS V14.01,2013-06-02 05:36:00,
2013-06-02 01:37:00,71.6,65.8,30.07,SSW,195,7.0,9.0,82,0.00,,---,0.00,VWS V14.01,2013-06-02 05:37:00,
2013-06-02 01:38:00,71.6,65.8,30.07,SW,222,1.0,7.0,82,0.00,,---,0.00,VWS V14.01,2013-06-02 05:38:00,
2013-06-02 01:39:00,71.6,65.8,30.07,South,188,2.0,3.0,82,0.00,,---,0.00,VWS V14.01,2013-06-02 05:39:00,
2013-06-02 01:40:00,71.5,65.7,30.07,East,79,1.0,3.0,82,0.00,,---,0.00,VWS V14.01,2013-06-02 05:40:00,
2013-06-02 01:41:00,71.5,65.7,30.07,West,276,1.0,3.0,82,0.00,,---,0.00,VWS V14.01,2013-06-02 05:41:00,
2013-06-02 01:42:00,71.5,65.7,30.07,West,260,2.0,7.0,82,0.00,,---,0.00,VWS V14.01,2013-06-02 05:42:00,
2013-06-02 01:43:00,71.5,65.7,30.07,West,265,3.0,3.0,82,0.00,,---,0.00,VWS V14.01,2013-06-02 05:43:00,
2013-06-02 01:44:00,71.5,66.1,30.07,West,269,1.0,4.0,83,0.00,,---,0.00,VWS V14.01,2013-06-02 05:44:00,
2013-06-02 01:45:00,71.4,66.0,30.07,SW,229,4.0,7.0,83,0.00,,---,0.00,VWS V14.01,2013-06-02 05:45:00,
2013-06-02 01:46:00,71.4,66.0,30.07,SSE,163,4.0,8.0,83,0.00,,---,0.00,VWS V14.01,2013-06-02 05:46:00,
2013-06-02 01:47:00,71.4,66.0,30.07,SW,236,2.0,4.0,83,0.00,,---,0.00,VWS V14.01,2013-06-02 05:47:00,
2013-06-02 01:48:00,71.4,66.0,30.07,West,267,1.0,3.0,83,0.00,,---,0.00,VWS V14.01,2013-06-02 05:48:00,
2013-06-02 01:49:00,71.4,66.0,30.08,West,265,1.0,2.0,83,0.00,,---,0.00,VWS V14.01,2013-06-02 05:49:00,
2013-06-02 01:50:00,71.3,65.9,30.08,SSE,160,3.0,7.0,83,0.00,,---,0.00,VWS V14.01,2013-06-02 05:50:00,
2013-06-02 01:51:00,71.3,65.9,30.08,SW,229,11.0,11.0,83,0.00,,---,0.00,VWS V14.01,2013-06-02 05:51:00,
2013-06-02 01:52:00,71.3,65.9,30.08,West,267,3.0,11.0,83,0.00,,---,0.00,VWS V14.01,2013-06-02 05:52:00,
2013-06-02 01:53:00,71.2,65.8,30.07,South,186,4.0,7.0,83,0.00,,---,0.00,VWS V14.01,2013-06-02 05:53:00,
2013-06-02 01:54:00,71.2,65.8,30.07,SSW,203,3.0,9.0,83,0.00,,---,0.00,VWS V14.01,2013-06-02 05:54:00,
2013-06-02 01:55:00,71.2,65.8,30.07,WSW,256,3.0,4.0,83,0.00,,---,0.00,VWS V14.01,2013-06-02 05:55:00,
2013-06-02 01:56:00,71.2,65.8,30.07,SE,144,2.0,4.0,83,0.00,,---,0.00,VWS V14.01,2013-06-02 05:56:00,
2013-06-02 01:57:00,71.2,65.8,30.07,SW,229,4.0,4.0,83,0.00,,---,0.00,VWS V14.01,2013-06-02 05:57:00,
2013-06-02 01:58:00,71.2,65.8,30.07,WSW,241,3.0,4.0,83,0.00,,---,0.00,VWS V14.01,2013-06-02 05:58:00,
2013-06-02 01:59:00,71.2,65.8,30.07,West,279,0.0,4.0,83,0.00,,---,0.00,VWS V14.01,2013-06-02 05:59:00,
2013-06-02 02:00:00,71.1,65.7,30.07,WSW,249,4.0,4.0,83,0.00,,---,0.00,VWS V14.01,2013-06-02 06:00:00,
2013-06-02 02:01:00,71.1,65.7,30.07,SW,230,3.0,4.0,83,0.00,,---,0.00,VWS V14.01,2013-06-02 06:01:00,
2013-06-02 02:02:00,71.1,65.7,30.07,SSE,159,2.0,3.0,83,0.00,,---,0.00,VWS V14.01,2013-06-02 06:02:00,
2013-06-02 02:03:00,71.1,65.7,30.07,West,272,3.0,3.0,83,0.00,,---,0.00,VWS V14.01,2013-06-02 06:03:00,
2013-06-02 02:04:00,71.1,66.0,30.06,SW,225,2.0,5.0,84,0.00,,---,0.00,VWS V14.01,2013-06-02 06:04:00,
2013-06-02 02:05:00,71.0,65.9,30.06,WSW,252,3.0,3.0,84,0.00,,---,0.00,VWS V14.01,2013-06-02 06:05:00,
2013-06-02 02:06:00,71.0,65.9,30.06,West,269,3.0,4.0,84,0.00,,---,0.00,VWS V14.01,2013-06-02 06:06:00,
2013-06-02 02:07:00,71.0,65.9,30.07,WSW,253,1.0,6.0,84,0.00,,---,0.00,VWS V14.01,2013-06-02 06:07:00,
2013-06-02 02:08:00,71.0,65.9,30.06,WSW,240,0.0,2.0,84,0.00,,---,0.00,VWS V14.01,2013-06-02 06:08:00,
2013-06-02 02:09:00,70.9,65.8,30.06,WSW,249,6.0,6.0,84,0.00,,---,0.00,VWS V14.01,2013-06-02 06:09:00,
2013-06-02 02:10:00,70.9,65.8,30.06,WSW,254,3.0,7.0,84,0.00,,---,0.00,VWS V14.01,2013-06-02 06:10:00,
2013-06-02 02:11:00,70.9,65.8,30.06,WSW,244,1.0,7.0,84,0.00,,---,0.00,VWS V14.01,2013-06-02 06:11:00,
2013-06-02 02:12:00,70.9,65.8,30.06,SSW,202,3.0,5.0,84,0.00,,---,0.00,VWS V14.01,2013-06-02 06:12:00,
2013-06-02 02:13:00,70.9,65.8,30.06,SW,214,2.0,4.0,84,0.00,,---,0.00,VWS V14.01,2013-06-02 06:13:00,
2013-06-02 02:14:00,70.9,65.8,30.06,West,259,3.0,5.0,84,0.00,,---,0.00,VWS V14.01,2013-06-02 06:14:00,
2013-06-02 02:15:00,70.8,65.7,30.06,West,271,3.0,4.0,84,0.00,,---,0.00,VWS V14.01,2013-06-02 06:15:00,
2013-06-02 02:16:00,70.8,65.7,30.06,West,277,2.0,4.0,84,0.00,,---,0.00,VWS V14.01,2013-06-02 06:16:00,
2013-06-02 02:17:00,70.8,65.7,30.06,South,186,5.0,6.0,84,0.00,,---,0.00,VWS V14.01,2013-06-02 06:17:00,
2013-06-02 02:18:00,70.8,65.7,30.06,SW,221,4.0,5.0,84,0.00,,---,0.00,VWS V14.01,2013-06-02 06:18:00,
2013-06-02 02:19:00,70.8,65.7,30.06,WSW,256,3.0,8.0,84,0.00,,---,0.00,VWS V14.01,2013-06-02 06:19:00,
2013-06-02 02:20:00,70.8,65.7,30.06,SW,236,1.0,3.0,84,0.00,,---,0.00,VWS V14.01,2013-06-02 06:20:00,
2013-06-02 02:21:00,70.8,65.7,30.06,SW,236,0.0,3.0,84,0.00,,---,0.00,VWS V14.01,2013-06-02 06:21:00,
2013-06-02 02:22:00,70.7,65.6,30.06,WSW,243,3.0,3.0,84,0.00,,---,0.00,VWS V14.01,2013-06-02 06:22:00,
2013-06-02 02:23:00,70.7,65.6,30.06,WSW,253,2.0,3.0,84,0.00,,---,0.00,VWS V14.01,2013-06-02 06:23:00,
2013-06-02 02:24:00,70.7,65.6,30.06,SW,223,0.0,2.0,84,0.00,,---,0.00,VWS V14.01,2013-06-02 06:24:00,
2013-06-02 02:25:00,70.7,66.0,30.06,WSW,238,2.0,2.0,85,0.00,,---,0.00,VWS V14.01,2013-06-02 06:25:00,
2013-06-02 02:26:00,70.6,65.9,30.06,WSW,248,2.0,2.0,85,0.00,,---,0.00,VWS V14.01,2013-06-02 06:26:00,
2013-06-02 02:27:00,70.6,65.9,30.06,SSW,211,3.0,3.0,85,0.00,,---,0.00,VWS V14.01,2013-06-02 06:27:00,
2013-06-02 02:28:00,70.6,65.9,30.06,SSW,213,2.0,4.0,85,0.00,,---,0.00,VWS V14.01,2013-06-02 06:28:00,
2013-06-02 02:29:00,70.6,65.9,30.06,WSW,247,3.0,5.0,85,0.00,,---,0.00,VWS V14.01,2013-06-02 06:29:00,
2013-06-02 02:30:00,70.5,65.8,30.06,South,190,1.0,3.0,85,0.00,,---,0.00,VWS V14.01,2013-06-02 06:30:00,
2013-06-02 02:31:00,70.5,65.8,30.06,SW,214,1.0,3.0,85,0.00,,---,0.00,VWS V14.01,2013-06-02 06:31:00,
2013-06-02 02:32:00,70.5,65.8,30.06,SW,236,2.0,2.0,85,0.00,,---,0.00,VWS V14.01,2013-06-02 06:32:00,
2013-06-02 02:33:00,70.5,65.8,30.06,WSW,245,1.0,5.0,85,0.00,,---,0.00,VWS V14.01,2013-06-02 06:33:00,
2013-06-02 02:34:00,70.5,65.8,30.06,SW,225,1.0,2.0,85,0.00,,---,0.00,VWS V14.01,2013-06-02 06:34:00,
2013-06-02 02:35:00,70.4,65.7,30.05,SSE,157,1.0,1.0,85,0.00,,---,0.00,VWS V14.01,2013-06-02 06:35:00,
2013-06-02 02:36:00,70.4,65.7,30.05,South,191,5.0,5.0,85,0.00,,---,0.00,VWS V14.01,2013-06-02 06:36:00,
2013-06-02 02:37:00,70.4,65.7,30.05,WSW,256,3.0,5.0,85,0.00,,---,0.00,VWS V14.01,2013-06-02 06:37:00,
2013-06-02 02:38:00,70.3,65.6,30.06,WSW,241,2.0,3.0,85,0.00,,---,0.00,VWS V14.01,2013-06-02 06:38:00,
2013-06-02 02:39:00,70.3,65.6,30.06,WSW,250,2.0,3.0,85,0.00,,---,0.00,VWS V14.01,2013-06-02 06:39:00,
2013-06-02 02:40:00,70.3,65.6,30.06,West,273,1.0,2.0,85,0.00,,---,0.00,VWS V14.01,2013-06-02 06:40:00,
2013-06-02 02:41:00,70.3,65.6,30.06,WSW,241,2.0,2.0,85,0.00,,---,0.00,VWS V14.01,2013-06-02 06:41:00,
2013-06-02 02:42:00,70.3,65.6,30.06,WSW,240,0.0,4.0,85,0.00,,---,0.00,VWS V14.01,2013-06-02 06:42:00,
2013-06-02 02:43:00,70.3,65.6,30.06,SW,225,2.0,3.0,85,0.00,,---,0.00,VWS V14.01,2013-06-02 06:43:00,
2013-06-02 02:44:00,70.2,65.8,30.06,SSW,205,3.0,4.0,86,0.00,,---,0.00,VWS V14.01,2013-06-02 06:44:00,
2013-06-02 02:45:00,70.2,65.8,30.05,WSW,240,2.0,2.0,86,0.00,,---,0.00,VWS V14.01,2013-06-02 06:45:00,
2013-06-02 02:46:00,70.2,65.8,30.05,SW,214,2.0,2.0,86,0.00,,---,0.00,VWS V14.01,2013-06-02 06:46:00,
2013-06-02 02:47:00,70.2,65.8,30.05,West,265,1.0,3.0,86,0.00,,---,0.00,VWS V14.01,2013-06-02 06:47:00,
2013-06-02 02:48:00,70.2,65.8,30.05,SSW,202,4.0,4.0,86,0.00,,---,0.00,VWS V14.01,2013-06-02 06:48:00,
2013-06-02 02:49:00,70.2,65.8,30.05,SW,227,1.0,4.0,86,0.00,,---,0.00,VWS V14.01,2013-06-02 06:49:00,
2013-06-02 02:50:00,70.1,65.7,30.05,WSW,248,1.0,3.0,86,0.00,,---,0.00,VWS V14.01,2013-06-02 06:50:00,
2013-06-02 02:51:00,70.1,65.7,30.05,SW,232,1.0,3.0,86,0.00,,---,0.00,VWS V14.01,2013-06-02 06:51:00,
2013-06-02 02:52:00,70.1,65.7,30.05,SSE,167,2.0,4.0,86,0.00,,---,0.00,VWS V14.01,2013-06-02 06:52:00,
2013-06-02 02:53:00,70.1,65.7,30.05,SW,233,0.0,2.0,86,0.00,,---,0.00,VWS V14.01,2013-06-02 06:53:00,
2013-06-02 02:54:00,70.1,65.7,30.05,WSW,238,2.0,2.0,86,0.00,,---,0.00,VWS V14.01,2013-06-02 06:54:00,
2013-06-02 02:55:00,70.0,65.6,30.05,West,276,1.0,3.0,86,0.00,,---,0.00,VWS V14.01,2013-06-02 06:55:00,
2013-06-02 02:56:00,70.0,65.6,30.05,WSW,249,1.0,3.0,86,0.00,,---,0.00,VWS V14.01,2013-06-02 06:56:00,
2013-06-02 02:57:00,70.0,65.6,30.05,WNW,282,0.0,2.0,86,0.00,,---,0.00,VWS V14.01,2013-06-02 06:57:00,
2013-06-02 02:58:00,70.0,65.6,30.05,SSW,202,2.0,5.0,86,0.00,,---,0.00,VWS V14.01,2013-06-02 06:58:00,
2013-06-02 02:59:00,69.9,65.5,30.05,WSW,257,1.0,3.0,86,0.00,,---,0.00,VWS V14.01,2013-06-02 06:59:00,
2013-06-02 03:00:00,69.9,65.5,30.05,SSW,198,4.0,5.0,86,0.00,,---,0.00,VWS V14.01,2013-06-02 07:00:00,
2013-06-02 03:01:00,69.9,65.5,30.05,WSW,242,1.0,5.0,86,0.00,,---,0.00,VWS V14.01,2013-06-02 07:01:00,
2013-06-02 03:02:00,69.9,65.5,30.05,SW,229,3.0,4.0,86,0.00,,---,0.00,VWS V14.01,2013-06-02 07:02:00,
2013-06-02 03:03:00,69.8,65.4,30.05,SW,232,3.0,4.0,86,0.00,,---,0.00,VWS V14.01,2013-06-02 07:03:00,
2013-06-02 03:04:00,69.8,65.4,30.04,WSW,245,4.0,4.0,86,0.00,,---,0.00,VWS V14.01,2013-06-02 07:04:00,
2013-06-02 03:05:00,69.8,65.8,30.04,WSW,254,1.0,2.0,87,0.00,,---,0.00,VWS V14.01,2013-06-02 07:05:00,
2013-06-02 03:06:00,69.8,65.8,30.04,SW,223,2.0,2.0,87,0.00,,---,0.00,VWS V14.01,2013-06-02 07:06:00,
2013-06-02 03:07:00,69.8,65.8,30.04,WSW,253,2.0,2.0,87,0.00,,---,0.00,VWS V14.01,2013-06-02 07:07:00,
2013-06-02 03:08:00,69.7,65.7,30.04,WSW,248,2.0,3.0,87,0.00,,---,0.00,VWS V14.01,2013-06-02 07:08:00,
2013-06-02 03:09:00,69.7,65.7,30.04,SE,142,0.0,4.0,87,0.00,,---,0.00,VWS V14.01,2013-06-02 07:09:00,
2013-06-02 03:10:00,69.7,65.7,30.04,WSW,240,4.0,4.0,87,0.00,,---,0.00,VWS V14.01,2013-06-02 07:10:00,
2013-06-02 03:11:00,69.7,65.7,30.04,SW,217,3.0,5.0,87,0.00,,---,0.00,VWS V14.01,2013-06-02 07:11:00,
2013-06-02 03:12:00,69.7,65.7,30.04,West,265,3.0,3.0,87,0.00,,---,0.00,VWS V14.01,2013-06-02 07:12:00,
2013-06-02 03:13:00,69.7,65.7,30.04,SSW,205,1.0,4.0,87,0.00,,---,0.00,VWS V14.01,2013-06-02 07:13:00,
2013-06-02 03:14:00,69.7,65.7,30.04,WSW,253,0.0,1.0,87,0.00,,---,0.00,VWS V14.01,2013-06-02 07:14:00,
2013-06-02 03:15:00,69.6,65.6,30.04,WSW,249,2.0,3.0,87,0.00,,---,0.00,VWS V14.01,2013-06-02 07:15:00,
2013-06-02 03:16:00,69.6,65.6,30.04,SW,214,4.0,4.0,87,0.00,,---,0.00,VWS V14.01,2013-06-02 07:16:00,
2013-06-02 03:17:00,69.6,65.6,30.04,SSW,208,2.0,4.0,87,0.00,,---,0.00,VWS V14.01,2013-06-02 07:17:00,
2013-06-02 03:18:00,69.6,65.6,30.04,WSW,240,2.0,2.0,87,0.00,,---,0.00,VWS V14.01,2013-06-02 07:18:00,
2013-06-02 03:19:00,69.6,65.6,30.04,SSW,209,4.0,4.0,87,0.00,,---,0.00,VWS V14.01,2013-06-02 07:19:00,
2013-06-02 03:20:00,69.5,65.5,30.04,WSW,247,0.0,1.0,87,0.00,,---,0.00,VWS V14.01,2013-06-02 07:20:00,
2013-06-02 03:21:00,69.5,65.5,30.04,South,169,2.0,2.0,87,0.00,,---,0.00,VWS V14.01,2013-06-02 07:21:00,
2013-06-02 03:22:00,69.5,65.5,30.03,SSE,150,3.0,3.0,87,0.00,,---,0.00,VWS V14.01,2013-06-02 07:22:00,
2013-06-02 03:23:00,69.5,65.5,30.03,SSW,197,1.0,4.0,87,0.00,,---,0.00,VWS V14.01,2013-06-02 07:23:00,
2013-06-02 03:24:00,69.5,65.5,30.03,SSW,213,1.0,1.0,87,0.00,,---,0.00,VWS V14.01,2013-06-02 07:24:00,
2013-06-02 03:25:00,69.4,65.7,30.03,SW,223,1.0,1.0,88,0.00,,---,0.00,VWS V14.01,2013-06-02 07:25:00,
2013-06-02 03:26:00,69.4,65.7,30.03,West,265,1.0,3.0,88,0.00,,---,0.00,VWS V14.01,2013-06-02 07:26:00,
2013-06-02 03:27:00,69.4,65.7,30.03,West,280,1.0,2.0,88,0.00,,---,0.00,VWS V14.01,2013-06-02 07:27:00,
2013-06-02 03:28:00,69.4,65.7,30.03,West,262,0.0,1.0,88,0.00,,---,0.00,VWS V14.01,2013-06-02 07:28:00,
2013-06-02 03:29:00,69.4,65.7,30.03,WSW,249,0.0,1.0,88,0.00,,---,0.00,VWS V14.01,2013-06-02 07:29:00,
2013-06-02 03:30:00,69.4,65.7,30.03,West,277,0.0,1.0,88,0.00,,---,0.00,VWS V14.01,2013-06-02 07:30:00,
2013-06-02 03:31:00,69.3,65.6,30.03,West,262,1.0,2.0,88,0.00,,---,0.00,VWS V14.01,2013-06-02 07:31:00,
2013-06-02 03:32:00,69.3,65.6,30.03,WSW,250,1.0,1.0,88,0.00,,---,0.00,VWS V14.01,2013-06-02 07:32:00,
2013-06-02 03:33:00,69.3,65.6,30.03,WSW,254,4.0,4.0,88,0.00,,---,0.00,VWS V14.01,2013-06-02 07:33:00,
2013-06-02 03:34:00,69.3,65.6,30.03,SW,229,3.0,4.0,88,0.00,,---,0.00,VWS V14.01,2013-06-02 07:34:00,
2013-06-02 03:35:00,69.3,65.6,30.03,SW,219,1.0,2.0,88,0.00,,---,0.00,VWS V14.01,2013-06-02 07:35:00,
2013-06-02 03:36:00,69.3,65.6,30.03,SSW,208,3.0,3.0,88,0.00,,---,0.00,VWS V14.01,2013-06-02 07:36:00,
2013-06-02 03:37:00,69.3,65.6,30.03,WSW,242,2.0,4.0,88,0.00,,---,0.00,VWS V14.01,2013-06-02 07:37:00,
2013-06-02 03:38:00,69.3,65.6,30.03,West,271,5.0,5.0,88,0.00,,---,0.00,VWS V14.01,2013-06-02 07:38:00,
2013-06-02 03:39:00,69.3,65.6,30.03,WSW,250,4.0,5.0,88,0.00,,---,0.00,VWS V14.01,2013-06-02 07:39:00,
2013-06-02 03:40:00,69.3,65.9,30.03,West,276,2.0,3.0,89,0.00,,---,0.00,VWS V14.01,2013-06-02 07:40:00,
2013-06-02 03:41:00,69.3,65.9,30.03,South,176,5.0,5.0,89,0.00,,---,0.00,VWS V14.01,2013-06-02 07:41:00,
2013-06-02 03:42:00,69.2,65.8,30.02,West,277,3.0,5.0,89,0.00,,---,0.00,VWS V14.01,2013-06-02 07:42:00,
2013-06-02 03:43:00,69.2,65.8,30.02,WSW,252,2.0,3.0,89,0.00,,---,0.00,VWS V14.01,2013-06-02 07:43:00,
2013-06-02 03:44:00,69.2,65.8,30.03,WSW,256,1.0,3.0,89,0.00,,---,0.00,VWS V14.01,2013-06-02 07:44:00,
2013-06-02 03:45:00,69.2,65.8,30.03,SW,233,2.0,2.0,89,0.00,,---,0.00,VWS V14.01,2013-06-02 07:45:00,
2013-06-02 03:46:00,69.2,65.8,30.03,SW,219,1.0,2.0,89,0.00,,---,0.00,VWS V14.01,2013-06-02 07:46:00,
2013-06-02 03:47:00,69.2,65.8,30.03,SE,142,1.0,3.0,89,0.00,,---,0.00,VWS V14.01,2013-06-02 07:47:00,
2013-06-02 03:48:00,69.2,65.8,30.03,WSW,248,3.0,7.0,89,0.00,,---,0.00,VWS V14.01,2013-06-02 07:48:00,
2013-06-02 03:49:00,69.2,65.8,30.03,SW,232,2.0,7.0,89,0.00,,---,0.00,VWS V14.01,2013-06-02 07:49:00,
2013-06-02 03:50:00,69.2,65.8,30.03,WNW,290,1.0,3.0,89,0.00,,---,0.00,VWS V14.01,2013-06-02 07:50:00,
2013-06-02 03:51:00,69.1,65.7,30.03,SW,221,1.0,3.0,89,0.00,,---,0.00,VWS V14.01,2013-06-02 07:51:00,
2013-06-02 03:52:00,69.1,65.7,30.03,SW,221,0.0,1.0,89,0.00,,---,0.00,VWS V14.01,2013-06-02 07:52:00,
2013-06-02 03:53:00,69.1,65.7,30.03,SW,232,2.0,2.0,89,0.00,,---,0.00,VWS V14.01,2013-06-02 07:53:00,
2013-06-02 03:54:00,69.1,65.7,30.03,WSW,240,3.0,3.0,89,0.00,,---,0.00,VWS V14.01,2013-06-02 07:54:00,
2013-06-02 03:55:00,69.1,65.7,30.03,SW,230,2.0,3.0,89,0.00,,---,0.00,VWS V14.01,2013-06-02 07:55:00,
2013-06-02 03:56:00,69.0,65.6,30.03,SSW,196,5.0,5.0,89,0.00,,---,0.00,VWS V14.01,2013-06-02 07:56:00,
2013-06-02 03:57:00,69.0,65.6,30.03,WSW,250,1.0,5.0,89,0.00,,---,0.00,VWS V14.01,2013-06-02 07:57:00,
2013-06-02 03:58:00,69.0,65.6,30.03,SW,236,3.0,3.0,89,0.00,,---,0.00,VWS V14.01,2013-06-02 07:58:00,
2013-06-02 03:59:00,69.0,65.6,30.03,WSW,245,4.0,4.0,89,0.00,,---,0.00,VWS V14.01,2013-06-02 07:59:00,
2013-06-02 04:00:00,69.0,65.9,30.03,WSW,256,5.0,5.0,90,0.00,,---,0.00,VWS V14.01,2013-06-02 08:00:00,
2013-06-02 04:01:00,69.0,65.9,30.03,SW,223,1.0,5.0,90,0.00,,---,0.00,VWS V14.01,2013-06-02 08:01:00,
2013-06-02 04:02:00,69.0,65.9,30.03,WSW,247,2.0,4.0,90,0.00,,---,0.00,VWS V14.01,2013-06-02 08:02:00,
2013-06-02 04:03:00,69.0,65.9,30.03,SW,232,1.0,4.0,90,0.00,,---,0.00,VWS V14.01,2013-06-02 08:03:00,
2013-06-02 04:04:00,69.0,65.9,30.03,SW,233,4.0,4.0,90,0.00,,---,0.00,VWS V14.01,2013-06-02 08:04:00,
2013-06-02 04:05:00,69.0,65.9,30.04,West,265,3.0,3.0,90,0.00,,---,0.00,VWS V14.01,2013-06-02 08:05:00,
2013-06-02 04:06:00,69.0,65.9,30.04,SW,216,3.0,5.0,90,0.00,,---,0.00,VWS V14.01,2013-06-02 08:06:00,
2013-06-02 04:07:00,68.9,65.8,30.04,SW,229,2.0,4.0,90,0.00,,---,0.00,VWS V14.01,2013-06-02 08:07:00,
2013-06-02 04:08:00,68.9,65.8,30.04,WSW,250,1.0,4.0,90,0.00,,---,0.00,VWS V14.01,2013-06-02 08:08:00,
2013-06-02 04:09:00,68.9,65.8,30.04,SSW,210,2.0,3.0,90,0.00,,---,0.00,VWS V14.01,2013-06-02 08:09:00,
2013-06-02 04:10:00,68.9,65.8,30.04,SW,236,2.0,4.0,90,0.00,,---,0.00,VWS V14.01,2013-06-02 08:10:00,
2013-06-02 04:11:00,68.8,65.8,30.04,SW,236,2.0,4.0,90,0.00,,---,0.00,VWS V14.01,2013-06-02 08:11:00,
2013-06-02 04:12:00,68.8,65.8,30.04,SW,217,1.0,2.0,90,0.00,,---,0.00,VWS V14.01,2013-06-02 08:12:00,
2013-06-02 04:13:00,68.8,65.8,30.04,West,265,1.0,1.0,90,0.00,,---,0.00,VWS V14.01,2013-06-02 08:13:00,
2013-06-02 04:14:00,68.8,65.8,30.04,West,259,4.0,4.0,90,0.00,,---,0.00,VWS V14.01,2013-06-02 08:14:00,
2013-06-02 04:15:00,68.8,65.8,30.04,SSW,202,1.0,3.0,90,0.00,,---,0.00,VWS V14.01,2013-06-02 08:15:00,
2013-06-02 04:16:00,68.8,65.8,30.04,WSW,249,2.0,3.0,90,0.00,,---,0.00,VWS V14.01,2013-06-02 08:16:00,
2013-06-02 04:17:00,68.7,65.7,30.04,WSW,244,1.0,2.0,90,0.00,,---,0.00,VWS V14.01,2013-06-02 08:17:00,
2013-06-02 04:18:00,68.7,65.7,30.04,SW,223,5.0,5.0,90,0.00,,---,0.00,VWS V14.01,2013-06-02 08:18:00,
2013-06-02 04:19:00,68.7,66.0,30.04,WSW,257,2.0,5.0,91,0.00,,---,0.00,VWS V14.01,2013-06-02 08:19:00,
2013-06-02 04:20:00,68.6,65.9,30.04,South,190,3.0,4.0,91,0.00,,---,0.00,VWS V14.01,2013-06-02 08:20:00,
2013-06-02 04:21:00,68.6,65.9,30.04,West,281,3.0,5.0,91,0.00,,---,0.00,VWS V14.01,2013-06-02 08:21:00,
2013-06-02 04:22:00,68.6,65.9,30.04,WSW,242,2.0,5.0,91,0.00,,---,0.00,VWS V14.01,2013-06-02 08:22:00,
2013-06-02 04:23:00,68.6,65.9,30.03,SW,226,3.0,3.0,91,0.00,,---,0.00,VWS V14.01,2013-06-02 08:23:00,
2013-06-02 04:24:00,68.6,65.9,30.03,SW,218,2.0,4.0,91,0.00,,---,0.00,VWS V14.01,2013-06-02 08:24:00,
2013-06-02 04:25:00,68.5,65.8,30.03,WSW,242,2.0,2.0,91,0.00,,---,0.00,VWS V14.01,2013-06-02 08:25:00,
2013-06-02 04:26:00,68.5,65.8,30.03,West,275,1.0,2.0,91,0.00,,---,0.00,VWS V14.01,2013-06-02 08:26:00,
2013-06-02 04:27:00,68.5,65.8,30.03,SSW,210,3.0,3.0,91,0.00,,---,0.00,VWS V14.01,2013-06-02 08:27:00,
2013-06-02 04:28:00,68.5,65.8,30.03,WSW,252,2.0,3.0,91,0.00,,---,0.00,VWS V14.01,2013-06-02 08:28:00,
2013-06-02 04:29:00,68.5,65.8,30.03,SSW,196,1.0,2.0,91,0.00,,---,0.00,VWS V14.01,2013-06-02 08:29:00,
2013-06-02 04:30:00,68.5,65.8,30.03,West,260,1.0,1.0,91,0.00,,---,0.00,VWS V14.01,2013-06-02 08:30:00,
2013-06-02 04:31:00,68.5,65.8,30.03,WSW,254,1.0,2.0,91,0.00,,---,0.00,VWS V14.01,2013-06-02 08:31:00,
2013-06-02 04:32:00,68.4,65.7,30.03,South,188,1.0,1.0,91,0.00,,---,0.00,VWS V14.01,2013-06-02 08:32:00,
2013-06-02 04:33:00,68.4,65.7,30.03,WSW,252,3.0,5.0,91,0.00,,---,0.00,VWS V14.01,2013-06-02 08:33:00,
2013-06-02 04:34:00,68.4,65.7,30.03,SW,233,1.0,3.0,91,0.00,,---,0.00,VWS V14.01,2013-06-02 08:34:00,
2013-06-02 04:35:00,68.4,65.7,30.03,SSW,199,2.0,2.0,91,0.00,,---,0.00,VWS V14.01,2013-06-02 08:35:00,
2013-06-02 04:36:00,68.4,65.7,30.03,West,276,0.0,3.0,91,0.00,,---,0.00,VWS V14.01,2013-06-02 08:36:00,
2013-06-02 04:37:00,68.4,65.7,30.02,WSW,256,1.0,2.0,91,0.00,,---,0.00,VWS V14.01,2013-06-02 08:37:00,
2013-06-02 04:38:00,68.4,65.7,30.02,SSW,211,1.0,2.0,91,0.00,,---,0.00,VWS V14.01,2013-06-02 08:38:00,
2013-06-02 04:39:00,68.4,65.7,30.02,SW,232,2.0,3.0,91,0.00,,---,0.00,VWS V14.01,2013-06-02 08:39:00,
2013-06-02 04:40:00,68.4,65.7,30.02,WSW,248,2.0,2.0,91,0.00,,---,0.00,VWS V14.01,2013-06-02 08:40:00,
2013-06-02 04:41:00,68.4,65.7,30.02,WSW,240,1.0,2.0,91,0.00,,---,0.00,VWS V14.01,2013-06-02 08:41:00,
2013-06-02 04:42:00,68.4,66.0,30.02,South,180,2.0,2.0,92,0.00,,---,0.00,VWS V14.01,2013-06-02 08:42:00,
2013-06-02 04:43:00,68.4,66.0,30.02,WSW,241,2.0,2.0,92,0.00,,---,0.00,VWS V14.01,2013-06-02 08:43:00,
2013-06-02 04:44:00,68.4,66.0,30.02,South,190,4.0,4.0,92,0.00,,---,0.00,VWS V14.01,2013-06-02 08:44:00,
2013-06-02 04:45:00,68.4,66.0,30.02,SW,215,3.0,3.0,92,0.00,,---,0.00,VWS V14.01,2013-06-02 08:45:00,
2013-06-02 04:46:00,68.3,65.9,30.02,SSW,194,0.0,3.0,92,0.00,,---,0.00,VWS V14.01,2013-06-02 08:46:00,
2013-06-02 04:47:00,68.3,65.9,30.02,SSW,194,0.0,0.0,92,0.00,,---,0.00,VWS V14.01,2013-06-02 08:47:00,
2013-06-02 04:48:00,68.3,65.9,30.02,WSW,254,0.0,0.0,92,0.00,,---,0.00,VWS V14.01,2013-06-02 08:48:00,
2013-06-02 04:49:00,68.3,65.9,30.02,SSE,167,2.0,2.0,92,0.00,,---,0.00,VWS V14.01,2013-06-02 08:49:00,
2013-06-02 04:50:00,68.3,65.9,30.02,SSW,202,3.0,3.0,92,0.00,,---,0.00,VWS V14.01,2013-06-02 08:50:00,
2013-06-02 04:51:00,68.3,65.9,30.02,South,186,1.0,3.0,92,0.00,,---,0.00,VWS V14.01,2013-06-02 08:51:00,
2013-06-02 04:52:00,68.2,65.8,30.02,WNW,284,2.0,4.0,92,0.00,,---,0.00,VWS V14.01,2013-06-02 08:52:00,
2013-06-02 04:53:00,68.2,65.8,30.02,WSW,256,4.0,4.0,92,0.00,,---,0.00,VWS V14.01,2013-06-02 08:53:00,
2013-06-02 04:54:00,68.2,65.8,30.03,SSW,213,3.0,4.0,92,0.00,,---,0.00,VWS V14.01,2013-06-02 08:54:00,
2013-06-02 04:55:00,68.2,65.8,30.03,West,261,1.0,1.0,92,0.00,,---,0.00,VWS V14.01,2013-06-02 08:55:00,
2013-06-02 04:56:00,68.2,65.8,30.03,West,268,2.0,2.0,92,0.00,,---,0.00,VWS V14.01,2013-06-02 08:56:00,
2013-06-02 04:57:00,68.2,65.8,30.03,WSW,244,2.0,5.0,92,0.00,,---,0.00,VWS V14.01,2013-06-02 08:57:00,
2013-06-02 04:58:00,68.2,65.8,30.03,SW,217,3.0,3.0,92,0.00,,---,0.00,VWS V14.01,2013-06-02 08:58:00,
2013-06-02 04:59:00,68.2,65.8,30.03,WSW,249,2.0,4.0,92,0.00,,---,0.00,VWS V14.01,2013-06-02 08:59:00,
2013-06-02 05:00:00,68.2,65.8,30.03,West,280,0.0,0.0,92,0.00,,---,0.00,VWS V14.01,2013-06-02 09:00:00,
2013-06-02 05:01:00,68.2,65.8,30.03,WSW,252,1.0,1.0,92,0.00,,---,0.00,VWS V14.01,2013-06-02 09:01:00,
2013-06-02 05:02:00,68.2,65.8,30.03,WSW,245,0.0,2.0,92,0.00,,---,0.00,VWS V14.01,2013-06-02 09:02:00,
2013-06-02 05:03:00,68.2,65.8,30.03,WSW,246,1.0,2.0,92,0.00,,---,0.00,VWS V14.01,2013-06-02 09:03:00,
2013-06-02 05:04:00,68.2,65.8,30.03,SW,225,2.0,2.0,92,0.00,,---,0.00,VWS V14.01,2013-06-02 09:04:00,
2013-06-02 05:05:00,68.2,65.8,30.03,WSW,245,0.0,1.0,92,0.00,,---,0.00,VWS V14.01,2013-06-02 09:05:00,
2013-06-02 05:06:00,68.2,66.1,30.03,SSW,193,2.0,3.0,93,0.00,,---,0.00,VWS V14.01,2013-06-02 09:06:00,
2013-06-02 05:07:00,68.2,66.1,30.02,SSW,202,1.0,2.0,93,0.00,,---,0.00,VWS V14.01,2013-06-02 09:07:00,
2013-06-02 05:08:00,68.2,66.1,30.03,SW,217,4.0,5.0,93,0.00,,---,0.00,VWS V14.01,2013-06-02 09:08:00,
2013-06-02 05:09:00,68.2,66.1,30.03,WSW,241,2.0,5.0,93,0.00,,---,0.00,VWS V14.01,2013-06-02 09:09:00,
2013-06-02 05:10:00,68.2,66.1,30.03,WSW,250,1.0,1.0,93,0.00,,---,0.00,VWS V14.01,2013-06-02 09:10:00,
2013-06-02 05:11:00,68.2,66.1,30.03,SSE,168,2.0,2.0,93,0.00,,---,0.00,VWS V14.01,2013-06-02 09:11:00,
2013-06-02 05:12:00,68.2,66.1,30.03,South,179,3.0,5.0,93,0.00,,---,0.00,VWS V14.01,2013-06-02 09:12:00,
2013-06-02 05:13:00,68.3,66.2,30.02,SW,223,2.0,3.0,93,0.00,,---,0.00,VWS V14.01,2013-06-02 09:13:00,
2013-06-02 05:14:00,68.3,66.2,30.03,WSW,237,2.0,3.0,93,0.00,,---,0.00,VWS V14.01,2013-06-02 09:14:00,
2013-06-02 05:15:00,68.3,66.2,30.02,West,267,1.0,2.0,93,0.00,,---,0.00,VWS V14.01,2013-06-02 09:15:00,
2013-06-02 05:16:00,68.3,66.2,30.02,SW,214,2.0,2.0,93,0.00,,---,0.00,VWS V14.01,2013-06-02 09:16:00,
2013-06-02 05:17:00,68.3,66.2,30.02,WSW,252,0.0,2.0,93,0.00,,---,0.00,VWS V14.01,2013-06-02 09:17:00,
2013-06-02 05:18:00,68.3,66.2,30.02,SW,222,5.0,5.0,93,0.00,,---,0.00,VWS V14.01,2013-06-02 09:18:00,
2013-06-02 05:19:00,68.3,66.2,30.02,SSW,207,2.0,5.0,93,0.00,,---,0.00,VWS V14.01,2013-06-02 09:19:00,
2013-06-02 05:20:00,68.4,66.3,30.02,West,261,2.0,2.0,93,0.00,,---,0.00,VWS V14.01,2013-06-02 09:20:00,
2013-06-02 05:21:00,68.4,66.3,30.02,WSW,240,2.0,5.0,93,0.00,,---,0.00,VWS V14.01,2013-06-02 09:21:00,
2013-06-02 05:22:00,68.4,66.3,30.02,West,264,1.0,2.0,93,0.00,,---,0.00,VWS V14.01,2013-06-02 09:22:00,
2013-06-02 05:23:00,68.4,66.3,30.03,SE,146,3.0,4.0,93,0.00,,---,0.00,VWS V14.01,2013-06-02 09:23:00,
2013-06-02 05:24:00,68.4,66.3,30.03,SW,219,3.0,5.0,93,0.00,,---,0.00,VWS V14.01,2013-06-02 09:24:00,
2013-06-02 05:25:00,68.4,66.3,30.03,SW,217,6.0,6.0,93,0.00,,---,0.00,VWS V14.01,2013-06-02 09:25:00,
2013-06-02 05:26:00,68.4,66.3,30.03,WSW,250,4.0,6.0,93,0.00,,---,0.00,VWS V14.01,2013-06-02 09:26:00,
2013-06-02 05:27:00,68.5,66.4,30.03,WSW,258,2.0,7.0,93,0.00,,---,0.00,VWS V14.01,2013-06-02 09:27:00,
2013-06-02 05:28:00,68.5,66.4,30.03,West,269,2.0,3.0,93,0.00,,---,0.00,VWS V14.01,2013-06-02 09:28:00,
2013-06-02 05:29:00,68.5,66.4,30.03,SW,230,3.0,5.0,93,0.00,,---,0.00,VWS V14.01,2013-06-02 09:29:00,
2013-06-02 05:30:00,68.5,66.4,30.03,WSW,249,3.0,5.0,93,0.00,,---,0.00,VWS V14.01,2013-06-02 09:30:00,
2013-06-02 05:31:00,68.5,66.4,30.03,SSW,208,3.0,5.0,93,0.00,,---,0.00,VWS V14.01,2013-06-02 09:31:00,
2013-06-02 05:32:00,68.5,66.4,30.03,WSW,240,2.0,4.0,93,0.00,,---,0.00,VWS V14.01,2013-06-02 09:32:00,
2013-06-02 05:33:00,68.5,66.4,30.03,WSW,248,2.0,4.0,93,0.00,,---,0.00,VWS V14.01,2013-06-02 09:33:00,
2013-06-02 05:34:00,68.6,66.5,30.03,West,270,7.0,8.0,93,0.00,,---,0.00,VWS V14.01,2013-06-02 09:34:00,
2013-06-02 05:35:00,68.5,66.4,30.03,SSW,207,3.0,6.0,93,0.00,,---,0.00,VWS V14.01,2013-06-02 09:35:00,
2013-06-02 05:36:00,68.6,66.5,30.03,SW,229,3.0,6.0,93,0.00,,---,0.00,VWS V14.01,2013-06-02 09:36:00,
2013-06-02 05:37:00,68.6,66.5,30.03,WSW,254,2.0,4.0,93,0.00,,---,0.00,VWS V14.01,2013-06-02 09:37:00,
2013-06-02 05:38:00,68.6,66.5,30.03,West,260,1.0,2.0,93,0.00,,---,0.00,VWS V14.01,2013-06-02 09:38:00,
2013-06-02 05:39:00,68.6,66.5,30.03,West,281,1.0,2.0,93,0.00,,---,0.00,VWS V14.01,2013-06-02 09:39:00,
2013-06-02 05:40:00,68.6,66.5,30.02,SSW,206,6.0,6.0,93,0.00,,---,0.00,VWS V14.01,2013-06-02 09:40:00,
2013-06-02 05:41:00,68.6,66.5,30.02,SW,225,6.0,6.0,93,0.00,,---,0.00,VWS V14.01,2013-06-02 09:41:00,
2013-06-02 05:42:00,68.7,66.6,30.03,WSW,245,3.0,7.0,93,0.00,,---,0.00,VWS V14.01,2013-06-02 09:42:00,
2013-06-02 05:43:00,68.8,66.7,30.03,South,176,4.0,6.0,93,0.00,,---,0.00,VWS V14.01,2013-06-02 09:43:00,
2013-06-02 05:44:00,68.8,66.7,30.03,SW,229,3.0,4.0,93,0.00,,---,0.00,VWS V14.01,2013-06-02 09:44:00,
2013-06-02 05:45:00,68.8,66.7,30.03,WSW,249,0.0,4.0,93,0.00,,---,0.00,VWS V14.01,2013-06-02 09:45:00,
2013-06-02 05:46:00,68.8,66.7,30.03,WSW,252,5.0,5.0,93,0.00,,---,0.00,VWS V14.01,2013-06-02 09:46:00,
2013-06-02 05:47:00,68.8,66.7,30.03,SW,219,4.0,5.0,93,0.00,,---,0.00,VWS V14.01,2013-06-02 09:47:00,
2013-06-02 05:48:00,68.9,66.8,30.03,West,276,2.0,5.0,93,0.00,,---,0.00,VWS V14.01,2013-06-02 09:48:00,
2013-06-02 05:49:00,68.9,66.8,30.03,SW,217,4.0,4.0,93,0.00,,---,0.00,VWS V14.01,2013-06-02 09:49:00,
2013-06-02 05:50:00,68.9,66.8,30.03,SSW,200,4.0,4.0,93,0.00,,---,0.00,VWS V14.01,2013-06-02 09:50:00,
2013-06-02 05:51:00,68.9,66.8,30.03,West,275,3.0,5.0,93,0.00,,---,0.00,VWS V14.01,2013-06-02 09:51:00,
2013-06-02 05:52:00,68.9,66.8,30.03,WNW,291,2.0,3.0,93,0.00,,---,0.00,VWS V14.01,2013-06-02 09:52:00,
2013-06-02 05:53:00,69.0,66.9,30.03,South,182,0.0,2.0,93,0.00,,---,0.00,VWS V14.01,2013-06-02 09:53:00,
2013-06-02 05:54:00,69.0,66.9,30.03,SSE,167,4.0,7.0,93,0.00,,---,0.00,VWS V14.01,2013-06-02 09:54:00,
2013-06-02 05:55:00,69.0,66.9,30.03,WSW,244,2.0,4.0,93,0.00,,---,0.00,VWS V14.01,2013-06-02 09:55:00,
2013-06-02 05:56:00,69.0,66.9,30.03,West,260,2.0,4.0,93,0.00,,---,0.00,VWS V14.01,2013-06-02 09:56:00,
2013-06-02 05:57:00,69.0,66.9,30.03,WSW,248,5.0,5.0,93,0.00,,---,0.00,VWS V14.01,2013-06-02 09:57:00,
2013-06-02 05:58:00,69.0,66.9,30.04,SW,223,2.0,6.0,93,0.00,,---,0.00,VWS V14.01,2013-06-02 09:58:00,
2013-06-02 05:59:00,69.0,66.9,30.04,West,261,9.0,9.0,93,0.00,,---,0.00,VWS V14.01,2013-06-02 09:59:00,
2013-06-02 06:00:00,69.0,66.9,30.04,WNW,282,4.0,5.0,93,0.00,,---,0.00,VWS V14.01,2013-06-02 10:00:00,
2013-06-02 06:01:00,69.1,67.0,30.04,West,260,1.0,5.0,93,0.00,,---,0.00,VWS V14.01,2013-06-02 10:01:00,
2013-06-02 06:02:00,69.1,67.0,30.03,SW,218,1.0,4.0,93,0.00,,---,0.00,VWS V14.01,2013-06-02 10:02:00,
2013-06-02 06:03:00,69.2,67.1,30.03,SW,232,7.0,7.0,93,0.00,,---,0.00,VWS V14.01,2013-06-02 10:03:00,
2013-06-02 06:04:00,69.2,67.1,30.03,WSW,253,3.0,9.0,93,0.00,,---,0.00,VWS V14.01,2013-06-02 10:04:00,
2013-06-02 06:05:00,69.2,67.1,30.04,WSW,252,6.0,6.0,93,0.00,,---,0.00,VWS V14.01,2013-06-02 10:05:00,
2013-06-02 06:06:00,69.2,66.8,30.04,SE,132,3.0,6.0,92,0.00,,---,0.00,VWS V14.01,2013-06-02 10:06:00,
2013-06-02 06:07:00,69.2,66.8,30.03,West,279,2.0,4.0,92,0.00,,---,0.00,VWS V14.01,2013-06-02 10:07:00,
2013-06-02 06:08:00,69.3,66.9,30.04,SW,236,1.0,7.0,92,0.00,,---,0.00,VWS V14.01,2013-06-02 10:08:00,
2013-06-02 06:09:00,69.3,66.9,30.04,West,277,2.0,3.0,92,0.00,,---,0.00,VWS V14.01,2013-06-02 10:09:00,
2013-06-02 06:10:00,69.3,66.9,30.04,West,276,2.0,6.0,92,0.00,,---,0.00,VWS V14.01,2013-06-02 10:10:00,
2013-06-02 06:11:00,69.3,66.9,30.04,WSW,250,2.0,2.0,92,0.00,,---,0.00,VWS V14.01,2013-06-02 10:11:00,
2013-06-02 06:12:00,69.4,67.0,30.04,SSW,205,4.0,7.0,92,0.00,,---,0.00,VWS V14.01,2013-06-02 10:12:00,
2013-06-02 06:13:00,69.4,67.0,30.04,WNW,284,5.0,7.0,92,0.00,,---,0.00,VWS V14.01,2013-06-02 10:13:00,
2013-06-02 06:14:00,69.4,67.0,30.04,West,264,4.0,9.0,92,0.00,,---,0.00,VWS V14.01,2013-06-02 10:14:00,
2013-06-02 06:15:00,69.4,67.0,30.04,SW,227,6.0,7.0,92,0.00,,---,0.00,VWS V14.01,2013-06-02 10:15:00,
2013-06-02 06:16:00,69.4,67.0,30.04,WNW,284,3.0,6.0,92,0.00,,---,0.00,VWS V14.01,2013-06-02 10:16:00,
2013-06-02 06:17:00,69.4,67.0,30.04,SW,217,4.0,5.0,92,0.00,,---,0.00,VWS V14.01,2013-06-02 10:17:00,
2013-06-02 06:18:00,69.4,67.0,30.04,SW,232,3.0,4.0,92,0.00,,---,0.00,VWS V14.01,2013-06-02 10:18:00,
2013-06-02 06:19:00,69.4,67.0,30.04,West,259,3.0,5.0,92,0.00,,---,0.00,VWS V14.01,2013-06-02 10:19:00,
2013-06-02 06:20:00,69.4,67.0,30.04,WSW,245,4.0,8.0,92,0.00,,---,0.00,VWS V14.01,2013-06-02 10:20:00,
2013-06-02 06:21:00,69.4,67.0,30.04,SSW,193,4.0,7.0,92,0.00,,---,0.00,VWS V14.01,2013-06-02 10:21:00,
2013-06-02 06:22:00,69.4,66.7,30.04,SSE,161,2.0,4.0,91,0.00,,---,0.00,VWS V14.01,2013-06-02 10:22:00,
2013-06-02 06:23:00,69.4,66.7,30.04,West,279,3.0,10.0,91,0.00,,---,0.00,VWS V14.01,2013-06-02 10:23:00,
2013-06-02 06:24:00,69.4,66.7,30.04,SSW,211,5.0,6.0,91,0.00,,---,0.00,VWS V14.01,2013-06-02 10:24:00,
2013-06-02 06:25:00,69.5,66.8,30.04,SW,221,2.0,5.0,91,0.00,,---,0.00,VWS V14.01,2013-06-02 10:25:00,
2013-06-02 06:26:00,69.5,66.8,30.04,WSW,249,2.0,3.0,91,0.00,,---,0.00,VWS V14.01,2013-06-02 10:26:00,
2013-06-02 06:27:00,69.5,66.8,30.04,West,264,2.0,4.0,91,0.00,,---,0.00,VWS V14.01,2013-06-02 10:27:00,
2013-06-02 06:28:00,69.5,66.8,30.04,SW,236,5.0,5.0,91,0.00,,---,0.00,VWS V14.01,2013-06-02 10:28:00,
2013-06-02 06:29:00,69.5,66.8,30.04,SW,221,4.0,5.0,91,0.00,,---,0.00,VWS V14.01,2013-06-02 10:29:00,
2013-06-02 06:30:00,69.5,66.8,30.04,WSW,242,1.0,4.0,91,0.00,,---,0.00,VWS V14.01,2013-06-02 10:30:00,
2013-06-02 06:31:00,69.5,66.8,30.04,WSW,243,6.0,7.0,91,0.00,,---,0.00,VWS V14.01,2013-06-02 10:31:00,
2013-06-02 06:32:00,69.5,66.8,30.04,SSW,205,1.0,6.0,91,0.00,,---,0.00,VWS V14.01,2013-06-02 10:32:00,
2013-06-02 06:33:00,69.5,66.8,30.04,WSW,252,4.0,4.0,91,0.00,,---,0.00,VWS V14.01,2013-06-02 10:33:00,
2013-06-02 06:34:00,69.5,66.8,30.04,WSW,252,6.0,11.0,91,0.00,,---,0.00,VWS V14.01,2013-06-02 10:34:00,
2013-06-02 06:35:00,69.5,66.8,30.04,SW,217,3.0,6.0,91,0.00,,---,0.00,VWS V14.01,2013-06-02 10:35:00,
2013-06-02 06:36:00,69.5,66.8,30.04,SSE,156,2.0,5.0,91,0.00,,---,0.00,VWS V14.01,2013-06-02 10:36:00,
2013-06-02 06:37:00,69.6,66.9,30.04,West,268,3.0,5.0,91,0.00,,---,0.00,VWS V14.01,2013-06-02 10:37:00,
2013-06-02 06:38:00,69.6,66.9,30.04,SSW,200,7.0,7.0,91,0.00,,---,0.00,VWS V14.01,2013-06-02 10:38:00,
2013-06-02 06:39:00,69.6,66.9,30.05,SW,225,5.0,7.0,91,0.00,,---,0.00,VWS V14.01,2013-06-02 10:39:00,
2013-06-02 06:40:00,69.6,66.9,30.04,West,277,5.0,5.0,91,0.00,,---,0.00,VWS V14.01,2013-06-02 10:40:00,
2013-06-02 06:41:00,69.6,66.9,30.05,SW,223,6.0,11.0,91,0.00,,---,0.00,VWS V14.01,2013-06-02 10:41:00,
2013-06-02 06:42:00,69.6,66.9,30.05,WNW,291,3.0,8.0,91,0.00,,---,0.00,VWS V14.01,2013-06-02 10:42:00,
2013-06-02 06:43:00,69.6,66.9,30.05,WSW,237,2.0,5.0,91,0.00,,---,0.00,VWS V14.01,2013-06-02 10:43:00,
2013-06-02 06:44:00,69.7,67.0,30.05,West,268,3.0,3.0,91,0.00,,---,0.00,VWS V14.01,2013-06-02 10:44:00,
2013-06-02 06:45:00,69.7,67.0,30.05,SW,223,4.0,4.0,91,0.00,,---,0.00,VWS V14.01,2013-06-02 10:45:00,
2013-06-02 06:46:00,69.7,67.0,30.05,West,280,1.0,2.0,91,0.00,,---,0.00,VWS V14.01,2013-06-02 10:46:00,
2013-06-02 06:47:00,69.7,67.0,30.05,SW,232,5.0,5.0,91,0.00,,---,0.00,VWS V14.01,2013-06-02 10:47:00,
2013-06-02 06:48:00,69.7,67.0,30.05,West,269,4.0,8.0,91,0.00,,---,0.00,VWS V14.01,2013-06-02 10:48:00,
2013-06-02 06:49:00,69.7,67.0,30.05,WSW,256,3.0,4.0,91,0.00,,---,0.00,VWS V14.01,2013-06-02 10:49:00,
2013-06-02 06:50:00,69.7,67.0,30.05,West,263,1.0,5.0,91,0.00,,---,0.00,VWS V14.01,2013-06-02 10:50:00,
2013-06-02 06:51:00,69.7,67.0,30.05,West,280,2.0,6.0,91,0.00,,---,0.00,VWS V14.01,2013-06-02 10:51:00,
2013-06-02 06:52:00,69.7,67.0,30.05,WSW,237,6.0,6.0,91,0.00,,---,0.00,VWS V14.01,2013-06-02 10:52:00,
2013-06-02 06:53:00,69.8,67.1,30.05,SW,232,2.0,6.0,91,0.00,,---,0.00,VWS V14.01,2013-06-02 10:53:00,
2013-06-02 06:54:00,69.8,67.1,30.05,West,281,2.0,3.0,91,0.00,,---,0.00,VWS V14.01,2013-06-02 10:54:00,
2013-06-02 06:55:00,69.8,67.1,30.05,WNW,283,3.0,3.0,91,0.00,,---,0.00,VWS V14.01,2013-06-02 10:55:00,
2013-06-02 06:56:00,69.8,67.1,30.05,WSW,252,1.0,3.0,91,0.00,,---,0.00,VWS V14.01,2013-06-02 10:56:00,
2013-06-02 06:57:00,69.9,67.2,30.05,WSW,242,3.0,3.0,91,0.00,,---,0.00,VWS V14.01,2013-06-02 10:57:00,
2013-06-02 06:58:00,69.9,67.2,30.05,SW,236,6.0,6.0,91,0.00,,---,0.00,VWS V14.01,2013-06-02 10:58:00,
2013-06-02 06:59:00,69.9,67.2,30.05,WSW,245,1.0,6.0,91,0.00,,---,0.00,VWS V14.01,2013-06-02 10:59:00,
2013-06-02 07:00:00,69.9,67.2,30.05,WNW,284,2.0,3.0,91,0.00,,---,0.00,VWS V14.01,2013-06-02 11:00:00,
2013-06-02 07:01:00,69.9,67.2,30.06,WSW,252,9.0,11.0,91,0.00,,---,0.00,VWS V14.01,2013-06-02 11:01:00,
2013-06-02 07:02:00,69.9,67.2,30.05,West,277,1.0,9.0,91,0.00,,---,0.00,VWS V14.01,2013-06-02 11:02:00,
2013-06-02 07:03:00,70.0,67.3,30.05,WSW,248,3.0,4.0,91,0.00,,---,0.00,VWS V14.01,2013-06-02 11:03:00,
2013-06-02 07:04:00,70.0,66.9,30.05,SW,233,4.0,7.0,90,0.00,,---,0.00,VWS V14.01,2013-06-02 11:04:00,
2013-06-02 07:05:00,70.0,66.9,30.05,NW,314,1.0,4.0,90,0.00,,---,0.00,VWS V14.01,2013-06-02 11:05:00,
2013-06-02 07:06:00,70.0,66.9,30.06,West,277,1.0,5.0,90,0.00,,---,0.00,VWS V14.01,2013-06-02 11:06:00,
2013-06-02 07:07:00,70.0,66.9,30.06,NW,315,1.0,2.0,90,0.00,,---,0.00,VWS V14.01,2013-06-02 11:07:00,
2013-06-02 07:08:00,70.0,66.9,30.05,West,272,2.0,3.0,90,0.00,,---,0.00,VWS V14.01,2013-06-02 11:08:00,
2013-06-02 07:09:00,70.1,67.0,30.06,SSW,205,2.0,8.0,90,0.00,,---,0.00,VWS V14.01,2013-06-02 11:09:00,
2013-06-02 07:10:00,70.1,67.0,30.06,WSW,252,2.0,3.0,90,0.00,,---,0.00,VWS V14.01,2013-06-02 11:10:00,
2013-06-02 07:11:00,70.1,67.0,30.06,SSW,199,4.0,5.0,90,0.00,,---,0.00,VWS V14.01,2013-06-02 11:11:00,
2013-06-02 07:12:00,70.2,67.1,30.06,WNW,284,5.0,5.0,90,0.00,,---,0.00,VWS V14.01,2013-06-02 11:12:00,
2013-06-02 07:13:00,70.2,67.1,30.06,WSW,256,4.0,7.0,90,0.00,,---,0.00,VWS V14.01,2013-06-02 11:13:00,
2013-06-02 07:14:00,70.2,67.1,30.06,WNW,284,8.0,8.0,90,0.00,,---,0.00,VWS V14.01,2013-06-02 11:14:00,
2013-06-02 07:15:00,70.2,67.1,30.06,WNW,288,5.0,8.0,90,0.00,,---,0.00,VWS V14.01,2013-06-02 11:15:00,
2013-06-02 07:16:00,70.2,67.1,30.06,West,262,5.0,9.0,90,0.00,,---,0.00,VWS V14.01,2013-06-02 11:16:00,
2013-06-02 07:17:00,70.2,67.1,30.06,West,280,5.0,7.0,90,0.00,,---,0.00,VWS V14.01,2013-06-02 11:17:00,
2013-06-02 07:18:00,70.3,67.2,30.06,West,281,3.0,5.0,90,0.00,,---,0.00,VWS V14.01,2013-06-02 11:18:00,
2013-06-02 07:19:00,70.3,67.2,30.06,West,277,3.0,5.0,90,0.00,,---,0.00,VWS V14.01,2013-06-02 11:19:00,
2013-06-02 07:20:00,70.3,67.2,30.06,SW,230,5.0,5.0,90,0.00,,---,0.00,VWS V14.01,2013-06-02 11:20:00,
2013-06-02 07:21:00,70.3,67.2,30.06,West,263,4.0,4.0,90,0.00,,---,0.00,VWS V14.01,2013-06-02 11:21:00,
2013-06-02 07:22:00,70.3,67.2,30.06,WNW,284,7.0,7.0,90,0.00,,---,0.00,VWS V14.01,2013-06-02 11:22:00,
2013-06-02 07:23:00,70.3,67.2,30.06,WNW,286,7.0,8.0,90,0.00,,---,0.00,VWS V14.01,2013-06-02 11:23:00,
2013-06-02 07:24:00,70.3,67.2,30.06,WSW,257,3.0,7.0,90,0.00,,---,0.00,VWS V14.01,2013-06-02 11:24:00,
2013-06-02 07:25:00,70.3,66.9,30.06,West,260,3.0,3.0,89,0.00,,---,0.00,VWS V14.01,2013-06-02 11:25:00,
2013-06-02 07:26:00,70.4,67.3,30.06,West,267,1.0,6.0,90,0.00,,---,0.00,VWS V14.01,2013-06-02 11:26:00,
2013-06-02 07:27:00,70.4,67.3,30.05,WNW,286,1.0,3.0,90,0.00,,---,0.00,VWS V14.01,2013-06-02 11:27:00,
2013-06-02 07:28:00,70.4,67.0,30.05,West,280,2.0,5.0,89,0.00,,---,0.00,VWS V14.01,2013-06-02 11:28:00,
2013-06-02 07:29:00,70.4,67.0,30.05,WNW,284,5.0,10.0,89,0.00,,---,0.00,VWS V14.01,2013-06-02 11:29:00,
2013-06-02 07:30:00,70.5,67.1,30.05,West,267,4.0,5.0,89,0.00,,---,0.00,VWS V14.01,2013-06-02 11:30:00,
2013-06-02 07:31:00,70.5,67.1,30.06,West,277,3.0,6.0,89,0.00,,---,0.00,VWS V14.01,2013-06-02 11:31:00,
2013-06-02 07:32:00,70.5,67.1,30.06,West,261,2.0,3.0,89,0.00,,---,0.00,VWS V14.01,2013-06-02 11:32:00,
2013-06-02 07:33:00,70.5,67.1,30.05,WNW,284,3.0,4.0,89,0.00,,---,0.00,VWS V14.01,2013-06-02 11:33:00,
2013-06-02 07:34:00,70.5,67.1,30.05,SW,236,6.0,6.0,89,0.00,,---,0.00,VWS V14.01,2013-06-02 11:34:00,
2013-06-02 07:35:00,70.6,67.2,30.05,SW,223,5.0,6.0,89,0.00,,---,0.00,VWS V14.01,2013-06-02 11:35:00,
2013-06-02 07:36:00,70.6,67.2,30.05,WSW,250,3.0,7.0,89,0.00,,---,0.00,VWS V14.01,2013-06-02 11:36:00,
2013-06-02 07:37:00,70.6,67.2,30.05,West,281,1.0,3.0,89,0.00,,---,0.00,VWS V14.01,2013-06-02 11:37:00,
2013-06-02 07:38:00,70.6,67.2,30.05,WNW,292,1.0,3.0,89,0.00,,---,0.00,VWS V14.01,2013-06-02 11:38:00,
2013-06-02 07:39:00,70.7,67.3,30.05,West,277,4.0,4.0,89,0.00,,---,0.00,VWS V14.01,2013-06-02 11:39:00,
2013-06-02 07:40:00,70.7,67.3,30.05,SW,232,5.0,5.0,89,0.00,,---,0.00,VWS V14.01,2013-06-02 11:40:00,
2013-06-02 07:41:00,70.7,67.3,30.05,WSW,258,3.0,6.0,89,0.00,,---,0.00,VWS V14.01,2013-06-02 11:41:00,
2013-06-02 07:42:00,70.7,67.3,30.05,West,272,5.0,5.0,89,0.00,,---,0.00,VWS V14.01,2013-06-02 11:42:00,
2013-06-02 07:43:00,70.8,67.4,30.05,West,262,5.0,5.0,89,0.00,,---,0.00,VWS V14.01,2013-06-02 11:43:00,
2013-06-02 07:44:00,70.8,67.1,30.05,West,267,2.0,6.0,88,0.00,,---,0.00,VWS V14.01,2013-06-02 11:44:00,
2013-06-02 07:45:00,70.9,67.2,30.05,WSW,246,4.0,6.0,88,0.00,,---,0.00,VWS V14.01,2013-06-02 11:45:00,
2013-06-02 07:46:00,70.9,67.5,30.05,West,264,1.0,4.0,89,0.00,,---,0.00,VWS V14.01,2013-06-02 11:46:00,
2013-06-02 07:47:00,70.9,67.5,30.05,SW,233,7.0,8.0,89,0.00,,---,0.00,VWS V14.01,2013-06-02 11:47:00,
2013-06-02 07:48:00,70.9,67.2,30.05,West,261,3.0,7.0,88,0.00,,---,0.00,VWS V14.01,2013-06-02 11:48:00,
2013-06-02 07:49:00,71.0,67.3,30.05,West,276,3.0,5.0,88,0.00,,---,0.00,VWS V14.01,2013-06-02 11:49:00,
2013-06-02 07:50:00,71.0,67.3,30.05,SW,230,6.0,6.0,88,0.00,,---,0.00,VWS V14.01,2013-06-02 11:50:00,
2013-06-02 07:51:00,71.0,67.3,30.05,SW,229,2.0,7.0,88,0.00,,---,0.00,VWS V14.01,2013-06-02 11:51:00,
2013-06-02 07:52:00,71.0,67.3,30.05,SSW,199,2.0,4.0,88,0.00,,---,0.00,VWS V14.01,2013-06-02 11:52:00,
2013-06-02 07:53:00,71.1,67.4,30.05,WNW,295,5.0,6.0,88,0.00,,---,0.00,VWS V14.01,2013-06-02 11:53:00,
2013-06-02 07:54:00,71.1,67.4,30.05,West,268,3.0,5.0,88,0.00,,---,0.00,VWS V14.01,2013-06-02 11:54:00,
2013-06-02 07:55:00,71.1,67.4,30.05,West,267,3.0,5.0,88,0.00,,---,0.00,VWS V14.01,2013-06-02 11:55:00,
2013-06-02 07:56:00,71.1,67.4,30.05,SW,232,4.0,4.0,88,0.00,,---,0.00,VWS V14.01,2013-06-02 11:56:00,
2013-06-02 07:57:00,71.2,67.5,30.05,SW,234,4.0,5.0,88,0.00,,---,0.00,VWS V14.01,2013-06-02 11:57:00,
2013-06-02 07:58:00,71.2,67.5,30.05,SSW,194,2.0,9.0,88,0.00,,---,0.00,VWS V14.01,2013-06-02 11:58:00,
2013-06-02 07:59:00,71.2,67.5,30.05,SW,222,9.0,9.0,88,0.00,,---,0.00,VWS V14.01,2013-06-02 11:59:00,
2013-06-02 08:00:00,71.2,67.1,30.05,WSW,246,5.0,9.0,87,0.00,,---,0.00,VWS V14.01,2013-06-02 12:00:00,
2013-06-02 08:01:00,71.2,67.1,30.05,SW,233,4.0,6.0,87,0.00,,---,0.00,VWS V14.01,2013-06-02 12:01:00,
2013-06-02 08:02:00,71.2,67.1,30.05,South,187,4.0,4.0,87,0.00,,---,0.00,VWS V14.01,2013-06-02 12:02:00,
2013-06-02 08:03:00,71.2,67.1,30.05,SSW,213,6.0,6.0,87,0.00,,---,0.00,VWS V14.01,2013-06-02 12:03:00,
2013-06-02 08:04:00,71.3,67.2,30.05,SSE,161,2.0,4.0,87,0.00,,---,0.00,VWS V14.01,2013-06-02 12:04:00,
2013-06-02 08:05:00,71.3,67.2,30.05,SE,135,1.0,4.0,87,0.00,,---,0.00,VWS V14.01,2013-06-02 12:05:00,
2013-06-02 08:06:00,71.4,67.3,30.05,SSW,203,2.0,3.0,87,0.00,,---,0.00,VWS V14.01,2013-06-02 12:06:00,
2013-06-02 08:07:00,71.4,67.3,30.05,South,171,3.0,4.0,87,0.00,,---,0.00,VWS V14.01,2013-06-02 12:07:00,
2013-06-02 08:08:00,71.4,67.3,30.05,East,100,2.0,4.0,87,0.00,,---,0.00,VWS V14.01,2013-06-02 12:08:00,
2013-06-02 08:09:00,71.5,67.4,30.05,West,271,1.0,2.0,87,0.00,,---,0.00,VWS V14.01,2013-06-02 12:09:00,
2013-06-02 08:10:00,71.5,67.4,30.05,West,280,3.0,3.0,87,0.00,,---,0.00,VWS V14.01,2013-06-02 12:10:00,
2013-06-02 08:11:00,71.6,67.5,30.05,SSW,195,3.0,5.0,87,0.00,,---,0.00,VWS V14.01,2013-06-02 12:11:00,
2013-06-02 08:12:00,71.6,67.5,30.05,WNW,297,2.0,3.0,87,0.00,,---,0.00,VWS V14.01,2013-06-02 12:12:00,
2013-06-02 08:13:00,71.6,67.5,30.05,WSW,257,3.0,3.0,87,0.00,,---,0.00,VWS V14.01,2013-06-02 12:13:00,
2013-06-02 08:14:00,71.7,67.6,30.06,SSW,198,4.0,5.0,87,0.00,,---,0.00,VWS V14.01,2013-06-02 12:14:00,
2013-06-02 08:15:00,71.7,67.6,30.06,SSW,202,2.0,5.0,87,0.00,,---,0.00,VWS V14.01,2013-06-02 12:15:00,
2013-06-02 08:16:00,71.8,67.7,30.06,West,260,6.0,6.0,87,0.00,,---,0.00,VWS V14.01,2013-06-02 12:16:00,
2013-06-02 08:17:00,71.8,67.7,30.06,WSW,240,6.0,6.0,87,0.00,,---,0.00,VWS V14.01,2013-06-02 12:17:00,
2013-06-02 08:18:00,71.8,67.7,30.06,SW,215,3.0,6.0,87,0.00,,---,0.00,VWS V14.01,2013-06-02 12:18:00,
2013-06-02 08:19:00,71.8,67.7,30.06,SW,227,2.0,3.0,87,0.00,,---,0.00,VWS V14.01,2013-06-02 12:19:00,
2013-06-02 08:20:00,71.8,67.7,30.06,WSW,250,1.0,3.0,87,0.00,,---,0.00,VWS V14.01,2013-06-02 12:20:00,
2013-06-02 08:21:00,71.9,67.8,30.06,WSW,237,1.0,3.0,87,0.00,,---,0.00,VWS V14.01,2013-06-02 12:21:00,
2013-06-02 08:22:00,71.9,67.8,30.06,South,180,1.0,3.0,87,0.00,,---,0.00,VWS V14.01,2013-06-02 12:22:00,
2013-06-02 08:23:00,72.0,67.9,30.06,South,188,4.0,4.0,87,0.00,,---,0.00,VWS V14.01,2013-06-02 12:23:00,
2013-06-02 08:24:00,72.1,68.0,30.06,WSW,247,2.0,4.0,87,0.00,,---,0.00,VWS V14.01,2013-06-02 12:24:00,
2013-06-02 08:25:00,72.1,68.0,30.06,SSE,165,3.0,4.0,87,0.00,,---,0.00,VWS V14.01,2013-06-02 12:25:00,
2013-06-02 08:26:00,72.1,67.7,30.06,West,266,4.0,5.0,86,0.00,,---,0.00,VWS V14.01,2013-06-02 12:26:00,
2013-06-02 08:27:00,72.2,67.8,30.06,NW,304,3.0,6.0,86,0.00,,---,0.00,VWS V14.01,2013-06-02 12:27:00,
2013-06-02 08:28:00,72.2,67.8,30.06,SE,132,3.0,4.0,86,0.00,,---,0.00,VWS V14.01,2013-06-02 12:28:00,
2013-06-02 08:29:00,72.2,67.8,30.06,West,261,3.0,5.0,86,0.00,,---,0.00,VWS V14.01,2013-06-02 12:29:00,
2013-06-02 08:30:00,72.3,67.9,30.06,WSW,240,6.0,6.0,86,0.00,,---,0.00,VWS V14.01,2013-06-02 12:30:00,
2013-06-02 08:31:00,72.3,67.5,30.06,SW,236,5.0,8.0,85,0.00,,---,0.00,VWS V14.01,2013-06-02 12:31:00,
2013-06-02 08:32:00,72.3,67.9,30.06,WSW,242,2.0,6.0,86,0.00,,---,0.00,VWS V14.01,2013-06-02 12:32:00,
2013-06-02 08:33:00,72.4,68.0,30.06,West,277,0.0,4.0,86,0.00,,---,0.00,VWS V14.01,2013-06-02 12:33:00,
2013-06-02 08:34:00,72.5,68.1,30.06,SSW,196,2.0,3.0,86,0.00,,---,0.00,VWS V14.01,2013-06-02 12:34:00,
2013-06-02 08:35:00,72.6,68.2,30.06,West,261,5.0,5.0,86,0.00,,---,0.00,VWS V14.01,2013-06-02 12:35:00,
2013-06-02 08:36:00,72.6,67.8,30.06,SW,227,4.0,5.0,85,0.00,,---,0.00,VWS V14.01,2013-06-02 12:36:00,
2013-06-02 08:37:00,72.7,67.9,30.06,SSW,213,3.0,5.0,85,0.00,,---,0.00,VWS V14.01,2013-06-02 12:37:00,
2013-06-02 08:38:00,72.7,67.9,30.05,SW,236,1.0,3.0,85,0.00,,---,0.00,VWS V14.01,2013-06-02 12:38:00,
2013-06-02 08:39:00,72.8,68.0,30.05,SSE,164,1.0,1.0,85,0.00,,---,0.00,VWS V14.01,2013-06-02 12:39:00,
2013-06-02 08:40:00,72.9,68.1,30.05,SE,125,1.0,2.0,85,0.00,,---,0.00,VWS V14.01,2013-06-02 12:40:00,
2013-06-02 08:41:00,72.9,68.1,30.05,SW,221,1.0,3.0,85,0.00,,---,0.00,VWS V14.01,2013-06-02 12:41:00,
2013-06-02 08:42:00,73.1,68.3,30.05,SSW,211,3.0,6.0,85,0.00,,---,0.00,VWS V14.01,2013-06-02 12:42:00,
2013-06-02 08:43:00,73.1,68.0,30.05,West,271,4.0,4.0,84,0.00,,---,0.00,VWS V14.01,2013-06-02 12:43:00,
2013-06-02 08:44:00,73.2,68.4,30.05,SW,236,3.0,4.0,85,0.00,,---,0.00,VWS V14.01,2013-06-02 12:44:00,
2013-06-02 08:45:00,73.3,68.5,30.05,SW,230,7.0,7.0,85,0.00,,---,0.00,VWS V14.01,2013-06-02 12:45:00,
2013-06-02 08:46:00,73.3,68.2,30.05,SW,219,8.0,8.0,84,0.00,,---,0.00,VWS V14.01,2013-06-02 12:46:00,
2013-06-02 08:47:00,73.3,68.2,30.05,NW,317,3.0,8.0,84,0.00,,---,0.00,VWS V14.01,2013-06-02 12:47:00,
2013-06-02 08:48:00,73.3,68.2,30.05,SW,236,1.0,4.0,84,0.00,,---,0.00,VWS V14.01,2013-06-02 12:48:00,
2013-06-02 08:49:00,73.4,67.9,30.05,WSW,244,3.0,6.0,83,0.00,,---,0.00,VWS V14.01,2013-06-02 12:49:00,
2013-06-02 08:50:00,73.4,67.9,30.05,ESE,123,3.0,6.0,83,0.00,,---,0.00,VWS V14.01,2013-06-02 12:50:00,
2013-06-02 08:51:00,73.5,68.4,30.05,SSW,208,5.0,6.0,84,0.00,,---,0.00,VWS V14.01,2013-06-02 12:51:00,
2013-06-02 08:52:00,73.5,68.0,30.05,WSW,252,5.0,9.0,83,0.00,,---,0.00,VWS V14.01,2013-06-02 12:52:00,
2013-06-02 08:53:00,73.5,68.0,30.05,WNW,288,2.0,5.0,83,0.00,,---,0.00,VWS V14.01,2013-06-02 12:53:00,
2013-06-02 08:54:00,73.6,68.1,30.05,West,280,3.0,7.0,83,0.00,,---,0.00,VWS V14.01,2013-06-02 12:54:00,
2013-06-02 08:55:00,73.6,68.1,30.05,West,269,7.0,7.0,83,0.00,,---,0.00,VWS V14.01,2013-06-02 12:55:00,
2013-06-02 08:56:00,73.6,68.1,30.05,West,281,5.0,7.0,83,0.00,,---,0.00,VWS V14.01,2013-06-02 12:56:00,
2013-06-02 08:57:00,73.7,68.2,30.05,West,277,5.0,5.0,83,0.00,,---,0.00,VWS V14.01,2013-06-02 12:57:00,
2013-06-02 08:58:00,73.7,67.9,30.05,SSW,209,3.0,9.0,82,0.00,,---,0.00,VWS V14.01,2013-06-02 12:58:00,
2013-06-02 08:59:00,73.8,68.0,30.05,WSW,245,1.0,5.0,82,0.00,,---,0.00,VWS V14.01,2013-06-02 12:59:00,
2013-06-02 09:00:00,73.9,68.4,30.05,SSW,213,2.0,5.0,83,0.00,,---,0.00,VWS V14.01,2013-06-02 13:00:00,
2013-06-02 09:01:00,73.9,68.1,30.05,WSW,242,5.0,5.0,82,0.00,,---,0.00,VWS V14.01,2013-06-02 13:01:00,
2013-06-02 09:02:00,74.0,68.2,30.05,WSW,242,3.0,5.0,82,0.00,,---,0.00,VWS V14.01,2013-06-02 13:02:00,
2013-06-02 09:03:00,74.1,68.3,30.05,WSW,245,4.0,12.0,82,0.00,,---,0.00,VWS V14.01,2013-06-02 13:03:00,
2013-06-02 09:04:00,74.1,68.3,30.05,South,182,4.0,7.0,82,0.00,,---,0.00,VWS V14.01,2013-06-02 13:04:00,
2013-06-02 09:05:00,74.2,68.4,30.05,WSW,256,2.0,7.0,82,0.00,,---,0.00,VWS V14.01,2013-06-02 13:05:00,
2013-06-02 09:06:00,74.3,68.5,30.05,SSW,192,4.0,6.0,82,0.00,,---,0.00,VWS V14.01,2013-06-02 13:06:00,
2013-06-02 09:07:00,74.3,68.1,30.05,SSW,206,1.0,8.0,81,0.00,,---,0.00,VWS V14.01,2013-06-02 13:07:00,
2013-06-02 09:08:00,74.3,68.1,30.05,SW,227,4.0,8.0,81,0.00,,---,0.00,VWS V14.01,2013-06-02 13:08:00,
2013-06-02 09:09:00,74.4,68.2,30.05,WNW,286,6.0,7.0,81,0.00,,---,0.00,VWS V14.01,2013-06-02 13:09:00,
2013-06-02 09:10:00,74.4,68.2,30.05,WNW,283,6.0,7.0,81,0.00,,---,0.00,VWS V14.01,2013-06-02 13:10:00,
2013-06-02 09:11:00,74.4,68.2,30.05,SSW,198,7.0,9.0,81,0.00,,---,0.00,VWS V14.01,2013-06-02 13:11:00,
2013-06-02 09:12:00,74.4,68.2,30.05,WSW,240,10.0,10.0,81,0.00,,---,0.00,VWS V14.01,2013-06-02 13:12:00,
2013-06-02 09:13:00,74.3,68.1,30.05,SSW,213,5.0,10.0,81,0.00,,---,0.00,VWS V14.01,2013-06-02 13:13:00,
2013-06-02 09:14:00,74.2,68.0,30.05,NW,306,4.0,5.0,81,0.00,,---,0.00,VWS V14.01,2013-06-02 13:14:00,
2013-06-02 09:15:00,74.2,68.0,30.05,NW,304,3.0,7.0,81,0.00,,---,0.00,VWS V14.01,2013-06-02 13:15:00,
2013-06-02 09:16:00,74.3,68.5,30.05,SSW,211,7.0,7.0,82,0.00,,---,0.00,VWS V14.01,2013-06-02 13:16:00,
2013-06-02 09:17:00,74.3,68.5,30.05,WSW,253,8.0,8.0,82,0.00,,---,0.00,VWS V14.01,2013-06-02 13:17:00,
2013-06-02 09:18:00,74.3,68.5,30.05,West,267,8.0,8.0,82,0.00,,---,0.00,VWS V14.01,2013-06-02 13:18:00,
2013-06-02 09:19:00,74.3,68.1,30.05,West,281,7.0,7.0,81,0.00,,---,0.00,VWS V14.01,2013-06-02 13:19:00,
2013-06-02 09:20:00,74.3,68.1,30.05,SSW,194,6.0,7.0,81,0.00,,---,0.00,VWS V14.01,2013-06-02 13:20:00,
2013-06-02 09:21:00,74.4,68.2,30.05,West,265,3.0,6.0,81,0.00,,---,0.00,VWS V14.01,2013-06-02 13:21:00,
2013-06-02 09:22:00,74.4,68.2,30.05,SW,232,3.0,7.0,81,0.00,,---,0.00,VWS V14.01,2013-06-02 13:22:00,
2013-06-02 09:23:00,74.5,68.3,30.05,SSE,154,5.0,5.0,81,0.00,,---,0.00,VWS V14.01,2013-06-02 13:23:00,
2013-06-02 09:24:00,74.7,68.5,30.05,WSW,240,9.0,10.0,81,0.00,,---,0.00,VWS V14.01,2013-06-02 13:24:00,
2013-06-02 09:25:00,74.8,68.6,30.05,SW,232,7.0,10.0,81,0.00,,---,0.00,VWS V14.01,2013-06-02 13:25:00,
2013-06-02 09:26:00,74.8,68.2,30.05,West,279,5.0,9.0,80,0.00,,---,0.00,VWS V14.01,2013-06-02 13:26:00,
2013-06-02 09:27:00,74.8,68.2,30.05,SSW,211,4.0,6.0,80,0.00,,---,0.00,VWS V14.01,2013-06-02 13:27:00,
2013-06-02 09:28:00,74.8,68.2,30.05,WSW,245,3.0,6.0,80,0.00,,---,0.00,VWS V14.01,2013-06-02 13:28:00,
2013-06-02 09:29:00,74.8,68.2,30.04,SW,236,3.0,7.0,80,0.00,,---,0.00,VWS V14.01,2013-06-02 13:29:00,
2013-06-02 09:30:00,74.9,68.3,30.04,South,172,4.0,7.0,80,0.00,,---,0.00,VWS V14.01,2013-06-02 13:30:00,
2013-06-02 09:31:00,74.9,68.3,30.04,SW,225,7.0,8.0,80,0.00,,---,0.00,VWS V14.01,2013-06-02 13:31:00,
2013-06-02 09:32:00,75.0,68.4,30.05,South,190,8.0,8.0,80,0.00,,---,0.00,VWS V14.01,2013-06-02 13:32:00,
2013-06-02 09:33:00,75.1,68.5,30.04,WSW,245,2.0,8.0,80,0.00,,---,0.00,VWS V14.01,2013-06-02 13:33:00,
2013-06-02 09:34:00,75.2,68.2,30.04,South,190,4.0,8.0,79,0.00,,---,0.00,VWS V14.01,2013-06-02 13:34:00,
2013-06-02 09:35:00,75.2,68.2,30.04,West,279,5.0,8.0,79,0.00,,---,0.00,VWS V14.01,2013-06-02 13:35:00,
2013-06-02 09:36:00,75.3,68.3,30.04,WSW,254,8.0,8.0,79,0.00,,---,0.00,VWS V14.01,2013-06-02 13:36:00,
2013-06-02 09:37:00,75.3,68.0,30.05,WSW,238,6.0,8.0,78,0.00,,---,0.00,VWS V14.01,2013-06-02 13:37:00,
2013-06-02 09:38:00,75.3,68.0,30.04,SSW,195,7.0,7.0,78,0.00,,---,0.00,VWS V14.01,2013-06-02 13:38:00,
2013-06-02 09:39:00,75.4,67.7,30.05,SW,218,5.0,10.0,77,0.00,,---,0.00,VWS V14.01,2013-06-02 13:39:00,
2013-06-02 09:40:00,75.3,67.6,30.05,West,269,4.0,10.0,77,0.00,,---,0.00,VWS V14.01,2013-06-02 13:40:00,
2013-06-02 09:41:00,75.4,67.7,30.05,WSW,246,10.0,10.0,77,0.00,,---,0.00,VWS V14.01,2013-06-02 13:41:00,
2013-06-02 09:42:00,75.3,67.6,30.05,WSW,250,2.0,10.0,77,0.00,,---,0.00,VWS V14.01,2013-06-02 13:42:00,
2013-06-02 09:43:00,75.3,67.6,30.04,West,269,3.0,9.0,77,0.00,,---,0.00,VWS V14.01,2013-06-02 13:43:00,
2013-06-02 09:44:00,75.3,67.6,30.04,WSW,245,5.0,8.0,77,0.00,,---,0.00,VWS V14.01,2013-06-02 13:44:00,
2013-06-02 09:45:00,75.3,67.6,30.04,SW,236,5.0,8.0,77,0.00,,---,0.00,VWS V14.01,2013-06-02 13:45:00,
2013-06-02 09:46:00,75.4,68.1,30.04,SSE,165,6.0,6.0,78,0.00,,---,0.00,VWS V14.01,2013-06-02 13:46:00,
2013-06-02 09:47:00,75.5,68.2,30.04,SSE,159,3.0,8.0,78,0.00,,---,0.00,VWS V14.01,2013-06-02 13:47:00,
2013-06-02 09:48:00,75.5,68.2,30.05,West,275,3.0,8.0,78,0.00,,---,0.00,VWS V14.01,2013-06-02 13:48:00,
2013-06-02 09:49:00,75.6,67.9,30.04,NW,311,4.0,5.0,77,0.00,,---,0.00,VWS V14.01,2013-06-02 13:49:00,
2013-06-02 09:50:00,75.6,67.9,30.04,SW,224,1.0,7.0,77,0.00,,---,0.00,VWS V14.01,2013-06-02 13:50:00,
2013-06-02 09:51:00,75.7,68.0,30.04,West,269,3.0,5.0,77,0.00,,---,0.00,VWS V14.01,2013-06-02 13:51:00,
2013-06-02 09:52:00,75.7,68.0,30.04,WSW,249,6.0,7.0,77,0.00,,---,0.00,VWS V14.01,2013-06-02 13:52:00,
2013-06-02 09:53:00,75.7,67.6,30.04,West,275,3.0,10.0,76,0.00,,---,0.00,VWS V14.01,2013-06-02 13:53:00,
2013-06-02 09:54:00,75.9,68.2,30.04,WSW,248,6.0,6.0,77,0.00,,---,0.00,VWS V14.01,2013-06-02 13:54:00,
2013-06-02 09:55:00,76.0,68.3,30.04,West,276,9.0,9.0,77,0.00,,---,0.00,VWS V14.01,2013-06-02 13:55:00,
2013-06-02 09:56:00,76.1,67.6,30.04,West,261,2.0,9.0,75,0.00,,---,0.00,VWS V14.01,2013-06-02 13:56:00,
2013-06-02 09:57:00,76.2,67.7,30.04,SSW,213,4.0,6.0,75,0.00,,---,0.00,VWS V14.01,2013-06-02 13:57:00,
2013-06-02 09:58:00,76.3,67.8,30.04,SE,137,3.0,9.0,75,0.00,,---,0.00,VWS V14.01,2013-06-02 13:58:00,
2013-06-02 09:59:00,76.4,67.9,30.04,NE,53,4.0,4.0,75,0.00,,---,0.00,VWS V14.01,2013-06-02 13:59:00,
2013-06-02 10:00:00,76.5,68.0,30.04,SW,223,6.0,7.0,75,0.00,,---,0.00,VWS V14.01,2013-06-02 14:00:00,
2013-06-02 10:01:00,76.5,68.0,30.04,West,278,4.0,8.0,75,0.00,,---,0.00,VWS V14.01,2013-06-02 14:01:00,
2013-06-02 10:02:00,76.5,68.0,30.04,West,273,5.0,9.0,75,0.00,,---,0.00,VWS V14.01,2013-06-02 14:02:00,
2013-06-02 10:03:00,76.4,67.9,30.04,West,267,8.0,8.0,75,0.00,,---,0.00,VWS V14.01,2013-06-02 14:03:00,
2013-06-02 10:04:00,76.3,67.4,30.04,SW,232,6.0,7.0,74,0.00,,---,0.00,VWS V14.01,2013-06-02 14:04:00,
2013-06-02 10:05:00,76.2,67.7,30.04,WNW,295,3.0,7.0,75,0.00,,---,0.00,VWS V14.01,2013-06-02 14:05:00,
2013-06-02 10:06:00,76.2,67.7,30.04,NW,315,4.0,9.0,75,0.00,,---,0.00,VWS V14.01,2013-06-02 14:06:00,
2013-06-02 10:07:00,76.1,67.6,30.04,West,270,7.0,11.0,75,0.00,,---,0.00,VWS V14.01,2013-06-02 14:07:00,
2013-06-02 10:08:00,76.1,67.6,30.04,West,270,7.0,10.0,75,0.00,,---,0.00,VWS V14.01,2013-06-02 14:08:00,
2013-06-02 10:09:00,76.1,67.6,30.04,WNW,292,6.0,9.0,75,0.00,,---,0.00,VWS V14.01,2013-06-02 14:09:00,
2013-06-02 10:10:00,76.2,68.1,30.04,West,270,5.0,7.0,76,0.00,,---,0.00,VWS V14.01,2013-06-02 14:10:00,
2013-06-02 10:11:00,76.2,67.7,30.04,West,270,4.0,8.0,75,0.00,,---,0.00,VWS V14.01,2013-06-02 14:11:00,
2013-06-02 10:12:00,76.2,67.7,30.04,WSW,248,6.0,9.0,75,0.00,,---,0.00,VWS V14.01,2013-06-02 14:12:00,
2013-06-02 10:13:00,76.3,68.2,30.04,WNW,292,3.0,5.0,76,0.00,,---,0.00,VWS V14.01,2013-06-02 14:13:00,
2013-06-02 10:14:00,76.4,67.9,30.04,West,270,7.0,10.0,75,0.00,,---,0.00,VWS V14.01,2013-06-02 14:14:00,
2013-06-02 10:15:00,76.5,67.6,30.04,West,270,4.0,8.0,74,0.00,,---,0.00,VWS V14.01,2013-06-02 14:15:00,
2013-06-02 10:16:00,76.5,67.6,30.04,West,270,7.0,10.0,74,0.00,,---,0.00,VWS V14.01,2013-06-02 14:16:00,
2013-06-02 10:17:00,76.5,67.2,30.04,West,270,6.0,10.0,73,0.00,,---,0.00,VWS V14.01,2013-06-02 14:17:00,
2013-06-02 10:18:00,76.5,67.6,30.04,WSW,248,6.0,11.0,74,0.00,,---,0.00,VWS V14.01,2013-06-02 14:18:00,
2013-06-02 10:19:00,76.6,67.3,30.04,WNW,292,5.0,8.0,73,0.00,,---,0.00,VWS V14.01,2013-06-02 14:19:00,
2013-06-02 10:20:00,76.5,67.2,30.04,West,270,6.0,9.0,73,0.00,,---,0.00,VWS V14.01,2013-06-02 14:20:00,
2013-06-02 10:21:00,76.6,67.3,30.04,West,270,4.0,7.0,73,0.00,,---,0.00,VWS V14.01,2013-06-02 14:21:00,
2013-06-02 10:22:00,76.6,66.9,30.04,SW,225,5.0,9.0,72,0.00,,---,0.00,VWS V14.01,2013-06-02 14:22:00,
2013-06-02 10:23:00,76.7,67.4,30.04,SSW,202,6.0,13.0,73,0.00,,---,0.00,VWS V14.01,2013-06-02 14:23:00,
2013-06-02 10:24:00,76.8,67.5,30.04,SSW,202,4.0,7.0,73,0.00,,---,0.00,VWS V14.01,2013-06-02 14:24:00,
2013-06-02 10:25:00,76.9,67.6,30.04,West,270,5.0,8.0,73,0.00,,---,0.00,VWS V14.01,2013-06-02 14:25:00,
2013-06-02 10:26:00,76.9,67.6,30.04,WNW,292,7.0,12.0,73,0.00,,---,0.00,VWS V14.01,2013-06-02 14:26:00,
2013-06-02 10:27:00,77.0,67.7,30.04,SE,135,5.0,9.0,73,0.00,,---,0.00,VWS V14.01,2013-06-02 14:27:00,
2013-06-02 10:28:00,77.2,67.9,30.04,SE,135,2.0,6.0,73,0.00,,---,0.00,VWS V14.01,2013-06-02 14:28:00,
2013-06-02 10:29:00,77.1,67.4,30.04,West,270,7.0,10.0,72,0.00,,---,0.00,VWS V14.01,2013-06-02 14:29:00,
2013-06-02 10:30:00,77.2,67.9,30.04,SW,225,4.0,7.0,73,0.00,,---,0.00,VWS V14.01,2013-06-02 14:30:00,
2013-06-02 10:31:00,77.2,67.9,30.04,WSW,248,5.0,7.0,73,0.00,,---,0.00,VWS V14.01,2013-06-02 14:31:00,
2013-06-02 10:32:00,77.2,67.9,30.04,SSW,202,6.0,8.0,73,0.00,,---,0.00,VWS V14.01,2013-06-02 14:32:00,
2013-06-02 10:33:00,77.2,67.5,30.04,WNW,292,6.0,9.0,72,0.00,,---,0.00,VWS V14.01,2013-06-02 14:33:00,
2013-06-02 10:34:00,77.2,67.5,30.04,WSW,248,5.0,8.0,72,0.00,,---,0.00,VWS V14.01,2013-06-02 14:34:00,
2013-06-02 10:35:00,77.2,67.5,30.04,West,270,6.0,9.0,72,0.00,,---,0.00,VWS V14.01,2013-06-02 14:35:00,
2013-06-02 10:36:00,77.1,67.4,30.04,WNW,292,7.0,10.0,72,0.00,,---,0.00,VWS V14.01,2013-06-02 14:36:00,
2013-06-02 10:37:00,77.0,67.3,30.04,West,270,7.0,9.0,72,0.00,,---,0.00,VWS V14.01,2013-06-02 14:37:00,
2013-06-02 10:38:00,76.9,67.2,30.04,West,270,4.0,7.0,72,0.00,,---,0.00,VWS V14.01,2013-06-02 14:38:00,
2013-06-02 10:39:00,76.9,67.6,30.04,West,270,5.0,8.0,73,0.00,,---,0.00,VWS V14.01,2013-06-02 14:39:00,
2013-06-02 10:40:00,76.8,67.5,30.04,WNW,292,6.0,8.0,73,0.00,,---,0.00,VWS V14.01,2013-06-02 14:40:00,
2013-06-02 10:41:00,76.8,67.5,30.04,WSW,248,4.0,6.0,73,0.00,,---,0.00,VWS V14.01,2013-06-02 14:41:00,
2013-06-02 10:42:00,76.8,67.9,30.04,SSE,158,4.0,7.0,74,0.00,,---,0.00,VWS V14.01,2013-06-02 14:42:00,
2013-06-02 10:43:00,76.9,68.0,30.04,WNW,292,3.0,5.0,74,0.00,,---,0.00,VWS V14.01,2013-06-02 14:43:00,
2013-06-02 10:44:00,77.0,68.1,30.04,West,270,4.0,6.0,74,0.00,,---,0.00,VWS V14.01,2013-06-02 14:44:00,
2013-06-02 10:45:00,77.2,68.3,30.04,West,270,3.0,5.0,74,0.00,,---,0.00,VWS V14.01,2013-06-02 14:45:00,
2013-06-02 10:46:00,77.3,68.0,30.04,West,270,3.0,4.0,73,0.00,,---,0.00,VWS V14.01,2013-06-02 14:46:00,
2013-06-02 10:47:00,77.5,68.2,30.04,West,270,3.0,7.0,73,0.00,,---,0.00,VWS V14.01,2013-06-02 14:47:00,
2013-06-02 10:48:00,77.6,68.3,30.04,WSW,248,3.0,7.0,73,0.00,,---,0.00,VWS V14.01,2013-06-02 14:48:00,
2013-06-02 10:49:00,77.7,68.4,30.04,SW,225,4.0,7.0,73,0.00,,---,0.00,VWS V14.01,2013-06-02 14:49:00,
2013-06-02 10:50:00,77.8,68.1,30.04,West,270,5.0,10.0,72,0.00,,---,0.00,VWS V14.01,2013-06-02 14:50:00,
2013-06-02 10:51:00,77.8,68.1,30.04,West,270,4.0,6.0,72,0.00,,---,0.00,VWS V14.01,2013-06-02 14:51:00,
2013-06-02 10:52:00,77.7,68.0,30.04,WNW,292,6.0,9.0,72,0.00,,---,0.00,VWS V14.01,2013-06-02 14:52:00,
2013-06-02 10:53:00,77.7,68.0,30.04,WNW,292,5.0,8.0,72,0.00,,---,0.00,VWS V14.01,2013-06-02 14:53:00,
2013-06-02 10:54:00,77.6,67.9,30.04,WNW,292,4.0,7.0,72,0.00,,---,0.00,VWS V14.01,2013-06-02 14:54:00,
2013-06-02 10:55:00,77.7,68.4,30.04,WNW,292,5.0,6.0,73,0.00,,---,0.00,VWS V14.01,2013-06-02 14:55:00,
2013-06-02 10:56:00,77.8,68.1,30.04,West,270,4.0,7.0,72,0.00,,---,0.00,VWS V14.01,2013-06-02 14:56:00,
2013-06-02 10:57:00,77.9,68.2,30.04,West,270,5.0,7.0,72,0.00,,---,0.00,VWS V14.01,2013-06-02 14:57:00,
2013-06-02 10:58:00,78.1,68.3,30.04,West,270,3.0,6.0,72,0.00,,---,0.00,VWS V14.01,2013-06-02 14:58:00,
2013-06-02 10:59:00,78.1,67.9,30.04,West,270,5.0,7.0,71,0.00,,---,0.00,VWS V14.01,2013-06-02 14:59:00,
2013-06-02 11:00:00,78.1,67.5,30.04,West,270,4.0,7.0,70,0.00,,---,0.00,VWS V14.01,2013-06-02 15:00:00,
2013-06-02 11:01:00,78.0,67.8,30.04,West,270,4.0,6.0,71,0.00,,---,0.00,VWS V14.01,2013-06-02 15:01:00,
2013-06-02 11:02:00,77.9,67.8,30.04,West,270,3.0,5.0,71,0.00,,---,0.00,VWS V14.01,2013-06-02 15:02:00,
2013-06-02 11:03:00,77.9,68.2,30.04,SSW,202,3.0,4.0,72,0.00,,---,0.00,VWS V14.01,2013-06-02 15:03:00,
2013-06-02 11:04:00,77.9,68.2,30.04,SW,225,4.0,6.0,72,0.00,,---,0.00,VWS V14.01,2013-06-02 15:04:00,
2013-06-02 11:05:00,77.8,68.1,30.04,West,270,4.0,5.0,72,0.00,,---,0.00,VWS V14.01,2013-06-02 15:05:00,
2013-06-02 11:06:00,77.8,68.1,30.04,WSW,248,5.0,7.0,72,0.00,,---,0.00,VWS V14.01,2013-06-02 15:06:00,
2013-06-02 11:07:00,77.8,68.1,30.04,WNW,292,4.0,7.0,72,0.00,,---,0.00,VWS V14.01,2013-06-02 15:07:00,
2013-06-02 11:08:00,77.8,68.1,30.04,West,270,5.0,7.0,72,0.00,,---,0.00,VWS V14.01,2013-06-02 15:08:00,
2013-06-02 11:09:00,77.7,68.0,30.04,WNW,292,6.0,8.0,72,0.00,,---,0.00,VWS V14.01,2013-06-02 15:09:00,
2013-06-02 11:10:00,77.7,68.0,30.04,WNW,292,6.0,8.0,72,0.00,,---,0.00,VWS V14.01,2013-06-02 15:10:00,
2013-06-02 11:11:00,77.6,67.9,30.04,WNW,292,8.0,11.0,72,0.00,,---,0.00,VWS V14.01,2013-06-02 15:11:00,
2013-06-02 11:12:00,77.6,67.9,30.04,WSW,248,4.0,8.0,72,0.00,,---,0.00,VWS V14.01,2013-06-02 15:12:00,
2013-06-02 11:13:00,77.7,68.0,30.04,WSW,248,4.0,7.0,72,0.00,,---,0.00,VWS V14.01,2013-06-02 15:13:00,
2013-06-02 11:14:00,77.9,67.3,30.04,WSW,248,7.0,10.0,70,0.00,,---,0.00,VWS V14.01,2013-06-02 15:14:00,
2013-06-02 11:15:00,77.9,67.3,30.04,WSW,248,6.0,11.0,70,0.00,,---,0.00,VWS V14.01,2013-06-02 15:15:00,
2013-06-02 11:16:00,78.0,67.4,30.03,SSW,202,5.0,10.0,70,0.00,,---,0.00,VWS V14.01,2013-06-02 15:16:00,
2013-06-02 11:17:00,78.1,67.5,30.03,SW,225,3.0,5.0,70,0.00,,---,0.00,VWS V14.01,2013-06-02 15:17:00,
2013-06-02 11:18:00,78.3,68.1,30.03,SSW,202,2.0,2.0,71,0.00,,---,0.00,VWS V14.01,2013-06-02 15:18:00,
2013-06-02 11:19:00,78.5,67.9,30.03,WSW,248,4.0,9.0,70,0.00,,---,0.00,VWS V14.01,2013-06-02 15:19:00,
2013-06-02 11:20:00,78.6,68.0,30.04,West,270,5.0,8.0,70,0.00,,---,0.00,VWS V14.01,2013-06-02 15:20:00,
2013-06-02 11:21:00,78.7,68.1,30.04,WSW,248,5.0,10.0,70,0.00,,---,0.00,VWS V14.01,2013-06-02 15:21:00,
2013-06-02 11:22:00,78.7,67.7,30.04,West,270,3.0,9.0,69,0.00,,---,0.00,VWS V14.01,2013-06-02 15:22:00,
2013-06-02 11:23:00,78.7,67.7,30.03,West,270,4.0,8.0,69,0.00,,---,0.00,VWS V14.01,2013-06-02 15:23:00,
2013-06-02 11:24:00,78.7,68.1,30.04,WSW,248,4.0,7.0,70,0.00,,---,0.00,VWS V14.01,2013-06-02 15:24:00,
2013-06-02 11:25:00,78.7,68.1,30.03,SSW,202,3.0,5.0,70,0.00,,---,0.00,VWS V14.01,2013-06-02 15:25:00,
2013-06-02 11:26:00,78.8,68.2,30.03,SW,225,4.0,6.0,70,0.00,,---,0.00,VWS V14.01,2013-06-02 15:26:00,
2013-06-02 11:27:00,78.8,67.4,30.03,SSW,202,7.0,11.0,68,0.00,,---,0.00,VWS V14.01,2013-06-02 15:27:00,
2013-06-02 11:28:00,78.9,67.4,30.03,West,270,5.0,9.0,68,0.00,,---,0.00,VWS V14.01,2013-06-02 15:28:00,
2013-06-02 11:29:00,79.0,67.1,30.03,SW,225,3.0,6.0,67,0.00,,---,0.00,VWS V14.01,2013-06-02 15:29:00,
2013-06-02 11:30:00,79.2,67.7,30.03,South,180,3.0,6.0,68,0.00,,---,0.00,VWS V14.01,2013-06-02 15:30:00,
2013-06-02 11:31:00,79.4,67.9,30.03,West,270,3.0,4.0,68,0.00,,---,0.00,VWS V14.01,2013-06-02 15:31:00,
2013-06-02 11:32:00,79.6,67.2,30.03,WNW,292,4.0,8.0,66,0.00,,---,0.00,VWS V14.01,2013-06-02 15:32:00,
2013-06-02 11:33:00,79.7,67.3,30.03,South,180,5.0,8.0,66,0.00,,---,0.00,VWS V14.01,2013-06-02 15:33:00,
2013-06-02 11:34:00,79.8,67.4,30.03,SSE,158,4.0,5.0,66,0.00,,---,0.00,VWS V14.01,2013-06-02 15:34:00,
2013-06-02 11:35:00,80.0,68.1,30.03,WSW,248,4.0,7.0,67,0.00,,---,0.00,VWS V14.01,2013-06-02 15:35:00,
2013-06-02 11:36:00,80.1,67.3,30.03,WSW,248,7.0,12.0,65,0.00,,---,0.00,VWS V14.01,2013-06-02 15:36:00,
2013-06-02 11:37:00,80.0,67.2,30.03,SW,225,8.0,10.0,65,0.00,,---,0.00,VWS V14.01,2013-06-02 15:37:00,
2013-06-02 11:38:00,79.9,67.5,30.03,West,270,4.0,7.0,66,0.00,,---,0.00,VWS V14.01,2013-06-02 15:38:00,
2013-06-02 11:39:00,79.8,67.4,30.03,WSW,248,7.0,11.0,66,0.00,,---,0.00,VWS V14.01,2013-06-02 15:39:00,
2013-06-02 11:40:00,79.7,67.3,30.03,SW,225,7.0,11.0,66,0.00,,---,0.00,VWS V14.01,2013-06-02 15:40:00,
2013-06-02 11:41:00,79.6,67.2,30.03,SW,225,5.0,10.0,66,0.00,,---,0.00,VWS V14.01,2013-06-02 15:41:00,
2013-06-02 11:42:00,79.5,67.2,30.03,SW,225,8.0,10.0,66,0.00,,---,0.00,VWS V14.01,2013-06-02 15:42:00,
2013-06-02 11:43:00,79.4,67.5,30.03,West,270,4.0,7.0,67,0.00,,---,0.00,VWS V14.01,2013-06-02 15:43:00,
2013-06-02 11:44:00,79.4,67.5,30.03,West,270,4.0,11.0,67,0.00,,---,0.00,VWS V14.01,2013-06-02 15:44:00,
2013-06-02 11:45:00,79.5,67.6,30.03,NNE,22,4.0,9.0,67,0.00,,---,0.00,VWS V14.01,2013-06-02 15:45:00,
2013-06-02 11:46:00,79.6,67.7,30.03,East,90,4.0,7.0,67,0.00,,---,0.00,VWS V14.01,2013-06-02 15:46:00,
2013-06-02 11:47:00,79.7,67.8,30.03,WSW,248,6.0,9.0,67,0.00,,---,0.00,VWS V14.01,2013-06-02 15:47:00,
2013-06-02 11:48:00,79.9,68.0,30.03,ESE,112,2.0,4.0,67,0.00,,---,0.00,VWS V14.01,2013-06-02 15:48:00,
2013-06-02 11:49:00,80.1,67.7,30.03,SSW,202,4.0,10.0,66,0.00,,---,0.00,VWS V14.01,2013-06-02 15:49:00,
2013-06-02 11:50:00,80.1,67.3,30.03,West,270,7.0,10.0,65,0.00,,---,0.00,VWS V14.01,2013-06-02 15:50:00,
2013-06-02 11:51:00,80.2,67.4,30.03,SE,135,4.0,7.0,65,0.00,,---,0.00,VWS V14.01,2013-06-02 15:51:00,
2013-06-02 11:52:00,80.2,67.4,30.03,West,270,3.0,5.0,65,0.00,,---,0.00,VWS V14.01,2013-06-02 15:52:00,
2013-06-02 11:53:00,80.3,67.9,30.03,SW,225,4.0,7.0,66,0.00,,---,0.00,VWS V14.01,2013-06-02 15:53:00,
2013-06-02 11:54:00,80.3,67.5,30.03,West,270,4.0,7.0,65,0.00,,---,0.00,VWS V14.01,2013-06-02 15:54:00,
2013-06-02 11:55:00,80.3,67.9,30.03,WSW,248,4.0,7.0,66,0.00,,---,0.00,VWS V14.01,2013-06-02 15:55:00,
2013-06-02 11:56:00,80.3,67.9,30.03,ESE,112,3.0,6.0,66,0.00,,---,0.00,VWS V14.01,2013-06-02 15:56:00,
2013-06-02 11:57:00,80.5,68.5,30.03,East,90,2.0,3.0,67,0.00,,---,0.00,VWS V14.01,2013-06-02 15:57:00,
2013-06-02 11:58:00,80.7,68.7,30.03,WSW,248,4.0,11.0,67,0.00,,---,0.00,VWS V14.01,2013-06-02 15:58:00,
2013-06-02 11:59:00,80.8,67.9,30.03,WSW,248,6.0,9.0,65,0.00,,---,0.00,VWS V14.01,2013-06-02 15:59:00,
2013-06-02 12:00:00,80.8,67.9,30.03,West,270,3.0,6.0,65,0.00,,---,0.00,VWS V14.01,2013-06-02 16:00:00,
2013-06-02 12:01:00,80.9,67.6,30.03,West,270,7.0,11.0,64,0.00,,---,0.00,VWS V14.01,2013-06-02 16:01:00,
2013-06-02 12:02:00,80.8,67.5,30.03,WSW,248,6.0,10.0,64,0.00,,---,0.00,VWS V14.01,2013-06-02 16:02:00,
2013-06-02 12:03:00,80.7,67.4,30.03,WNW,292,5.0,7.0,64,0.00,,---,0.00,VWS V14.01,2013-06-02 16:03:00,
2013-06-02 12:04:00,80.7,67.4,30.03,SW,225,4.0,6.0,64,0.00,,---,0.00,VWS V14.01,2013-06-02 16:04:00,
2013-06-02 12:05:00,80.6,67.3,30.03,WSW,248,7.0,9.0,64,0.00,,---,0.00,VWS V14.01,2013-06-02 16:05:00,
2013-06-02 12:06:00,80.5,67.7,30.03,SW,225,6.0,9.0,65,0.00,,---,0.00,VWS V14.01,2013-06-02 16:06:00,
2013-06-02 12:07:00,80.5,68.1,30.03,WSW,248,4.0,6.0,66,0.00,,---,0.00,VWS V14.01,2013-06-02 16:07:00,
2013-06-02 12:08:00,80.6,67.8,30.03,SW,225,5.0,8.0,65,0.00,,---,0.00,VWS V14.01,2013-06-02 16:08:00,
2013-06-02 12:09:00,80.7,67.8,30.03,SSW,202,2.0,6.0,65,0.00,,---,0.00,VWS V14.01,2013-06-02 16:09:00,
2013-06-02 12:10:00,80.8,67.5,30.03,West,270,5.0,8.0,64,0.00,,---,0.00,VWS V14.01,2013-06-02 16:10:00,
2013-06-02 12:11:00,80.8,67.9,30.03,ESE,112,2.0,4.0,65,0.00,,---,0.00,VWS V14.01,2013-06-02 16:11:00,
2013-06-02 12:12:00,80.9,68.0,30.03,South,180,4.0,8.0,65,0.00,,---,0.00,VWS V14.01,2013-06-02 16:12:00,
2013-06-02 12:13:00,81.0,67.7,30.03,SSW,202,7.0,9.0,64,0.00,,---,0.00,VWS V14.01,2013-06-02 16:13:00,
2013-06-02 12:14:00,81.1,67.8,30.03,SW,225,5.0,9.0,64,0.00,,---,0.00,VWS V14.01,2013-06-02 16:14:00,
2013-06-02 12:15:00,81.2,67.9,30.03,West,270,3.0,4.0,64,0.00,,---,0.00,VWS V14.01,2013-06-02 16:15:00,
2013-06-02 12:16:00,81.3,67.5,30.03,West,270,3.0,6.0,63,0.00,,---,0.00,VWS V14.01,2013-06-02 16:16:00,
2013-06-02 12:17:00,81.3,67.5,30.03,SW,225,5.0,6.0,63,0.00,,---,0.00,VWS V14.01,2013-06-02 16:17:00,
2013-06-02 12:18:00,81.3,67.5,30.03,SSW,202,7.0,13.0,63,0.00,,---,0.00,VWS V14.01,2013-06-02 16:18:00,
2013-06-02 12:19:00,81.4,67.6,30.03,SSE,158,2.0,5.0,63,0.00,,---,0.00,VWS V14.01,2013-06-02 16:19:00,
2013-06-02 12:20:00,81.5,67.7,30.03,WSW,248,2.0,5.0,63,0.00,,---,0.00,VWS V14.01,2013-06-02 16:20:00,
2013-06-02 12:21:00,81.7,67.9,30.03,West,270,3.0,5.0,63,0.00,,---,0.00,VWS V14.01,2013-06-02 16:21:00,
2013-06-02 12:22:00,82.0,68.6,30.03,SW,225,3.0,7.0,64,0.00,,---,0.00,VWS V14.01,2013-06-02 16:22:00,
2013-06-02 12:23:00,82.2,67.9,30.03,WSW,248,6.0,8.0,62,0.00,,---,0.00,VWS V14.01,2013-06-02 16:23:00,
2013-06-02 12:24:00,82.2,67.9,30.03,WSW,248,7.0,9.0,62,0.00,,---,0.00,VWS V14.01,2013-06-02 16:24:00,
2013-06-02 12:25:00,82.2,67.9,30.03,ENE,68,2.0,7.0,62,0.00,,---,0.00,VWS V14.01,2013-06-02 16:25:00,
2013-06-02 12:26:00,82.3,68.5,30.03,WSW,248,3.0,4.0,63,0.00,,---,0.00,VWS V14.01,2013-06-02 16:26:00,
2013-06-02 12:27:00,82.4,68.1,30.03,SSE,158,5.0,11.0,62,0.00,,---,0.00,VWS V14.01,2013-06-02 16:27:00,
2013-06-02 12:28:00,82.4,67.6,30.03,NW,315,2.0,7.0,61,0.00,,---,0.00,VWS V14.01,2013-06-02 16:28:00,
2013-06-02 12:29:00,82.5,68.2,30.03,East,90,1.0,2.0,62,0.00,,---,0.00,VWS V14.01,2013-06-02 16:29:00,
2013-06-02 12:30:00,82.8,68.5,30.03,East,90,2.0,5.0,62,0.00,,---,0.00,VWS V14.01,2013-06-02 16:30:00,
2013-06-02 12:31:00,83.1,69.2,30.03,WSW,248,3.0,6.0,63,0.00,,---,0.00,VWS V14.01,2013-06-02 16:31:00,
2013-06-02 12:32:00,83.2,68.8,30.03,SSW,202,4.0,7.0,62,0.00,,---,0.00,VWS V14.01,2013-06-02 16:32:00,
2013-06-02 12:33:00,83.3,68.9,30.03,SW,225,6.0,9.0,62,0.00,,---,0.00,VWS V14.01,2013-06-02 16:33:00,
2013-06-02 12:34:00,83.2,67.9,30.03,WSW,248,3.0,6.0,60,0.00,,---,0.00,VWS V14.01,2013-06-02 16:34:00,
2013-06-02 12:35:00,83.2,67.9,30.03,WNW,292,2.0,4.0,60,0.00,,---,0.00,VWS V14.01,2013-06-02 16:35:00,
2013-06-02 12:36:00,83.1,67.3,30.03,SW,225,6.0,10.0,59,0.00,,---,0.00,VWS V14.01,2013-06-02 16:36:00,
2013-06-02 12:37:00,82.9,67.6,30.03,WSW,248,4.0,7.0,60,0.00,,---,0.00,VWS V14.01,2013-06-02 16:37:00,
2013-06-02 12:38:00,82.7,67.4,30.03,SSE,158,2.0,7.0,60,0.00,,---,0.00,VWS V14.01,2013-06-02 16:38:00,
2013-06-02 12:39:00,82.6,67.3,30.03,SW,225,4.0,8.0,60,0.00,,---,0.00,VWS V14.01,2013-06-02 16:39:00,
2013-06-02 12:40:00,82.6,67.8,30.03,WSW,248,3.0,7.0,61,0.00,,---,0.00,VWS V14.01,2013-06-02 16:40:00,
2013-06-02 12:41:00,82.6,67.3,30.03,West,270,5.0,8.0,60,0.00,,---,0.00,VWS V14.01,2013-06-02 16:41:00,
2013-06-02 12:42:00,82.5,67.7,30.03,WSW,248,3.0,4.0,61,0.00,,---,0.00,VWS V14.01,2013-06-02 16:42:00,
2013-06-02 12:43:00,82.5,67.7,30.03,SW,225,2.0,5.0,61,0.00,,---,0.00,VWS V14.01,2013-06-02 16:43:00,
2013-06-02 12:44:00,82.5,67.2,30.03,SW,225,5.0,6.0,60,0.00,,---,0.00,VWS V14.01,2013-06-02 16:44:00,
2013-06-02 12:45:00,82.4,67.6,30.04,SW,225,2.0,5.0,61,0.00,,---,0.00,VWS V14.01,2013-06-02 16:45:00,
2013-06-02 12:46:00,82.4,67.6,30.03,WSW,248,3.0,5.0,61,0.00,,---,0.00,VWS V14.01,2013-06-02 16:46:00,
2013-06-02 12:47:00,82.3,67.5,30.04,WSW,248,2.0,4.0,61,0.00,,---,0.00,VWS V14.01,2013-06-02 16:47:00,
2013-06-02 12:48:00,82.3,67.5,30.04,WSW,248,5.0,11.0,61,0.00,,---,0.00,VWS V14.01,2013-06-02 16:48:00,
2013-06-02 12:49:00,82.2,67.4,30.03,WNW,292,4.0,5.0,61,0.00,,---,0.00,VWS V14.01,2013-06-02 16:49:00,
2013-06-02 12:50:00,82.1,67.8,30.03,West,270,6.0,10.0,62,0.00,,---,0.00,VWS V14.01,2013-06-02 16:50:00,
2013-06-02 12:51:00,81.9,67.1,30.04,SW,225,6.0,9.0,61,0.00,,---,0.00,VWS V14.01,2013-06-02 16:51:00,
2013-06-02 12:52:00,81.7,67.4,30.04,SW,225,3.0,6.0,62,0.00,,---,0.00,VWS V14.01,2013-06-02 16:52:00,
2013-06-02 12:53:00,81.7,67.4,30.03,WNW,292,3.0,7.0,62,0.00,,---,0.00,VWS V14.01,2013-06-02 16:53:00,
2013-06-02 12:54:00,81.7,67.4,30.03,West,270,1.0,1.0,62,0.00,,---,0.00,VWS V14.01,2013-06-02 16:54:00,
2013-06-02 12:55:00,81.7,67.4,30.03,ENE,68,1.0,2.0,62,0.00,,---,0.00,VWS V14.01,2013-06-02 16:55:00,
2013-06-02 12:56:00,81.8,68.0,30.03,West,270,3.0,5.0,63,0.00,,---,0.00,VWS V14.01,2013-06-02 16:56:00,
2013-06-02 12:57:00,81.9,68.1,30.03,SW,225,4.0,6.0,63,0.00,,---,0.00,VWS V14.01,2013-06-02 16:57:00,
2013-06-02 12:58:00,82.1,68.3,30.03,SSW,202,2.0,4.0,63,0.00,,---,0.00,VWS V14.01,2013-06-02 16:58:00,
2013-06-02 12:59:00,82.2,68.4,30.03,WSW,248,2.0,3.0,63,0.00,,---,0.00,VWS V14.01,2013-06-02 16:59:00,
2013-06-02 13:00:00,82.4,68.1,30.03,SE,135,3.0,6.0,62,0.00,,---,0.00,VWS V14.01,2013-06-02 17:00:00,
2013-06-02 13:01:00,82.5,68.6,30.03,WNW,292,3.0,8.0,63,0.00,,---,0.00,VWS V14.01,2013-06-02 17:01:00,
2013-06-02 13:02:00,82.7,68.4,30.03,WSW,248,4.0,8.0,62,0.00,,---,0.00,VWS V14.01,2013-06-02 17:02:00,
2013-06-02 13:03:00,82.7,67.4,30.03,WSW,248,3.0,5.0,60,0.00,,---,0.00,VWS V14.01,2013-06-02 17:03:00,
2013-06-02 13:04:00,82.8,68.0,30.03,South,180,3.0,6.0,61,0.00,,---,0.00,VWS V14.01,2013-06-02 17:04:00,
2013-06-02 13:05:00,82.9,67.6,30.03,WSW,248,3.0,6.0,60,0.00,,---,0.00,VWS V14.01,2013-06-02 17:05:00,
2013-06-02 13:06:00,83.0,68.2,30.03,West,270,2.0,4.0,61,0.00,,---,0.00,VWS V14.01,2013-06-02 17:06:00,
2013-06-02 13:07:00,83.0,67.7,30.03,WSW,248,3.0,4.0,60,0.00,,---,0.00,VWS V14.01,2013-06-02 17:07:00,
2013-06-02 13:08:00,83.1,67.8,30.03,SW,225,5.0,12.0,60,0.00,,---,0.00,VWS V14.01,2013-06-02 17:08:00,
2013-06-02 13:09:00,83.1,67.8,30.03,SW,225,3.0,6.0,60,0.00,,---,0.00,VWS V14.01,2013-06-02 17:09:00,
2013-06-02 13:10:00,83.1,67.3,30.03,SW,225,5.0,8.0,59,0.00,,---,0.00,VWS V14.01,2013-06-02 17:10:00,
2013-06-02 13:11:00,83.1,67.8,30.03,WNW,292,2.0,3.0,60,0.00,,---,0.00,VWS V14.01,2013-06-02 17:11:00,
2013-06-02 13:12:00,83.2,67.9,30.02,West,270,3.0,4.0,60,0.00,,---,0.00,VWS V14.01,2013-06-02 17:12:00,
2013-06-02 13:13:00,83.2,67.4,30.02,West,270,5.0,9.0,59,0.00,,---,0.00,VWS V14.01,2013-06-02 17:13:00,
2013-06-02 13:14:00,83.1,67.3,30.03,WNW,292,6.0,10.0,59,0.00,,---,0.00,VWS V14.01,2013-06-02 17:14:00,
2013-06-02 13:15:00,82.9,67.1,30.02,WSW,248,7.0,9.0,59,0.00,,---,0.00,VWS V14.01,2013-06-02 17:15:00,
2013-06-02 13:16:00,82.8,68.0,30.03,WSW,248,6.0,10.0,61,0.00,,---,0.00,VWS V14.01,2013-06-02 17:16:00,
2013-06-02 13:17:00,82.8,68.5,30.03,South,180,5.0,8.0,62,0.00,,---,0.00,VWS V14.01,2013-06-02 17:17:00,
2013-06-02 13:18:00,82.8,68.5,30.03,WSW,248,4.0,6.0,62,0.00,,---,0.00,VWS V14.01,2013-06-02 17:18:00,
2013-06-02 13:19:00,83.0,67.7,30.03,WSW,248,5.0,9.0,60,0.00,,---,0.00,VWS V14.01,2013-06-02 17:19:00,
2013-06-02 13:20:00,83.0,67.7,30.03,SE,135,5.0,8.0,60,0.00,,---,0.00,VWS V14.01,2013-06-02 17:20:00,
2013-06-02 13:21:00,83.1,67.8,30.02,SE,135,3.0,4.0,60,0.00,,---,0.00,VWS V14.01,2013-06-02 17:21:00,
2013-06-02 13:22:00,83.2,68.4,30.02,WSW,248,5.0,10.0,61,0.00,,---,0.00,VWS V14.01,2013-06-02 17:22:00,
2013-06-02 13:23:00,83.3,68.0,30.03,WSW,248,4.0,6.0,60,0.00,,---,0.00,VWS V14.01,2013-06-02 17:23:00,
2013-06-02 13:24:00,83.3,67.5,30.03,WNW,292,3.0,5.0,59,0.00,,---,0.00,VWS V14.01,2013-06-02 17:24:00,
2013-06-02 13:25:00,83.2,67.4,30.02,West,270,3.0,3.0,59,0.00,,---,0.00,VWS V14.01,2013-06-02 17:25:00,
2013-06-02 13:26:00,83.2,67.9,30.02,West,270,4.0,8.0,60,0.00,,---,0.00,VWS V14.01,2013-06-02 17:26:00,
2013-06-02 13:27:00,83.1,67.8,30.02,SW,225,3.0,5.0,60,0.00,,---,0.00,VWS V14.01,2013-06-02 17:27:00,
2013-06-02 13:28:00,83.0,67.7,30.02,SW,225,4.0,5.0,60,0.00,,---,0.00,VWS V14.01,2013-06-02 17:28:00,
2013-06-02 13:29:00,82.9,68.1,30.02,West,270,2.0,3.0,61,0.00,,---,0.00,VWS V14.01,2013-06-02 17:29:00,
2013-06-02 13:30:00,83.0,68.2,30.02,SSW,202,3.0,5.0,61,0.00,,---,0.00,VWS V14.01,2013-06-02 17:30:00,
2013-06-02 13:31:00,83.1,68.3,30.02,SSE,158,5.0,8.0,61,0.00,,---,0.00,VWS V14.01,2013-06-02 17:31:00,
2013-06-02 13:32:00,83.1,68.3,30.02,SW,225,5.0,9.0,61,0.00,,---,0.00,VWS V14.01,2013-06-02 17:32:00,
2013-06-02 13:33:00,83.1,67.3,30.02,WSW,248,4.0,6.0,59,0.00,,---,0.00,VWS V14.01,2013-06-02 17:33:00,
2013-06-02 13:34:00,83.1,67.8,30.02,SSE,158,2.0,5.0,60,0.00,,---,0.00,VWS V14.01,2013-06-02 17:34:00,
2013-06-02 13:35:00,83.1,67.3,30.02,SW,225,5.0,8.0,59,0.00,,---,0.00,VWS V14.01,2013-06-02 17:35:00,
2013-06-02 13:36:00,83.0,67.2,30.02,WSW,248,4.0,6.0,59,0.00,,---,0.00,VWS V14.01,2013-06-02 17:36:00,
2013-06-02 13:37:00,82.8,67.0,30.02,SW,225,5.0,7.0,59,0.00,,---,0.00,VWS V14.01,2013-06-02 17:37:00,
2013-06-02 13:38:00,82.7,66.9,30.02,SW,225,4.0,9.0,59,0.00,,---,0.00,VWS V14.01,2013-06-02 17:38:00,
2013-06-02 13:39:00,82.6,67.3,30.02,WSW,248,5.0,8.0,60,0.00,,---,0.00,VWS V14.01,2013-06-02 17:39:00,
2013-06-02 13:40:00,82.6,67.3,30.02,SW,225,5.0,7.0,60,0.00,,---,0.00,VWS V14.01,2013-06-02 17:40:00,
2013-06-02 13:41:00,82.7,67.4,30.02,SW,225,5.0,10.0,60,0.00,,---,0.00,VWS V14.01,2013-06-02 17:41:00,
2013-06-02 13:42:00,82.8,67.5,30.02,WSW,248,3.0,6.0,60,0.00,,---,0.00,VWS V14.01,2013-06-02 17:42:00,
2013-06-02 13:43:00,82.9,68.1,30.02,WSW,248,3.0,11.0,61,0.00,,---,0.00,VWS V14.01,2013-06-02 17:43:00,
2013-06-02 13:44:00,83.1,67.3,30.02,SW,225,5.0,11.0,59,0.00,,---,0.00,VWS V14.01,2013-06-02 17:44:00,
2013-06-02 13:45:00,83.2,67.4,30.02,SSW,202,3.0,6.0,59,0.00,,---,0.00,VWS V14.01,2013-06-02 17:45:00,
2013-06-02 13:46:00,83.2,66.9,30.02,SSW,202,4.0,6.0,58,0.00,,---,0.00,VWS V14.01,2013-06-02 17:46:00,
2013-06-02 13:47:00,83.3,67.5,30.02,SW,225,5.0,9.0,59,0.00,,---,0.00,VWS V14.01,2013-06-02 17:47:00,
2013-06-02 13:48:00,83.2,67.4,30.02,WSW,248,7.0,10.0,59,0.00,,---,0.00,VWS V14.01,2013-06-02 17:48:00,
2013-06-02 13:49:00,83.2,67.4,30.02,WSW,248,6.0,12.0,59,0.00,,---,0.00,VWS V14.01,2013-06-02 17:49:00,
2013-06-02 13:50:00,83.3,68.0,30.02,WSW,248,6.0,9.0,60,0.00,,---,0.00,VWS V14.01,2013-06-02 17:50:00,
2013-06-02 13:51:00,83.4,67.6,30.02,SSW,202,7.0,11.0,59,0.00,,---,0.00,VWS V14.01,2013-06-02 17:51:00,
2013-06-02 13:52:00,83.4,67.1,30.02,WSW,248,6.0,12.0,58,0.00,,---,0.00,VWS V14.01,2013-06-02 17:52:00,
2013-06-02 13:53:00,83.4,67.6,30.02,South,180,6.0,10.0,59,0.00,,---,0.00,VWS V14.01,2013-06-02 17:53:00,
2013-06-02 13:54:00,83.4,67.6,30.01,SSE,158,3.0,4.0,59,0.00,,---,0.00,VWS V14.01,2013-06-02 17:54:00,
2013-06-02 13:55:00,83.6,67.8,30.01,West,270,2.0,3.0,59,0.00,,---,0.00,VWS V14.01,2013-06-02 17:55:00,
2013-06-02 13:56:00,83.9,68.1,30.02,SSE,158,3.0,6.0,59,0.00,,---,0.00,VWS V14.01,2013-06-02 17:56:00,
2013-06-02 13:57:00,84.1,67.7,30.02,SSE,158,4.0,6.0,58,0.00,,---,0.00,VWS V14.01,2013-06-02 17:57:00,
2013-06-02 13:58:00,84.4,67.5,30.02,South,180,6.0,8.0,57,0.00,,---,0.00,VWS V14.01,2013-06-02 17:58:00,
2013-06-02 13:59:00,84.5,67.1,30.01,SSW,202,5.0,7.0,56,0.00,,---,0.00,VWS V14.01,2013-06-02 17:59:00,
2013-06-02 14:00:00,84.5,67.1,30.01,SW,225,7.0,11.0,56,0.00,,---,0.00,VWS V14.01,2013-06-02 18:00:00,
2013-06-02 14:01:00,84.5,67.1,30.01,SW,225,5.0,8.0,56,0.00,,---,0.00,VWS V14.01,2013-06-02 18:01:00,
2013-06-02 14:02:00,84.5,66.6,30.01,SSW,202,4.0,9.0,55,0.00,,---,0.00,VWS V14.01,2013-06-02 18:02:00,
2013-06-02 14:03:00,84.4,65.9,30.01,West,270,6.0,9.0,54,0.00,,---,0.00,VWS V14.01,2013-06-02 18:03:00,
2013-06-02 14:04:00,84.3,66.4,30.01,West,270,6.0,9.0,55,0.00,,---,0.00,VWS V14.01,2013-06-02 18:04:00,
2013-06-02 14:05:00,84.3,66.4,30.01,SW,225,5.0,9.0,55,0.00,,---,0.00,VWS V14.01,2013-06-02 18:05:00,
2013-06-02 14:06:00,84.3,66.9,30.01,WSW,248,6.0,10.0,56,0.00,,---,0.00,VWS V14.01,2013-06-02 18:06:00,
2013-06-02 14:07:00,84.3,66.9,30.01,SW,225,3.0,8.0,56,0.00,,---,0.00,VWS V14.01,2013-06-02 18:07:00,
2013-06-02 14:08:00,84.3,66.9,30.01,SW,225,5.0,8.0,56,0.00,,---,0.00,VWS V14.01,2013-06-02 18:08:00,
2013-06-02 14:09:00,84.4,67.5,30.01,West,270,5.0,9.0,57,0.00,,---,0.00,VWS V14.01,2013-06-02 18:09:00,
2013-06-02 14:10:00,84.5,67.1,30.01,South,180,6.0,9.0,56,0.00,,---,0.00,VWS V14.01,2013-06-02 18:10:00,
2013-06-02 14:11:00,84.5,67.1,30.01,SW,225,4.0,8.0,56,0.00,,---,0.00,VWS V14.01,2013-06-02 18:11:00,
2013-06-02 14:12:00,84.6,67.2,30.01,WSW,248,4.0,8.0,56,0.00,,---,0.00,VWS V14.01,2013-06-02 18:12:00,
2013-06-02 14:13:00,84.6,67.2,30.01,SSW,202,8.0,12.0,56,0.00,,---,0.00,VWS V14.01,2013-06-02 18:13:00,
2013-06-02 14:14:00,84.6,66.7,30.01,WSW,248,7.0,10.0,55,0.00,,---,0.00,VWS V14.01,2013-06-02 18:14:00,
2013-06-02 14:15:00,84.6,67.2,30.01,WSW,248,7.0,8.0,56,0.00,,---,0.00,VWS V14.01,2013-06-02 18:15:00,
2013-06-02 14:16:00,84.6,67.2,30.01,West,270,5.0,8.0,56,0.00,,---,0.00,VWS V14.01,2013-06-02 18:16:00,
2013-06-02 14:17:00,84.6,67.2,30.01,West,270,5.0,8.0,56,0.00,,---,0.00,VWS V14.01,2013-06-02 18:17:00,
2013-06-02 14:18:00,84.7,67.3,30.01,West,270,5.0,8.0,56,0.00,,---,0.00,VWS V14.01,2013-06-02 18:18:00,
2013-06-02 14:19:00,84.7,66.8,30.01,West,270,4.0,7.0,55,0.00,,---,0.00,VWS V14.01,2013-06-02 18:19:00,
2013-06-02 14:20:00,84.7,66.8,30.01,SSW,202,4.0,6.0,55,0.00,,---,0.00,VWS V14.01,2013-06-02 18:20:00,
2013-06-02 14:21:00,84.7,67.3,30.01,South,180,3.0,6.0,56,0.00,,---,0.00,VWS V14.01,2013-06-02 18:21:00,
2013-06-02 14:22:00,84.9,68.0,30.01,South,180,3.0,6.0,57,0.00,,---,0.00,VWS V14.01,2013-06-02 18:22:00,
2013-06-02 14:23:00,85.0,67.6,30.01,SSE,158,4.0,7.0,56,0.00,,---,0.00,VWS V14.01,2013-06-02 18:23:00,
2013-06-02 14:24:00,85.0,67.6,30.01,SSE,158,4.0,7.0,56,0.00,,---,0.00,VWS V14.01,2013-06-02 18:24:00,
2013-06-02 14:25:00,84.9,66.9,30.01,SSE,158,4.0,7.0,55,0.00,,---,0.00,VWS V14.01,2013-06-02 18:25:00,
2013-06-02 14:26:00,84.8,67.4,30.01,SSE,158,3.0,8.0,56,0.00,,---,0.00,VWS V14.01,2013-06-02 18:26:00,
2013-06-02 14:27:00,84.8,67.4,30.01,South,180,3.0,5.0,56,0.00,,---,0.00,VWS V14.01,2013-06-02 18:27:00,
2013-06-02 14:28:00,84.8,67.4,30.01,SW,225,2.0,4.0,56,0.00,,---,0.00,VWS V14.01,2013-06-02 18:28:00,
2013-06-02 14:29:00,84.8,67.4,30.01,East,90,3.0,9.0,56,0.00,,---,0.00,VWS V14.01,2013-06-02 18:29:00,
2013-06-02 14:30:00,84.8,67.4,30.00,South,180,4.0,8.0,56,0.00,,---,0.00,VWS V14.01,2013-06-02 18:30:00,
2013-06-02 14:31:00,84.8,67.4,30.01,SSE,158,3.0,6.0,56,0.00,,---,0.00,VWS V14.01,2013-06-02 18:31:00,
2013-06-02 14:32:00,84.8,67.4,30.00,SW,225,4.0,6.0,56,0.00,,---,0.00,VWS V14.01,2013-06-02 18:32:00,
2013-06-02 14:33:00,84.8,67.9,30.00,SSW,202,4.0,9.0,57,0.00,,---,0.00,VWS V14.01,2013-06-02 18:33:00,
2013-06-02 14:34:00,84.8,67.4,30.01,West,270,9.0,13.0,56,0.00,,---,0.00,VWS V14.01,2013-06-02 18:34:00,
2013-06-02 14:35:00,84.6,66.7,30.00,South,180,7.0,10.0,55,0.00,,---,0.00,VWS V14.01,2013-06-02 18:35:00,
2013-06-02 14:36:00,84.5,66.6,30.00,South,180,5.0,7.0,55,0.00,,---,0.00,VWS V14.01,2013-06-02 18:36:00,
2013-06-02 14:37:00,84.4,67.0,30.00,WSW,248,4.0,6.0,56,0.00,,---,0.00,VWS V14.01,2013-06-02 18:37:00,
2013-06-02 14:38:00,84.4,67.0,30.00,WSW,248,6.0,7.0,56,0.00,,---,0.00,VWS V14.01,2013-06-02 18:38:00,
2013-06-02 14:39:00,84.5,67.1,30.00,SW,225,5.0,9.0,56,0.00,,---,0.00,VWS V14.01,2013-06-02 18:39:00,
2013-06-02 14:40:00,84.5,66.6,30.00,West,270,8.0,12.0,55,0.00,,---,0.00,VWS V14.01,2013-06-02 18:40:00,
2013-06-02 14:41:00,84.6,67.2,30.00,WSW,248,6.0,8.0,56,0.00,,---,0.00,VWS V14.01,2013-06-02 18:41:00,
2013-06-02 14:42:00,84.6,67.2,30.00,SSW,202,3.0,5.0,56,0.00,,---,0.00,VWS V14.01,2013-06-02 18:42:00,
2013-06-02 14:43:00,84.8,67.4,30.00,SSW,202,5.0,9.0,56,0.00,,---,0.00,VWS V14.01,2013-06-02 18:43:00,
2013-06-02 14:44:00,84.9,68.0,30.00,West,270,2.0,5.0,57,0.00,,---,0.00,VWS V14.01,2013-06-02 18:44:00,
2013-06-02 14:45:00,85.2,68.3,30.00,West,270,2.0,4.0,57,0.00,,---,0.00,VWS V14.01,2013-06-02 18:45:00,
2013-06-02 14:46:00,85.4,67.9,30.00,SW,225,3.0,6.0,56,0.00,,---,0.00,VWS V14.01,2013-06-02 18:46:00,
2013-06-02 14:47:00,85.6,67.6,30.00,WSW,248,5.0,8.0,55,0.00,,---,0.00,VWS V14.01,2013-06-02 18:47:00,
2013-06-02 14:48:00,85.6,67.6,30.00,SSW,202,4.0,6.0,55,0.00,,---,0.00,VWS V14.01,2013-06-02 18:48:00,
2013-06-02 14:49:00,85.6,67.6,30.00,West,270,5.0,8.0,55,0.00,,---,0.00,VWS V14.01,2013-06-02 18:49:00,
2013-06-02 14:50:00,85.6,68.1,30.00,WSW,248,5.0,7.0,56,0.00,,---,0.00,VWS V14.01,2013-06-02 18:50:00,
2013-06-02 14:51:00,85.6,67.6,30.00,WSW,248,5.0,10.0,55,0.00,,---,0.00,VWS V14.01,2013-06-02 18:51:00,
2013-06-02 14:52:00,85.7,67.7,30.00,West,270,7.0,18.0,55,0.00,,---,0.00,VWS V14.01,2013-06-02 18:52:00,
2013-06-02 14:53:00,85.4,66.9,30.00,West,270,7.0,13.0,54,0.00,,---,0.00,VWS V14.01,2013-06-02 18:53:00,
2013-06-02 14:54:00,85.2,66.7,30.00,SW,225,9.0,19.0,54,0.00,,---,0.00,VWS V14.01,2013-06-02 18:54:00,
2013-06-02 14:55:00,85.0,67.0,30.00,WSW,248,7.0,12.0,55,0.00,,---,0.00,VWS V14.01,2013-06-02 18:55:00,
2013-06-02 14:56:00,85.0,67.0,30.00,West,270,6.0,8.0,55,0.00,,---,0.00,VWS V14.01,2013-06-02 18:56:00,
2013-06-02 14:57:00,85.0,67.0,29.99,WSW,248,4.0,8.0,55,0.00,,---,0.00,VWS V14.01,2013-06-02 18:57:00,
2013-06-02 14:58:00,85.0,67.6,30.00,West,270,3.0,8.0,56,0.00,,---,0.00,VWS V14.01,2013-06-02 18:58:00,
2013-06-02 14:59:00,85.1,66.6,30.00,SW,225,8.0,12.0,54,0.00,,---,0.00,VWS V14.01,2013-06-02 18:59:00,
2013-06-02 15:00:00,85.2,67.2,30.00,SW,225,6.0,11.0,55,0.00,,---,0.00,VWS V14.01,2013-06-02 19:00:00,
2013-06-02 15:01:00,85.2,66.7,29.99,West,270,7.0,11.0,54,0.00,,---,0.00,VWS V14.01,2013-06-02 19:01:00,
2013-06-02 15:02:00,85.1,66.6,29.99,West,270,7.0,10.0,54,0.00,,---,0.00,VWS V14.01,2013-06-02 19:02:00,
2013-06-02 15:03:00,85.0,67.0,29.99,West,270,5.0,10.0,55,0.00,,---,0.00,VWS V14.01,2013-06-02 19:03:00,
2013-06-02 15:04:00,84.9,66.4,29.99,SW,225,7.0,14.0,54,0.00,,---,0.00,VWS V14.01,2013-06-02 19:04:00,
2013-06-02 15:05:00,84.9,66.4,29.99,SW,225,7.0,11.0,54,0.00,,---,0.00,VWS V14.01,2013-06-02 19:05:00,
2013-06-02 15:06:00,84.8,66.3,29.99,SW,225,6.0,9.0,54,0.00,,---,0.00,VWS V14.01,2013-06-02 19:06:00,
2013-06-02 15:07:00,84.8,66.8,29.99,SW,225,6.0,10.0,55,0.00,,---,0.00,VWS V14.01,2013-06-02 19:07:00,
2013-06-02 15:08:00,84.9,66.4,29.99,SSE,158,5.0,7.0,54,0.00,,---,0.00,VWS V14.01,2013-06-02 19:08:00,
2013-06-02 15:09:00,85.0,66.5,29.99,SW,225,2.0,5.0,54,0.00,,---,0.00,VWS V14.01,2013-06-02 19:09:00,
2013-06-02 15:10:00,85.1,66.6,29.99,SSE,158,4.0,6.0,54,0.00,,---,0.00,VWS V14.01,2013-06-02 19:10:00,
2013-06-02 15:11:00,85.3,66.8,29.99,WSW,248,6.0,8.0,54,0.00,,---,0.00,VWS V14.01,2013-06-02 19:11:00,
2013-06-02 15:12:00,85.3,66.8,29.99,SW,225,5.0,10.0,54,0.00,,---,0.00,VWS V14.01,2013-06-02 19:12:00,
2013-06-02 15:13:00,85.4,66.9,29.99,WNW,292,3.0,5.0,54,0.00,,---,0.00,VWS V14.01,2013-06-02 19:13:00,
2013-06-02 15:14:00,85.5,67.0,29.99,West,270,5.0,7.0,54,0.00,,---,0.00,VWS V14.01,2013-06-02 19:14:00,
2013-06-02 15:15:00,85.5,67.0,29.99,SSW,202,5.0,10.0,54,0.00,,---,0.00,VWS V14.01,2013-06-02 19:15:00,
2013-06-02 15:16:00,85.5,66.4,29.99,South,180,6.0,9.0,53,0.00,,---,0.00,VWS V14.01,2013-06-02 19:16:00,
2013-06-02 15:17:00,85.5,67.0,29.98,SSW,202,2.0,4.0,54,0.00,,---,0.00,VWS V14.01,2013-06-02 19:17:00,
2013-06-02 15:18:00,85.6,67.1,29.99,East,90,3.0,8.0,54,0.00,,---,0.00,VWS V14.01,2013-06-02 19:18:00,
2013-06-02 15:19:00,85.7,67.2,29.98,WSW,248,3.0,5.0,54,0.00,,---,0.00,VWS V14.01,2013-06-02 19:19:00,
2013-06-02 15:20:00,85.7,66.6,29.98,WSW,248,6.0,11.0,53,0.00,,---,0.00,VWS V14.01,2013-06-02 19:20:00,
2013-06-02 15:21:00,85.6,66.5,29.98,West,270,4.0,6.0,53,0.00,,---,0.00,VWS V14.01,2013-06-02 19:21:00,
2013-06-02 15:22:00,85.5,66.4,29.98,West,270,3.0,4.0,53,0.00,,---,0.00,VWS V14.01,2013-06-02 19:22:00,
2013-06-02 15:23:00,85.5,66.4,29.98,SW,225,4.0,8.0,53,0.00,,---,0.00,VWS V14.01,2013-06-02 19:23:00,
2013-06-02 15:24:00,85.5,66.4,29.98,WSW,248,3.0,5.0,53,0.00,,---,0.00,VWS V14.01,2013-06-02 19:24:00,
2013-06-02 15:25:00,85.6,66.0,29.98,WSW,248,5.0,8.0,52,0.00,,---,0.00,VWS V14.01,2013-06-02 19:25:00,
2013-06-02 15:26:00,85.6,66.5,29.98,SSW,202,4.0,7.0,53,0.00,,---,0.00,VWS V14.01,2013-06-02 19:26:00,
2013-06-02 15:27:00,85.7,66.6,29.98,SW,225,4.0,7.0,53,0.00,,---,0.00,VWS V14.01,2013-06-02 19:27:00,
2013-06-02 15:28:00,85.9,67.3,29.98,WSW,248,3.0,4.0,54,0.00,,---,0.00,VWS V14.01,2013-06-02 19:28:00,
2013-06-02 15:29:00,86.1,67.0,29.98,WSW,248,4.0,6.0,53,0.00,,---,0.00,VWS V14.01,2013-06-02 19:29:00,
2013-06-02 15:30:00,86.3,67.2,29.98,SSE,158,1.0,2.0,53,0.00,,---,0.00,VWS V14.01,2013-06-02 19:30:00,
2013-06-02 15:31:00,86.6,65.8,29.98,South,180,3.0,5.0,50,0.00,,---,0.00,VWS V14.01,2013-06-02 19:31:00,
2013-06-02 15:32:00,86.8,65.9,29.98,SSE,158,5.0,9.0,50,0.00,,---,0.00,VWS V14.01,2013-06-02 19:32:00,
2013-06-02 15:33:00,86.9,66.0,29.98,SSE,158,3.0,4.0,50,0.00,,---,0.00,VWS V14.01,2013-06-02 19:33:00,
2013-06-02 15:34:00,87.1,66.2,29.98,South,180,3.0,5.0,50,0.00,,---,0.00,VWS V14.01,2013-06-02 19:34:00,
2013-06-02 15:35:00,87.2,66.3,29.98,SW,225,5.0,11.0,50,0.00,,---,0.00,VWS V14.01,2013-06-02 19:35:00,
2013-06-02 15:36:00,87.3,65.8,29.98,WSW,248,4.0,7.0,49,0.00,,---,0.00,VWS V14.01,2013-06-02 19:36:00,
2013-06-02 15:37:00,87.2,65.7,29.98,WSW,248,5.0,9.0,49,0.00,,---,0.00,VWS V14.01,2013-06-02 19:37:00,
2013-06-02 15:38:00,87.1,65.6,29.98,SSW,202,6.0,11.0,49,0.00,,---,0.00,VWS V14.01,2013-06-02 19:38:00,
2013-06-02 15:39:00,87.0,65.6,29.98,SW,225,6.0,8.0,49,0.00,,---,0.00,VWS V14.01,2013-06-02 19:39:00,
2013-06-02 15:40:00,86.8,65.4,29.98,West,270,5.0,7.0,49,0.00,,---,0.00,VWS V14.01,2013-06-02 19:40:00,
2013-06-02 15:41:00,86.6,65.2,29.98,WSW,248,5.0,8.0,49,0.00,,---,0.00,VWS V14.01,2013-06-02 19:41:00,
2013-06-02 15:42:00,86.4,65.6,29.98,West,270,5.0,7.0,50,0.00,,---,0.00,VWS V14.01,2013-06-02 19:42:00,
2013-06-02 15:43:00,86.3,66.1,29.98,SW,225,4.0,6.0,51,0.00,,---,0.00,VWS V14.01,2013-06-02 19:43:00,
2013-06-02 15:44:00,86.2,65.4,29.98,WSW,248,4.0,9.0,50,0.00,,---,0.00,VWS V14.01,2013-06-02 19:44:00,
2013-06-02 15:45:00,86.1,65.3,29.98,West,270,3.0,5.0,50,0.00,,---,0.00,VWS V14.01,2013-06-02 19:45:00,
2013-06-02 15:46:00,86.1,65.9,29.98,SW,225,4.0,6.0,51,0.00,,---,0.00,VWS V14.01,2013-06-02 19:46:00,
2013-06-02 15:47:00,86.0,65.8,29.98,WSW,248,5.0,8.0,51,0.00,,---,0.00,VWS V14.01,2013-06-02 19:47:00,
2013-06-02 15:48:00,85.9,65.7,29.98,West,270,4.0,7.0,51,0.00,,---,0.00,VWS V14.01,2013-06-02 19:48:00,
2013-06-02 15:49:00,85.9,65.7,29.98,WSW,248,4.0,6.0,51,0.00,,---,0.00,VWS V14.01,2013-06-02 19:49:00,
2013-06-02 15:50:00,85.8,66.2,29.98,West,270,3.0,5.0,52,0.00,,---,0.00,VWS V14.01,2013-06-02 19:50:00,
2013-06-02 15:51:00,85.7,65.5,29.97,West,270,5.0,9.0,51,0.00,,---,0.00,VWS V14.01,2013-06-02 19:51:00,
2013-06-02 15:52:00,85.6,65.4,29.97,WNW,292,3.0,5.0,51,0.00,,---,0.00,VWS V14.01,2013-06-02 19:52:00,
2013-06-02 15:53:00,85.6,66.0,29.97,WSW,248,3.0,5.0,52,0.00,,---,0.00,VWS V14.01,2013-06-02 19:53:00,
2013-06-02 15:54:00,85.7,66.1,29.97,WSW,248,3.0,5.0,52,0.00,,---,0.00,VWS V14.01,2013-06-02 19:54:00,
2013-06-02 15:55:00,85.7,66.1,29.97,WSW,248,4.0,6.0,52,0.00,,---,0.00,VWS V14.01,2013-06-02 19:55:00,
2013-06-02 15:56:00,85.7,66.1,29.98,WSW,248,5.0,7.0,52,0.00,,---,0.00,VWS V14.01,2013-06-02 19:56:00,
2013-06-02 15:57:00,85.7,66.1,29.97,SW,225,6.0,7.0,52,0.00,,---,0.00,VWS V14.01,2013-06-02 19:57:00,
2013-06-02 15:58:00,85.7,66.1,29.97,West,270,3.0,4.0,52,0.00,,---,0.00,VWS V14.01,2013-06-02 19:58:00,
2013-06-02 15:59:00,85.8,66.2,29.97,SW,225,3.0,5.0,52,0.00,,---,0.00,VWS V14.01,2013-06-02 19:59:00,
2013-06-02 16:00:00,85.8,65.6,29.97,West,270,4.0,5.0,51,0.00,,---,0.00,VWS V14.01,2013-06-02 20:00:00,
2013-06-02 16:01:00,85.8,66.2,29.97,SW,225,3.0,6.0,52,0.00,,---,0.00,VWS V14.01,2013-06-02 20:01:00,
2013-06-02 16:02:00,85.7,66.1,29.97,SSE,158,1.0,1.0,52,0.00,,---,0.00,VWS V14.01,2013-06-02 20:02:00,
2013-06-02 16:03:00,85.9,66.2,29.97,West,270,0.0,1.0,52,0.00,,---,0.00,VWS V14.01,2013-06-02 20:03:00,
2013-06-02 16:04:00,86.0,66.9,29.97,West,270,1.0,4.0,53,0.00,,---,0.00,VWS V14.01,2013-06-02 20:04:00,
2013-06-02 16:05:00,86.1,65.9,29.97,South,180,4.0,6.0,51,0.00,,---,0.00,VWS V14.01,2013-06-02 20:05:00,
2013-06-02 16:06:00,86.3,65.5,29.97,SSE,158,4.0,5.0,50,0.00,,---,0.00,VWS V14.01,2013-06-02 20:06:00,
2013-06-02 16:07:00,86.3,65.5,29.97,SE,135,5.0,6.0,50,0.00,,---,0.00,VWS V14.01,2013-06-02 20:07:00,
2013-06-02 16:08:00,86.3,65.5,29.97,SE,135,4.0,6.0,50,0.00,,---,0.00,VWS V14.01,2013-06-02 20:08:00,
2013-06-02 16:09:00,86.3,65.5,29.97,SSE,158,2.0,6.0,50,0.00,,---,0.00,VWS V14.01,2013-06-02 20:09:00,
2013-06-02 16:10:00,86.3,66.1,29.97,South,180,3.0,5.0,51,0.00,,---,0.00,VWS V14.01,2013-06-02 20:10:00,
2013-06-02 16:11:00,86.5,66.2,29.97,ESE,112,3.0,9.0,51,0.00,,---,0.00,VWS V14.01,2013-06-02 20:11:00,
2013-06-02 16:12:00,86.6,66.3,29.97,SSW,202,3.0,5.0,51,0.00,,---,0.00,VWS V14.01,2013-06-02 20:12:00,
2013-06-02 16:13:00,86.8,65.9,29.97,SSW,202,6.0,9.0,50,0.00,,---,0.00,VWS V14.01,2013-06-02 20:13:00,
2013-06-02 16:14:00,86.7,65.9,29.97,WSW,248,7.0,12.0,50,0.00,,---,0.00,VWS V14.01,2013-06-02 20:14:00,
2013-06-02 16:15:00,86.6,65.8,29.97,SW,225,3.0,10.0,50,0.00,,---,0.00,VWS V14.01,2013-06-02 20:15:00,
2013-06-02 16:16:00,86.5,65.7,29.97,West,270,4.0,7.0,50,0.00,,---,0.00,VWS V14.01,2013-06-02 20:16:00,
2013-06-02 16:17:00,86.5,65.7,29.97,West,270,5.0,8.0,50,0.00,,---,0.00,VWS V14.01,2013-06-02 20:17:00,
2013-06-02 16:18:00,86.3,66.1,29.97,SW,225,4.0,9.0,51,0.00,,---,0.00,VWS V14.01,2013-06-02 20:18:00,
2013-06-02 16:19:00,86.3,65.5,29.97,SW,225,3.0,6.0,50,0.00,,---,0.00,VWS V14.01,2013-06-02 20:19:00,
2013-06-02 16:20:00,86.4,66.2,29.96,SSE,158,3.0,5.0,51,0.00,,---,0.00,VWS V14.01,2013-06-02 20:20:00,
2013-06-02 16:21:00,86.4,66.2,29.96,West,270,2.0,3.0,51,0.00,,---,0.00,VWS V14.01,2013-06-02 20:21:00,
2013-06-02 16:22:00,86.6,66.3,29.96,SSW,202,2.0,3.0,51,0.00,,---,0.00,VWS V14.01,2013-06-02 20:22:00,
2013-06-02 16:23:00,86.9,66.6,29.96,SSE,158,1.0,3.0,51,0.00,,---,0.00,VWS V14.01,2013-06-02 20:23:00,
2013-06-02 16:24:00,87.1,66.2,29.96,SSW,202,3.0,7.0,50,0.00,,---,0.00,VWS V14.01,2013-06-02 20:24:00,
2013-06-02 16:25:00,87.3,66.4,29.96,WSW,248,4.0,8.0,50,0.00,,---,0.00,VWS V14.01,2013-06-02 20:25:00,
2013-06-02 16:26:00,87.3,66.4,29.96,West,270,3.0,6.0,50,0.00,,---,0.00,VWS V14.01,2013-06-02 20:26:00,
2013-06-02 16:27:00,87.3,66.4,29.96,WSW,248,5.0,6.0,50,0.00,,---,0.00,VWS V14.01,2013-06-02 20:27:00,
2013-06-02 16:28:00,87.3,66.4,29.96,WSW,248,4.0,7.0,50,0.00,,---,0.00,VWS V14.01,2013-06-02 20:28:00,
2013-06-02 16:29:00,87.2,65.7,29.96,SW,225,5.0,9.0,49,0.00,,---,0.00,VWS V14.01,2013-06-02 20:29:00,
2013-06-02 16:30:00,87.0,65.6,29.96,WSW,248,5.0,8.0,49,0.00,,---,0.00,VWS V14.01,2013-06-02 20:30:00,
2013-06-02 16:31:00,86.8,65.4,29.96,SSW,202,4.0,5.0,49,0.00,,---,0.00,VWS V14.01,2013-06-02 20:31:00,
2013-06-02 16:32:00,86.7,65.9,29.96,WSW,248,4.0,6.0,50,0.00,,---,0.00,VWS V14.01,2013-06-02 20:32:00,
2013-06-02 16:33:00,86.6,65.8,29.95,ESE,112,2.0,3.0,50,0.00,,---,0.00,VWS V14.01,2013-06-02 20:33:00,
2013-06-02 16:34:00,86.6,65.8,29.96,West,270,2.0,4.0,50,0.00,,---,0.00,VWS V14.01,2013-06-02 20:34:00,
2013-06-02 16:35:00,86.7,65.9,29.95,WSW,248,4.0,6.0,50,0.00,,---,0.00,VWS V14.01,2013-06-02 20:35:00,
2013-06-02 16:36:00,86.7,65.9,29.95,SSW,202,5.0,7.0,50,0.00,,---,0.00,VWS V14.01,2013-06-02 20:36:00,
2013-06-02 16:37:00,86.7,65.9,29.95,West,270,5.0,7.0,50,0.00,,---,0.00,VWS V14.01,2013-06-02 20:37:00,
2013-06-02 16:38:00,86.7,65.9,29.95,West,270,6.0,10.0,50,0.00,,---,0.00,VWS V14.01,2013-06-02 20:38:00,
2013-06-02 16:39:00,86.7,65.9,29.95,West,270,5.0,7.0,50,0.00,,---,0.00,VWS V14.01,2013-06-02 20:39:00,
2013-06-02 16:40:00,86.7,65.9,29.95,SW,225,3.0,4.0,50,0.00,,---,0.00,VWS V14.01,2013-06-02 20:40:00,
2013-06-02 16:41:00,86.8,66.5,29.95,SW,225,2.0,4.0,51,0.00,,---,0.00,VWS V14.01,2013-06-02 20:41:00,
2013-06-02 16:42:00,87.0,66.1,29.95,SW,225,2.0,4.0,50,0.00,,---,0.00,VWS V14.01,2013-06-02 20:42:00,
2013-06-02 16:43:00,87.2,66.3,29.95,West,270,2.0,3.0,50,0.00,,---,0.00,VWS V14.01,2013-06-02 20:43:00,
2013-06-02 16:44:00,87.3,65.8,29.95,SSE,158,4.0,7.0,49,0.00,,---,0.00,VWS V14.01,2013-06-02 20:44:00,
2013-06-02 16:45:00,87.4,65.3,29.95,SSW,202,4.0,8.0,48,0.00,,---,0.00,VWS V14.01,2013-06-02 20:45:00,
2013-06-02 16:46:00,87.4,65.3,29.95,SW,225,6.0,9.0,48,0.00,,---,0.00,VWS V14.01,2013-06-02 20:46:00,
2013-06-02 16:47:00,87.3,65.2,29.95,SSW,202,5.0,7.0,48,0.00,,---,0.00,VWS V14.01,2013-06-02 20:47:00,
2013-06-02 16:48:00,87.3,65.8,29.95,WNW,292,1.0,2.0,49,0.00,,---,0.00,VWS V14.01,2013-06-02 20:48:00,
2013-06-02 16:49:00,87.4,65.9,29.95,East,90,2.0,3.0,49,0.00,,---,0.00,VWS V14.01,2013-06-02 20:49:00,
2013-06-02 16:50:00,87.7,65.6,29.95,SSE,158,3.0,6.0,48,0.00,,---,0.00,VWS V14.01,2013-06-02 20:50:00,
2013-06-02 16:51:00,87.9,65.8,29.95,SSW,202,3.0,6.0,48,0.00,,---,0.00,VWS V14.01,2013-06-02 20:51:00,
2013-06-02 16:52:00,88.1,66.0,29.95,West,270,4.0,5.0,48,0.00,,---,0.00,VWS V14.01,2013-06-02 20:52:00,
2013-06-02 16:53:00,88.1,66.0,29.94,West,270,4.0,7.0,48,0.00,,---,0.00,VWS V14.01,2013-06-02 20:53:00,
2013-06-02 16:54:00,88.1,66.0,29.95,West,270,4.0,6.0,48,0.00,,---,0.00,VWS V14.01,2013-06-02 20:54:00,
2013-06-02 16:55:00,88.1,65.3,29.94,SW,225,4.0,7.0,47,0.00,,---,0.00,VWS V14.01,2013-06-02 20:55:00,
2013-06-02 16:56:00,88.1,66.0,29.94,WNW,292,2.0,3.0,48,0.00,,---,0.00,VWS V14.01,2013-06-02 20:56:00,
2013-06-02 16:57:00,88.2,66.1,29.94,SW,225,1.0,3.0,48,0.00,,---,0.00,VWS V14.01,2013-06-02 20:57:00,
2013-06-02 16:58:00,88.3,65.5,29.94,WSW,248,4.0,8.0,47,0.00,,---,0.00,VWS V14.01,2013-06-02 20:58:00,
2013-06-02 16:59:00,88.3,66.1,29.94,WSW,248,3.0,6.0,48,0.00,,---,0.00,VWS V14.01,2013-06-02 20:59:00,
2013-06-02 17:00:00,88.4,66.2,29.94,West,270,2.0,3.0,48,0.00,,---,0.00,VWS V14.01,2013-06-02 21:00:00,
2013-06-02 17:01:00,88.5,66.3,29.94,SSE,158,3.0,10.0,48,0.00,,---,0.00,VWS V14.01,2013-06-02 21:01:00,
2013-06-02 17:02:00,88.5,65.1,29.94,WSW,248,8.0,13.0,46,0.00,,---,0.00,VWS V14.01,2013-06-02 21:02:00,
2013-06-02 17:03:00,88.3,64.9,29.94,SSW,202,6.0,8.0,46,0.00,,---,0.00,VWS V14.01,2013-06-02 21:03:00,
2013-06-02 17:04:00,88.1,64.7,29.94,SSW,202,4.0,9.0,46,0.00,,---,0.00,VWS V14.01,2013-06-02 21:04:00,
2013-06-02 17:05:00,87.8,64.5,29.94,SSW,202,4.0,6.0,46,0.00,,---,0.00,VWS V14.01,2013-06-02 21:05:00,
2013-06-02 17:06:00,87.7,65.0,29.94,West,270,4.0,6.0,47,0.00,,---,0.00,VWS V14.01,2013-06-02 21:06:00,
2013-06-02 17:07:00,87.4,64.7,29.94,SW,225,4.0,8.0,47,0.00,,---,0.00,VWS V14.01,2013-06-02 21:07:00,
2013-06-02 17:08:00,87.3,64.6,29.94,West,270,4.0,12.0,47,0.00,,---,0.00,VWS V14.01,2013-06-02 21:08:00,
2013-06-02 17:09:00,87.2,65.1,29.94,SW,225,5.0,11.0,48,0.00,,---,0.00,VWS V14.01,2013-06-02 21:09:00,
2013-06-02 17:10:00,87.1,65.1,29.94,SSW,202,5.0,7.0,48,0.00,,---,0.00,VWS V14.01,2013-06-02 21:10:00,
2013-06-02 17:11:00,87.1,65.1,29.94,West,270,3.0,6.0,48,0.00,,---,0.00,VWS V14.01,2013-06-02 21:11:00,
2013-06-02 17:12:00,87.0,65.0,29.94,South,180,6.0,9.0,48,0.00,,---,0.00,VWS V14.01,2013-06-02 21:12:00,
2013-06-02 17:13:00,87.0,65.0,29.94,West,270,3.0,5.0,48,0.00,,---,0.00,VWS V14.01,2013-06-02 21:13:00,
2013-06-02 17:14:00,87.0,65.0,29.94,WSW,248,5.0,7.0,48,0.00,,---,0.00,VWS V14.01,2013-06-02 21:14:00,
2013-06-02 17:15:00,86.9,64.3,29.94,WSW,248,4.0,5.0,47,0.00,,---,0.00,VWS V14.01,2013-06-02 21:15:00,
2013-06-02 17:16:00,86.9,64.9,29.94,West,270,1.0,2.0,48,0.00,,---,0.00,VWS V14.01,2013-06-02 21:16:00,
2013-06-02 17:17:00,87.0,65.0,29.94,WNW,292,2.0,7.0,48,0.00,,---,0.00,VWS V14.01,2013-06-02 21:17:00,
2013-06-02 17:18:00,87.1,65.1,29.93,SSE,158,4.0,7.0,48,0.00,,---,0.00,VWS V14.01,2013-06-02 21:18:00,
2013-06-02 17:19:00,87.3,65.2,29.94,SW,225,2.0,3.0,48,0.00,,---,0.00,VWS V14.01,2013-06-02 21:19:00,
2013-06-02 17:20:00,87.3,65.2,29.94,SW,225,5.0,9.0,48,0.00,,---,0.00,VWS V14.01,2013-06-02 21:20:00,
2013-06-02 17:21:00,87.3,64.6,29.94,SW,225,5.0,7.0,47,0.00,,---,0.00,VWS V14.01,2013-06-02 21:21:00,
2013-06-02 17:22:00,87.3,64.6,29.94,WNW,292,4.0,5.0,47,0.00,,---,0.00,VWS V14.01,2013-06-02 21:22:00,
2013-06-02 17:23:00,87.3,64.0,29.94,SW,225,6.0,9.0,46,0.00,,---,0.00,VWS V14.01,2013-06-02 21:23:00,
2013-06-02 17:24:00,87.2,63.9,29.94,SW,225,3.0,5.0,46,0.00,,---,0.00,VWS V14.01,2013-06-02 21:24:00,
2013-06-02 17:25:00,87.2,63.9,29.93,West,270,5.0,7.0,46,0.00,,---,0.00,VWS V14.01,2013-06-02 21:25:00,
2013-06-02 17:26:00,87.2,64.5,29.93,SW,225,3.0,5.0,47,0.00,,---,0.00,VWS V14.01,2013-06-02 21:26:00,
2013-06-02 17:27:00,87.3,64.0,29.93,WSW,248,3.0,5.0,46,0.00,,---,0.00,VWS V14.01,2013-06-02 21:27:00,
2013-06-02 17:28:00,87.3,64.6,29.93,SSW,202,3.0,4.0,47,0.00,,---,0.00,VWS V14.01,2013-06-02 21:28:00,
2013-06-02 17:29:00,87.3,64.0,29.93,SW,225,4.0,6.0,46,0.00,,---,0.00,VWS V14.01,2013-06-02 21:29:00,
2013-06-02 17:30:00,87.3,64.6,29.93,SW,225,4.0,5.0,47,0.00,,---,0.00,VWS V14.01,2013-06-02 21:30:00,
2013-06-02 17:31:00,87.3,64.0,29.93,WSW,248,5.0,8.0,46,0.00,,---,0.00,VWS V14.01,2013-06-02 21:31:00,
2013-06-02 17:32:00,87.2,63.9,29.93,SW,225,3.0,5.0,46,0.00,,---,0.00,VWS V14.01,2013-06-02 21:32:00,
2013-06-02 17:33:00,87.3,64.6,29.93,SSE,158,2.0,4.0,47,0.00,,---,0.00,VWS V14.01,2013-06-02 21:33:00,
2013-06-02 17:34:00,87.3,64.6,29.93,SSW,202,3.0,6.0,47,0.00,,---,0.00,VWS V14.01,2013-06-02 21:34:00,
2013-06-02 17:35:00,87.5,64.2,29.93,South,180,4.0,6.0,46,0.00,,---,0.00,VWS V14.01,2013-06-02 21:35:00,
2013-06-02 17:36:00,87.5,64.2,29.93,SW,225,4.0,6.0,46,0.00,,---,0.00,VWS V14.01,2013-06-02 21:36:00,
2013-06-02 17:37:00,87.5,64.2,29.93,SW,225,3.0,6.0,46,0.00,,---,0.00,VWS V14.01,2013-06-02 21:37:00,
2013-06-02 17:38:00,87.5,64.2,29.93,West,270,3.0,5.0,46,0.00,,---,0.00,VWS V14.01,2013-06-02 21:38:00,
2013-06-02 17:39:00,87.5,64.2,29.93,SW,225,2.0,3.0,46,0.00,,---,0.00,VWS V14.01,2013-06-02 21:39:00,
2013-06-02 17:40:00,87.6,64.3,29.93,West,270,1.0,2.0,46,0.00,,---,0.00,VWS V14.01,2013-06-02 21:40:00,
2013-06-02 17:41:00,87.7,64.4,29.93,SW,225,2.0,2.0,46,0.00,,---,0.00,VWS V14.01,2013-06-02 21:41:00,
2013-06-02 17:42:00,87.8,63.8,29.93,SSW,202,2.0,2.0,45,0.00,,---,0.00,VWS V14.01,2013-06-02 21:42:00,
2013-06-02 17:43:00,87.9,64.6,29.93,WNW,292,1.0,2.0,46,0.00,,---,0.00,VWS V14.01,2013-06-02 21:43:00,
2013-06-02 17:44:00,88.1,64.7,29.93,SW,225,2.0,4.0,46,0.00,,---,0.00,VWS V14.01,2013-06-02 21:44:00,
2013-06-02 17:45:00,88.1,64.7,29.93,WSW,248,3.0,4.0,46,0.00,,---,0.00,VWS V14.01,2013-06-02 21:45:00,
2013-06-02 17:46:00,88.1,64.1,29.93,ESE,112,1.0,2.0,45,0.00,,---,0.00,VWS V14.01,2013-06-02 21:46:00,
2013-06-02 17:47:00,88.2,64.2,29.93,SW,225,1.0,1.0,45,0.00,,---,0.00,VWS V14.01,2013-06-02 21:47:00,
2013-06-02 17:48:00,88.3,64.9,29.93,West,270,2.0,3.0,46,0.00,,---,0.00,VWS V14.01,2013-06-02 21:48:00,
2013-06-02 17:49:00,88.4,65.0,29.93,West,270,3.0,3.0,46,0.00,,---,0.00,VWS V14.01,2013-06-02 21:49:00,
2013-06-02 17:50:00,88.4,64.4,29.93,WSW,248,2.0,3.0,45,0.00,,---,0.00,VWS V14.01,2013-06-02 21:50:00,
2013-06-02 17:51:00,88.3,64.3,29.93,West,270,4.0,7.0,45,0.00,,---,0.00,VWS V14.01,2013-06-02 21:51:00,
2013-06-02 17:52:00,88.2,64.2,29.93,WSW,248,5.0,8.0,45,0.00,,---,0.00,VWS V14.01,2013-06-02 21:52:00,
2013-06-02 17:53:00,88.1,64.1,29.93,WSW,248,4.0,5.0,45,0.00,,---,0.00,VWS V14.01,2013-06-02 21:53:00,
2013-06-02 17:54:00,88.0,64.7,29.93,South,180,2.0,5.0,46,0.00,,---,0.00,VWS V14.01,2013-06-02 21:54:00,
2013-06-02 17:55:00,88.0,64.7,29.93,SW,225,3.0,5.0,46,0.00,,---,0.00,VWS V14.01,2013-06-02 21:55:00,
2013-06-02 17:56:00,88.0,64.0,29.93,SSW,202,2.0,3.0,45,0.00,,---,0.00,VWS V14.01,2013-06-02 21:56:00,
2013-06-02 17:57:00,88.1,64.1,29.93,West,270,2.0,6.0,45,0.00,,---,0.00,VWS V14.01,2013-06-02 21:57:00,
2013-06-02 17:58:00,88.2,64.2,29.93,SW,225,3.0,5.0,45,0.00,,---,0.00,VWS V14.01,2013-06-02 21:58:00,
2013-06-02 17:59:00,88.2,64.2,29.93,SW,225,3.0,6.0,45,0.00,,---,0.00,VWS V14.01,2013-06-02 21:59:00,
2013-06-02 18:00:00,88.1,64.1,29.93,WSW,248,4.0,7.0,45,0.00,,---,0.00,VWS V14.01,2013-06-02 22:00:00,
2013-06-02 18:01:00,88.0,64.0,29.93,SW,225,3.0,6.0,45,0.00,,---,0.00,VWS V14.01,2013-06-02 22:01:00,
2013-06-02 18:02:00,88.0,64.0,29.93,SE,135,1.0,3.0,45,0.00,,---,0.00,VWS V14.01,2013-06-02 22:02:00,
2013-06-02 18:03:00,87.9,63.9,29.93,SW,225,4.0,8.0,45,0.00,,---,0.00,VWS V14.01,2013-06-02 22:03:00,
2013-06-02 18:04:00,87.9,63.9,29.93,SW,225,3.0,5.0,45,0.00,,---,0.00,VWS V14.01,2013-06-02 22:04:00,
2013-06-02 18:05:00,87.8,63.8,29.93,SE,135,4.0,8.0,45,0.00,,---,0.00,VWS V14.01,2013-06-02 22:05:00,
2013-06-02 18:06:00,87.7,64.4,29.93,NE,45,1.0,2.0,46,0.00,,---,0.00,VWS V14.01,2013-06-02 22:06:00,
2013-06-02 18:07:00,87.7,64.4,29.93,WSW,248,1.0,2.0,46,0.00,,---,0.00,VWS V14.01,2013-06-02 22:07:00,
2013-06-02 18:08:00,87.7,64.4,29.93,SSW,202,2.0,4.0,46,0.00,,---,0.00,VWS V14.01,2013-06-02 22:08:00,
2013-06-02 18:09:00,87.7,65.0,29.93,WSW,248,1.0,2.0,47,0.00,,---,0.00,VWS V14.01,2013-06-02 22:09:00,
2013-06-02 18:10:00,87.8,64.5,29.93,SSE,158,3.0,5.0,46,0.00,,---,0.00,VWS V14.01,2013-06-02 22:10:00,
2013-06-02 18:11:00,87.8,64.5,29.93,WSW,248,4.0,5.0,46,0.00,,---,0.00,VWS V14.01,2013-06-02 22:11:00,
2013-06-02 18:12:00,87.8,64.5,29.93,SW,225,5.0,7.0,46,0.00,,---,0.00,VWS V14.01,2013-06-02 22:12:00,
2013-06-02 18:13:00,87.7,64.4,29.93,WSW,248,4.0,6.0,46,0.00,,---,0.00,VWS V14.01,2013-06-02 22:13:00,
2013-06-02 18:14:00,87.7,64.4,29.93,SW,225,3.0,6.0,46,0.00,,---,0.00,VWS V14.01,2013-06-02 22:14:00,
2013-06-02 18:15:00,87.6,64.3,29.93,SW,225,5.0,7.0,46,0.00,,---,0.00,VWS V14.01,2013-06-02 22:15:00,
2013-06-02 18:16:00,87.6,64.9,29.93,WSW,248,2.0,4.0,47,0.00,,---,0.00,VWS V14.01,2013-06-02 22:16:00,
2013-06-02 18:17:00,87.7,65.0,29.93,SW,225,1.0,1.0,47,0.00,,---,0.00,VWS V14.01,2013-06-02 22:17:00,
2013-06-02 18:18:00,87.9,65.2,29.93,SSW,202,3.0,5.0,47,0.00,,---,0.00,VWS V14.01,2013-06-02 22:18:00,
2013-06-02 18:19:00,88.0,65.3,29.93,West,270,1.0,4.0,47,0.00,,---,0.00,VWS V14.01,2013-06-02 22:19:00,
2013-06-02 18:20:00,88.2,65.4,29.93,SSW,202,3.0,4.0,47,0.00,,---,0.00,VWS V14.01,2013-06-02 22:20:00,
2013-06-02 18:21:00,88.3,64.9,29.93,SW,225,2.0,3.0,46,0.00,,---,0.00,VWS V14.01,2013-06-02 22:21:00,
2013-06-02 18:22:00,88.4,65.6,29.93,WSW,248,3.0,5.0,47,0.00,,---,0.00,VWS V14.01,2013-06-02 22:22:00,
2013-06-02 18:23:00,88.4,65.0,29.93,SSW,202,2.0,5.0,46,0.00,,---,0.00,VWS V14.01,2013-06-02 22:23:00,
2013-06-02 18:24:00,88.4,65.0,29.93,SSE,158,1.0,2.0,46,0.00,,---,0.00,VWS V14.01,2013-06-02 22:24:00,
2013-06-02 18:25:00,88.5,65.1,29.93,SW,225,5.0,7.0,46,0.00,,---,0.00,VWS V14.01,2013-06-02 22:25:00,
2013-06-02 18:26:00,88.4,65.0,29.93,WSW,248,5.0,8.0,46,0.00,,---,0.00,VWS V14.01,2013-06-02 22:26:00,
2013-06-02 18:27:00,88.2,64.8,29.92,WSW,248,5.0,9.0,46,0.00,,---,0.00,VWS V14.01,2013-06-02 22:27:00,
2013-06-02 18:28:00,88.0,65.3,29.93,West,270,3.0,7.0,47,0.00,,---,0.00,VWS V14.01,2013-06-02 22:28:00,
2013-06-02 18:29:00,87.9,65.2,29.93,WSW,248,3.0,6.0,47,0.00,,---,0.00,VWS V14.01,2013-06-02 22:29:00,
2013-06-02 18:30:00,87.8,65.1,29.93,SSW,202,2.0,4.0,47,0.00,,---,0.00,VWS V14.01,2013-06-02 22:30:00,
2013-06-02 18:31:00,87.7,65.6,29.92,South,180,0.0,2.0,48,0.00,,---,0.00,VWS V14.01,2013-06-02 22:31:00,
2013-06-02 18:32:00,87.7,66.2,29.92,West,270,1.0,2.0,49,0.00,,---,0.00,VWS V14.01,2013-06-02 22:32:00,
2013-06-02 18:33:00,87.7,66.2,29.92,WSW,248,2.0,4.0,49,0.00,,---,0.00,VWS V14.01,2013-06-02 22:33:00,
2013-06-02 18:34:00,87.7,66.8,29.92,SSE,158,1.0,2.0,50,0.00,,---,0.00,VWS V14.01,2013-06-02 22:34:00,
2013-06-02 18:35:00,87.7,66.8,29.93,South,180,4.0,8.0,50,0.00,,---,0.00,VWS V14.01,2013-06-02 22:35:00,
2013-06-02 18:36:00,87.6,66.7,29.92,WSW,248,5.0,9.0,50,0.00,,---,0.00,VWS V14.01,2013-06-02 22:36:00,
2013-06-02 18:37:00,87.4,66.5,29.92,SW,225,5.0,8.0,50,0.00,,---,0.00,VWS V14.01,2013-06-02 22:37:00,
2013-06-02 18:38:00,87.2,66.3,29.92,SE,135,4.0,7.0,50,0.00,,---,0.00,VWS V14.01,2013-06-02 22:38:00,
2013-06-02 18:39:00,87.0,66.1,29.92,WSW,248,4.0,8.0,50,0.00,,---,0.00,VWS V14.01,2013-06-02 22:39:00,
2013-06-02 18:40:00,86.7,65.9,29.92,WSW,248,5.0,7.0,50,0.00,,---,0.00,VWS V14.01,2013-06-02 22:40:00,
2013-06-02 18:41:00,86.5,66.2,29.92,WSW,248,4.0,7.0,51,0.00,,---,0.00,VWS V14.01,2013-06-02 22:41:00,
2013-06-02 18:42:00,86.3,66.1,29.93,South,180,3.0,5.0,51,0.00,,---,0.00,VWS V14.01,2013-06-02 22:42:00,
2013-06-02 18:43:00,86.1,65.9,29.93,South,180,3.0,5.0,51,0.00,,---,0.00,VWS V14.01,2013-06-02 22:43:00,
2013-06-02 18:44:00,85.9,66.2,29.93,SW,225,3.0,4.0,52,0.00,,---,0.00,VWS V14.01,2013-06-02 22:44:00,
2013-06-02 18:45:00,85.8,66.2,29.93,West,270,2.0,5.0,52,0.00,,---,0.00,VWS V14.01,2013-06-02 22:45:00,
2013-06-02 18:46:00,85.7,66.1,29.93,NW,315,1.0,3.0,52,0.00,,---,0.00,VWS V14.01,2013-06-02 22:46:00,
2013-06-02 18:47:00,85.5,66.4,29.93,West,270,3.0,5.0,53,0.00,,---,0.00,VWS V14.01,2013-06-02 22:47:00,
2013-06-02 18:48:00,85.4,66.3,29.93,West,270,3.0,8.0,53,0.00,,---,0.00,VWS V14.01,2013-06-02 22:48:00,
2013-06-02 18:49:00,85.2,66.2,29.93,SW,225,3.0,7.0,53,0.00,,---,0.00,VWS V14.01,2013-06-02 22:49:00,
2013-06-02 18:50:00,85.2,66.7,29.93,SE,135,0.0,1.0,54,0.00,,---,0.00,VWS V14.01,2013-06-02 22:50:00,
2013-06-02 18:51:00,85.1,66.6,29.93,West,270,2.0,3.0,54,0.00,,---,0.00,VWS V14.01,2013-06-02 22:51:00,
2013-06-02 18:52:00,85.0,66.5,29.93,WSW,248,1.0,3.0,54,0.00,,---,0.00,VWS V14.01,2013-06-02 22:52:00,
2013-06-02 18:53:00,84.9,66.4,29.93,SSE,158,3.0,7.0,54,0.00,,---,0.00,VWS V14.01,2013-06-02 22:53:00,
2013-06-02 18:54:00,84.9,66.4,29.93,West,270,3.0,6.0,54,0.00,,---,0.00,VWS V14.01,2013-06-02 22:54:00,
2013-06-02 18:55:00,84.7,66.8,29.93,SSW,202,2.0,5.0,55,0.00,,---,0.00,VWS V14.01,2013-06-02 22:55:00,
2013-06-02 18:56:00,84.7,66.8,29.93,SSW,202,0.0,1.0,55,0.00,,---,0.00,VWS V14.01,2013-06-02 22:56:00,
2013-06-02 18:57:00,84.7,66.8,29.93,SSW,202,0.0,0.0,55,0.00,,---,0.00,VWS V14.01,2013-06-02 22:57:00,
2013-06-02 18:58:00,84.6,66.7,29.93,SSW,202,1.0,2.0,55,0.00,,---,0.00,VWS V14.01,2013-06-02 22:58:00,
2013-06-02 18:59:00,84.6,66.7,29.93,West,270,2.0,4.0,55,0.00,,---,0.00,VWS V14.01,2013-06-02 22:59:00,
2013-06-02 19:00:00,84.6,66.7,29.93,West,270,1.0,2.0,55,0.00,,---,0.00,VWS V14.01,2013-06-02 23:00:00,
2013-06-02 19:01:00,84.5,67.1,29.93,SE,135,1.0,1.0,56,0.00,,---,0.00,VWS V14.01,2013-06-02 23:01:00,
2013-06-02 19:02:00,84.5,67.1,29.93,West,270,1.0,3.0,56,0.00,,---,0.00,VWS V14.01,2013-06-02 23:02:00,
2013-06-02 19:03:00,84.4,67.0,29.93,South,180,3.0,5.0,56,0.00,,---,0.00,VWS V14.01,2013-06-02 23:03:00,
2013-06-02 19:04:00,84.3,67.4,29.93,WSW,248,3.0,7.0,57,0.00,,---,0.00,VWS V14.01,2013-06-02 23:04:00,
2013-06-02 19:05:00,84.2,67.3,29.93,SW,225,3.0,6.0,57,0.00,,---,0.00,VWS V14.01,2013-06-02 23:05:00,
2013-06-02 19:06:00,84.1,67.7,29.93,WSW,248,2.0,3.0,58,0.00,,---,0.00,VWS V14.01,2013-06-02 23:06:00,
2013-06-02 19:07:00,84.1,67.7,29.93,WSW,248,1.0,3.0,58,0.00,,---,0.00,VWS V14.01,2013-06-02 23:07:00,
2013-06-02 19:08:00,84.0,67.7,29.93,West,270,1.0,3.0,58,0.00,,---,0.00,VWS V14.01,2013-06-02 23:08:00,
2013-06-02 19:09:00,84.0,68.1,29.93,SE,135,3.0,7.0,59,0.00,,---,0.00,VWS V14.01,2013-06-02 23:09:00,
2013-06-02 19:10:00,84.0,68.1,29.93,SSW,202,2.0,3.0,59,0.00,,---,0.00,VWS V14.01,2013-06-02 23:10:00,
2013-06-02 19:11:00,83.9,68.1,29.93,SW,225,2.0,5.0,59,0.00,,---,0.00,VWS V14.01,2013-06-02 23:11:00,
2013-06-02 19:12:00,83.9,68.1,29.94,West,270,1.0,2.0,59,0.00,,---,0.00,VWS V14.01,2013-06-02 23:12:00,
2013-06-02 19:13:00,83.9,68.5,29.94,SE,135,2.0,3.0,60,0.00,,---,0.00,VWS V14.01,2013-06-02 23:13:00,
2013-06-02 19:14:00,83.8,68.4,29.94,SSE,158,3.0,3.0,60,0.00,,---,0.00,VWS V14.01,2013-06-02 23:14:00,
2013-06-02 19:15:00,83.8,68.4,29.94,SSW,202,1.0,2.0,60,0.00,,---,0.00,VWS V14.01,2013-06-02 23:15:00,
2013-06-02 19:16:00,83.8,68.4,29.94,West,270,1.0,3.0,60,0.00,,---,0.00,VWS V14.01,2013-06-02 23:16:00,
2013-06-02 19:17:00,83.8,68.4,29.94,WSW,248,2.0,6.0,60,0.00,,---,0.00,VWS V14.01,2013-06-02 23:17:00,
2013-06-02 19:18:00,83.8,68.4,29.94,SSE,158,3.0,4.0,60,0.00,,---,0.00,VWS V14.01,2013-06-02 23:18:00,
2013-06-02 19:19:00,83.7,68.8,29.94,SW,225,3.0,5.0,61,0.00,,---,0.00,VWS V14.01,2013-06-02 23:19:00,
2013-06-02 19:20:00,83.7,68.8,29.94,SW,225,1.0,3.0,61,0.00,,---,0.00,VWS V14.01,2013-06-02 23:20:00,
2013-06-02 19:21:00,83.7,68.8,29.94,SW,225,2.0,4.0,61,0.00,,---,0.00,VWS V14.01,2013-06-02 23:21:00,
2013-06-02 19:22:00,83.6,68.7,29.94,SSE,158,2.0,3.0,61,0.00,,---,0.00,VWS V14.01,2013-06-02 23:22:00,
2013-06-02 19:23:00,83.6,68.7,29.94,SW,225,0.0,2.0,61,0.00,,---,0.00,VWS V14.01,2013-06-02 23:23:00,
2013-06-02 19:24:00,83.6,68.7,29.94,SE,135,1.0,1.0,61,0.00,,---,0.00,VWS V14.01,2013-06-02 23:24:00,
2013-06-02 19:25:00,83.6,68.7,29.94,SSE,158,4.0,9.0,61,0.00,,---,0.00,VWS V14.01,2013-06-02 23:25:00,
2013-06-02 19:26:00,83.5,69.1,29.94,SSE,158,5.0,7.0,62,0.00,,---,0.00,VWS V14.01,2013-06-02 23:26:00,
2013-06-02 19:27:00,83.5,69.1,29.94,SSW,202,3.0,6.0,62,0.00,,---,0.00,VWS V14.01,2013-06-02 23:27:00,
2013-06-02 19:28:00,83.4,69.0,29.94,SSE,158,4.0,7.0,62,0.00,,---,0.00,VWS V14.01,2013-06-02 23:28:00,
2013-06-02 19:29:00,83.4,69.0,29.94,WNW,292,2.0,3.0,62,0.00,,---,0.00,VWS V14.01,2013-06-02 23:29:00,
2013-06-02 19:30:00,83.3,68.9,29.94,SSW,202,4.0,7.0,62,0.00,,---,0.00,VWS V14.01,2013-06-02 23:30:00,
2013-06-02 19:31:00,83.3,68.9,29.94,ESE,112,4.0,7.0,62,0.00,,---,0.00,VWS V14.01,2013-06-02 23:31:00,
2013-06-02 19:32:00,83.2,69.3,29.94,West,270,3.0,4.0,63,0.00,,---,0.00,VWS V14.01,2013-06-02 23:32:00,
2013-06-02 19:33:00,83.2,69.3,29.94,SSE,158,3.0,4.0,63,0.00,,---,0.00,VWS V14.01,2013-06-02 23:33:00,
2013-06-02 19:34:00,83.1,69.2,29.94,SW,225,2.0,3.0,63,0.00,,---,0.00,VWS V14.01,2013-06-02 23:34:00,
2013-06-02 19:35:00,83.1,69.2,29.94,East,90,2.0,3.0,63,0.00,,---,0.00,VWS V14.01,2013-06-02 23:35:00,
2013-06-02 19:36:00,83.1,69.2,29.94,West,270,2.0,3.0,63,0.00,,---,0.00,VWS V14.01,2013-06-02 23:36:00,
2013-06-02 19:37:00,83.0,69.1,29.94,WSW,248,1.0,3.0,63,0.00,,---,0.00,VWS V14.01,2013-06-02 23:37:00,
2013-06-02 19:38:00,83.0,69.1,29.94,SSW,202,2.0,3.0,63,0.00,,---,0.00,VWS V14.01,2013-06-02 23:38:00,
2013-06-02 19:39:00,82.9,69.0,29.95,WSW,248,1.0,3.0,63,0.00,,---,0.00,VWS V14.01,2013-06-02 23:39:00,
2013-06-02 19:40:00,82.9,69.0,29.95,SSE,158,2.0,4.0,63,0.00,,---,0.00,VWS V14.01,2013-06-02 23:40:00,
2013-06-02 19:41:00,82.9,69.0,29.95,West,270,3.0,5.0,63,0.00,,---,0.00,VWS V14.01,2013-06-02 23:41:00,
2013-06-02 19:42:00,82.9,69.5,29.95,SW,225,3.0,5.0,64,0.00,,---,0.00,VWS V14.01,2013-06-02 23:42:00,
2013-06-02 19:43:00,82.8,69.4,29.95,SE,135,2.0,3.0,64,0.00,,---,0.00,VWS V14.01,2013-06-02 23:43:00,
2013-06-02 19:44:00,82.8,69.4,29.95,SSE,158,1.0,2.0,64,0.00,,---,0.00,VWS V14.01,2013-06-02 23:44:00,
2013-06-02 19:45:00,82.7,69.3,29.95,SSE,158,1.0,1.0,64,0.00,,---,0.00,VWS V14.01,2013-06-02 23:45:00,
2013-06-02 19:46:00,82.8,69.4,29.95,West,270,1.0,1.0,64,0.00,,---,0.00,VWS V14.01,2013-06-02 23:46:00,
2013-06-02 19:47:00,82.7,69.3,29.95,WSW,248,2.0,3.0,64,0.00,,---,0.00,VWS V14.01,2013-06-02 23:47:00,
2013-06-02 19:48:00,82.7,69.3,29.95,West,270,1.0,3.0,64,0.00,,---,0.00,VWS V14.01,2013-06-02 23:48:00,
2013-06-02 19:49:00,82.6,69.2,29.95,West,270,2.0,5.0,64,0.00,,---,0.00,VWS V14.01,2013-06-02 23:49:00,
2013-06-02 19:50:00,82.6,69.2,29.95,SSE,158,1.0,4.0,64,0.00,,---,0.00,VWS V14.01,2013-06-02 23:50:00,
2013-06-02 19:51:00,82.5,69.6,29.95,ENE,68,1.0,1.0,65,0.00,,---,0.00,VWS V14.01,2013-06-02 23:51:00,
2013-06-02 19:52:00,82.5,69.6,29.95,West,270,1.0,1.0,65,0.00,,---,0.00,VWS V14.01,2013-06-02 23:52:00,
2013-06-02 19:53:00,82.5,69.6,29.95,WSW,248,2.0,5.0,65,0.00,,---,0.00,VWS V14.01,2013-06-02 23:53:00,
2013-06-02 19:54:00,82.4,69.5,29.95,SW,225,3.0,4.0,65,0.00,,---,0.00,VWS V14.01,2013-06-02 23:54:00,
2013-06-02 19:55:00,82.4,69.5,29.95,SSW,202,4.0,7.0,65,0.00,,---,0.00,VWS V14.01,2013-06-02 23:55:00,
2013-06-02 19:56:00,82.3,69.4,29.95,WNW,292,5.0,11.0,65,0.00,,---,0.00,VWS V14.01,2013-06-02 23:56:00,
2013-06-02 19:57:00,82.3,69.4,29.95,South,180,6.0,10.0,65,0.00,,---,0.00,VWS V14.01,2013-06-02 23:57:00,
2013-06-02 19:58:00,82.2,69.3,29.95,SW,225,3.0,5.0,65,0.00,,---,0.00,VWS V14.01,2013-06-02 23:58:00,
2013-06-02 19:59:00,82.1,69.2,29.95,South,180,5.0,7.0,65,0.00,,---,0.00,VWS V14.01,2013-06-02 23:59:00,
2013-06-02 20:00:00,82.1,69.6,29.95,WNW,292,3.0,9.0,66,0.00,,---,0.00,VWS V14.01,2013-06-03 00:00:00,
2013-06-02 20:01:00,82.1,69.6,29.95,WSW,248,2.0,4.0,66,0.00,,---,0.00,VWS V14.01,2013-06-03 00:01:00,
2013-06-02 20:02:00,82.0,69.5,29.95,SSE,158,5.0,7.0,66,0.00,,---,0.00,VWS V14.01,2013-06-03 00:02:00,
2013-06-02 20:03:00,82.0,69.5,29.95,SSE,158,3.0,5.0,66,0.00,,---,0.00,VWS V14.01,2013-06-03 00:03:00,
2013-06-02 20:04:00,81.9,69.4,29.95,South,180,3.0,7.0,66,0.00,,---,0.00,VWS V14.01,2013-06-03 00:04:00,
2013-06-02 20:05:00,81.9,69.4,29.95,SE,135,3.0,6.0,66,0.00,,---,0.00,VWS V14.01,2013-06-03 00:05:00,
2013-06-02 20:06:00,81.9,69.4,29.95,SSW,202,3.0,6.0,66,0.00,,---,0.00,VWS V14.01,2013-06-03 00:06:00,
2013-06-02 20:07:00,81.8,69.3,29.95,SW,225,3.0,6.0,66,0.00,,---,0.00,VWS V14.01,2013-06-03 00:07:00,
2013-06-02 20:08:00,81.8,69.3,29.95,SW,225,5.0,7.0,66,0.00,,---,0.00,VWS V14.01,2013-06-03 00:08:00,
2013-06-02 20:09:00,81.7,69.2,29.95,WSW,248,1.0,2.0,66,0.00,,---,0.00,VWS V14.01,2013-06-03 00:09:00,
2013-06-02 20:10:00,81.7,69.2,29.96,SSW,202,6.0,10.0,66,0.00,,---,0.00,VWS V14.01,2013-06-03 00:10:00,
2013-06-02 20:11:00,81.6,69.2,29.96,WSW,248,3.0,7.0,66,0.00,,---,0.00,VWS V14.01,2013-06-03 00:11:00,
2013-06-02 20:12:00,81.6,69.2,29.96,SW,225,2.0,3.0,66,0.00,,---,0.00,VWS V14.01,2013-06-03 00:12:00,
2013-06-02 20:13:00,81.6,69.2,29.96,West,270,2.0,4.0,66,0.00,,---,0.00,VWS V14.01,2013-06-03 00:13:00,
2013-06-02 20:14:00,81.5,69.1,29.96,West,270,2.0,3.0,66,0.00,,---,0.00,VWS V14.01,2013-06-03 00:14:00,
2013-06-02 20:15:00,81.5,69.1,29.96,SSE,158,2.0,2.0,66,0.00,,---,0.00,VWS V14.01,2013-06-03 00:15:00,
2013-06-02 20:16:00,81.5,69.5,29.96,SW,225,2.0,4.0,67,0.00,,---,0.00,VWS V14.01,2013-06-03 00:16:00,
2013-06-02 20:17:00,81.4,69.4,29.96,West,270,2.0,3.0,67,0.00,,---,0.00,VWS V14.01,2013-06-03 00:17:00,
2013-06-02 20:18:00,81.4,69.4,29.96,West,270,1.0,2.0,67,0.00,,---,0.00,VWS V14.01,2013-06-03 00:18:00,
2013-06-02 20:19:00,81.4,69.4,29.96,South,180,2.0,4.0,67,0.00,,---,0.00,VWS V14.01,2013-06-03 00:19:00,
2013-06-02 20:20:00,81.4,69.4,29.96,WSW,248,2.0,3.0,67,0.00,,---,0.00,VWS V14.01,2013-06-03 00:20:00,
2013-06-02 20:21:00,81.4,69.4,29.96,West,270,3.0,5.0,67,0.00,,---,0.00,VWS V14.01,2013-06-03 00:21:00,
2013-06-02 20:22:00,81.3,69.3,29.95,SSW,202,4.0,6.0,67,0.00,,---,0.00,VWS V14.01,2013-06-03 00:22:00,
2013-06-02 20:23:00,81.3,69.3,29.96,West,270,3.0,5.0,67,0.00,,---,0.00,VWS V14.01,2013-06-03 00:23:00,
2013-06-02 20:24:00,81.2,69.2,29.96,SW,225,3.0,4.0,67,0.00,,---,0.00,VWS V14.01,2013-06-03 00:24:00,
2013-06-02 20:25:00,81.2,69.2,29.96,West,270,1.0,3.0,67,0.00,,---,0.00,VWS V14.01,2013-06-03 00:25:00,
2013-06-02 20:26:00,81.2,69.2,29.96,West,270,4.0,7.0,67,0.00,,---,0.00,VWS V14.01,2013-06-03 00:26:00,
2013-06-02 20:27:00,81.1,69.1,29.96,SSW,202,5.0,7.0,67,0.00,,---,0.00,VWS V14.01,2013-06-03 00:27:00,
2013-06-02 20:28:00,81.0,69.4,29.96,WSW,248,4.0,9.0,68,0.00,,---,0.00,VWS V14.01,2013-06-03 00:28:00,
2013-06-02 20:29:00,81.0,69.4,29.96,WSW,248,2.0,3.0,68,0.00,,---,0.00,VWS V14.01,2013-06-03 00:29:00,
2013-06-02 20:30:00,81.0,69.4,29.96,SE,135,3.0,7.0,68,0.00,,---,0.00,VWS V14.01,2013-06-03 00:30:00,
2013-06-02 20:31:00,80.9,69.4,29.96,West,270,4.0,7.0,68,0.00,,---,0.00,VWS V14.01,2013-06-03 00:31:00,
2013-06-02 20:32:00,80.8,69.3,29.96,WSW,248,5.0,9.0,68,0.00,,---,0.00,VWS V14.01,2013-06-03 00:32:00,
2013-06-02 20:33:00,80.8,69.3,29.96,West,270,6.0,12.0,68,0.00,,---,0.00,VWS V14.01,2013-06-03 00:33:00,
2013-06-02 20:34:00,80.7,69.2,29.96,WSW,248,4.0,6.0,68,0.00,,---,0.00,VWS V14.01,2013-06-03 00:34:00,
2013-06-02 20:35:00,80.7,69.2,29.96,West,270,4.0,10.0,68,0.00,,---,0.00,VWS V14.01,2013-06-03 00:35:00,
2013-06-02 20:36:00,80.6,69.1,29.96,West,270,2.0,3.0,68,0.00,,---,0.00,VWS V14.01,2013-06-03 00:36:00,
2013-06-02 20:37:00,80.6,69.1,29.96,ENE,68,2.0,3.0,68,0.00,,---,0.00,VWS V14.01,2013-06-03 00:37:00,
2013-06-02 20:38:00,80.5,69.0,29.96,WSW,248,2.0,5.0,68,0.00,,---,0.00,VWS V14.01,2013-06-03 00:38:00,
2013-06-02 20:39:00,80.5,69.0,29.96,SSE,158,4.0,7.0,68,0.00,,---,0.00,VWS V14.01,2013-06-03 00:39:00,
2013-06-02 20:40:00,80.5,69.0,29.96,WSW,248,4.0,6.0,68,0.00,,---,0.00,VWS V14.01,2013-06-03 00:40:00,
2013-06-02 20:41:00,80.4,68.9,29.96,West,270,4.0,8.0,68,0.00,,---,0.00,VWS V14.01,2013-06-03 00:41:00,
2013-06-02 20:42:00,80.4,69.3,29.96,WSW,248,2.0,3.0,69,0.00,,---,0.00,VWS V14.01,2013-06-03 00:42:00,
2013-06-02 20:43:00,80.3,69.2,29.96,West,270,4.0,10.0,69,0.00,,---,0.00,VWS V14.01,2013-06-03 00:43:00,
2013-06-02 20:44:00,80.3,69.2,29.96,West,270,6.0,11.0,69,0.00,,---,0.00,VWS V14.01,2013-06-03 00:44:00,
2013-06-02 20:45:00,80.2,69.1,29.96,SW,225,2.0,4.0,69,0.00,,---,0.00,VWS V14.01,2013-06-03 00:45:00,
2013-06-02 20:46:00,80.1,69.0,29.96,SW,225,3.0,7.0,69,0.00,,---,0.00,VWS V14.01,2013-06-03 00:46:00,
2013-06-02 20:47:00,80.1,69.0,29.96,South,180,2.0,5.0,69,0.00,,---,0.00,VWS V14.01,2013-06-03 00:47:00,
2013-06-02 20:48:00,80.1,69.0,29.96,South,180,2.0,3.0,69,0.00,,---,0.00,VWS V14.01,2013-06-03 00:48:00,
2013-06-02 20:49:00,80.0,68.9,29.96,SSE,158,2.0,3.0,69,0.00,,---,0.00,VWS V14.01,2013-06-03 00:49:00,
2013-06-02 20:50:00,80.0,68.9,29.96,SSE,158,3.0,4.0,69,0.00,,---,0.00,VWS V14.01,2013-06-03 00:50:00,
2013-06-02 20:51:00,79.9,68.8,29.96,WSW,248,1.0,3.0,69,0.00,,---,0.00,VWS V14.01,2013-06-03 00:51:00,
2013-06-02 20:52:00,79.9,68.8,29.96,South,180,3.0,6.0,69,0.00,,---,0.00,VWS V14.01,2013-06-03 00:52:00,
2013-06-02 20:53:00,79.8,68.7,29.96,SW,225,5.0,8.0,69,0.00,,---,0.00,VWS V14.01,2013-06-03 00:53:00,
2013-06-02 20:54:00,79.8,69.2,29.96,West,270,2.0,4.0,70,0.00,,---,0.00,VWS V14.01,2013-06-03 00:54:00,
2013-06-02 20:55:00,79.8,69.2,29.96,WSW,248,1.0,2.0,70,0.00,,---,0.00,VWS V14.01,2013-06-03 00:55:00,
2013-06-02 20:56:00,79.7,69.1,29.96,ESE,112,2.0,3.0,70,0.00,,---,0.00,VWS V14.01,2013-06-03 00:56:00,
2013-06-02 20:57:00,79.7,69.1,29.96,South,180,4.0,8.0,70,0.00,,---,0.00,VWS V14.01,2013-06-03 00:57:00,
2013-06-02 20:58:00,79.6,69.0,29.96,WNW,292,2.0,3.0,70,0.00,,---,0.00,VWS V14.01,2013-06-03 00:58:00,
2013-06-02 20:59:00,79.6,69.0,29.96,WSW,248,1.0,2.0,70,0.00,,---,0.00,VWS V14.01,2013-06-03 00:59:00,
2013-06-02 21:00:00,79.6,69.0,29.96,SE,135,2.0,4.0,70,0.00,,---,0.00,VWS V14.01,2013-06-03 01:00:00,
2013-06-02 21:01:00,79.5,68.9,29.96,SSW,202,4.0,7.0,70,0.00,,---,0.00,VWS V14.01,2013-06-03 01:01:00,
2013-06-02 21:02:00,79.5,68.9,29.96,East,90,4.0,11.0,70,0.00,,---,0.00,VWS V14.01,2013-06-03 01:02:00,
2013-06-02 21:03:00,79.4,68.8,29.96,South,180,3.0,6.0,70,0.00,,---,0.00,VWS V14.01,2013-06-03 01:03:00,
2013-06-02 21:04:00,79.4,68.8,29.96,East,90,2.0,5.0,70,0.00,,---,0.00,VWS V14.01,2013-06-03 01:04:00,
2013-06-02 21:05:00,79.3,68.7,29.96,SW,225,2.0,5.0,70,0.00,,---,0.00,VWS V14.01,2013-06-03 01:05:00,
2013-06-02 21:06:00,79.3,68.7,29.96,SSE,158,4.0,7.0,70,0.00,,---,0.00,VWS V14.01,2013-06-03 01:06:00,
2013-06-02 21:07:00,79.3,68.7,29.96,SSW,202,3.0,6.0,70,0.00,,---,0.00,VWS V14.01,2013-06-03 01:07:00,
2013-06-02 21:08:00,79.2,69.0,29.96,West,270,0.0,2.0,71,0.00,,---,0.00,VWS V14.01,2013-06-03 01:08:00,
2013-06-02 21:09:00,79.2,69.0,29.96,South,180,5.0,9.0,71,0.00,,---,0.00,VWS V14.01,2013-06-03 01:09:00,
2013-06-02 21:10:00,79.2,69.0,29.96,South,180,2.0,4.0,71,0.00,,---,0.00,VWS V14.01,2013-06-03 01:10:00,
2013-06-02 21:11:00,79.1,68.9,29.96,SW,225,3.0,5.0,71,0.00,,---,0.00,VWS V14.01,2013-06-03 01:11:00,
2013-06-02 21:12:00,79.0,68.8,29.96,SW,225,2.0,3.0,71,0.00,,---,0.00,VWS V14.01,2013-06-03 01:12:00,
2013-06-02 21:13:00,79.0,68.8,29.96,West,270,3.0,5.0,71,0.00,,---,0.00,VWS V14.01,2013-06-03 01:13:00,
2013-06-02 21:14:00,79.0,68.8,29.96,SE,135,4.0,8.0,71,0.00,,---,0.00,VWS V14.01,2013-06-03 01:14:00,
2013-06-02 21:15:00,78.9,68.7,29.96,South,180,3.0,8.0,71,0.00,,---,0.00,VWS V14.01,2013-06-03 01:15:00,
2013-06-02 21:16:00,78.9,68.7,29.96,WSW,248,2.0,6.0,71,0.00,,---,0.00,VWS V14.01,2013-06-03 01:16:00,
2013-06-02 21:17:00,78.9,68.7,29.96,West,270,2.0,3.0,71,0.00,,---,0.00,VWS V14.01,2013-06-03 01:17:00,
2013-06-02 21:18:00,78.8,68.6,29.96,SSW,202,1.0,1.0,71,0.00,,---,0.00,VWS V14.01,2013-06-03 01:18:00,
2013-06-02 21:19:00,78.8,68.6,29.95,South,180,2.0,8.0,71,0.00,,---,0.00,VWS V14.01,2013-06-03 01:19:00,
2013-06-02 21:20:00,78.8,68.6,29.96,SSW,202,2.0,4.0,71,0.00,,---,0.00,VWS V14.01,2013-06-03 01:20:00,
2013-06-02 21:21:00,78.8,68.6,29.96,SSE,158,3.0,6.0,71,0.00,,---,0.00,VWS V14.01,2013-06-03 01:21:00,
2013-06-02 21:22:00,78.7,68.5,29.96,WSW,248,2.0,3.0,71,0.00,,---,0.00,VWS V14.01,2013-06-03 01:22:00,
2013-06-02 21:23:00,78.7,68.5,29.96,ESE,112,3.0,4.0,71,0.00,,---,0.00,VWS V14.01,2013-06-03 01:23:00,
2013-06-02 21:24:00,78.7,68.5,29.95,SSW,202,1.0,2.0,71,0.00,,---,0.00,VWS V14.01,2013-06-03 01:24:00,
2013-06-02 21:25:00,78.6,68.8,29.95,West,270,1.0,3.0,72,0.00,,---,0.00,VWS V14.01,2013-06-03 01:25:00,
2013-06-02 21:26:00,78.6,68.8,29.95,SSW,202,3.0,6.0,72,0.00,,---,0.00,VWS V14.01,2013-06-03 01:26:00,
2013-06-02 21:27:00,78.6,68.8,29.95,SE,135,2.0,5.0,72,0.00,,---,0.00,VWS V14.01,2013-06-03 01:27:00,
2013-06-02 21:28:00,78.5,68.7,29.95,SSE,158,4.0,7.0,72,0.00,,---,0.00,VWS V14.01,2013-06-03 01:28:00,
2013-06-02 21:29:00,78.5,68.7,29.95,ESE,112,2.0,5.0,72,0.00,,---,0.00,VWS V14.01,2013-06-03 01:29:00,
2013-06-02 21:30:00,78.5,68.7,29.95,SSE,158,3.0,5.0,72,0.00,,---,0.00,VWS V14.01,2013-06-03 01:30:00,
2013-06-02 21:31:00,78.4,68.6,29.95,SSW,202,3.0,4.0,72,0.00,,---,0.00,VWS V14.01,2013-06-03 01:31:00,
2013-06-02 21:32:00,78.4,68.6,29.95,SE,135,3.0,5.0,72,0.00,,---,0.00,VWS V14.01,2013-06-03 01:32:00,
2013-06-02 21:33:00,78.4,68.6,29.95,SSE,158,4.0,6.0,72,0.00,,---,0.00,VWS V14.01,2013-06-03 01:33:00,
2013-06-02 21:34:00,78.3,68.5,29.95,SW,225,3.0,4.0,72,0.00,,---,0.00,VWS V14.01,2013-06-03 01:34:00,
2013-06-02 21:35:00,78.3,68.5,29.95,SSE,158,5.0,12.0,72,0.00,,---,0.00,VWS V14.01,2013-06-03 01:35:00,
2013-06-02 21:36:00,78.3,68.5,29.95,South,180,4.0,7.0,72,0.00,,---,0.00,VWS V14.01,2013-06-03 01:36:00,
2013-06-02 21:37:00,78.2,68.4,29.95,SE,135,4.0,6.0,72,0.00,,---,0.00,VWS V14.01,2013-06-03 01:37:00,
2013-06-02 21:38:00,78.2,68.4,29.95,SE,135,3.0,6.0,72,0.00,,---,0.00,VWS V14.01,2013-06-03 01:38:00,
2013-06-02 21:39:00,78.1,68.8,29.95,West,270,1.0,3.0,73,0.00,,---,0.00,VWS V14.01,2013-06-03 01:39:00,
2013-06-02 21:40:00,78.1,68.8,29.95,West,270,3.0,3.0,73,0.00,,---,0.00,VWS V14.01,2013-06-03 01:40:00,
2013-06-02 21:41:00,78.1,68.8,29.95,WSW,248,2.0,4.0,73,0.00,,---,0.00,VWS V14.01,2013-06-03 01:41:00,
2013-06-02 21:42:00,78.1,68.8,29.95,SSE,158,4.0,6.0,73,0.00,,---,0.00,VWS V14.01,2013-06-03 01:42:00,
2013-06-02 21:43:00,78.0,68.7,29.95,SSE,158,2.0,4.0,73,0.00,,---,0.00,VWS V14.01,2013-06-03 01:43:00,
2013-06-02 21:44:00,78.0,68.7,29.95,SW,225,2.0,7.0,73,0.00,,---,0.00,VWS V14.01,2013-06-03 01:44:00,
2013-06-02 21:45:00,77.9,68.6,29.95,SSE,158,3.0,5.0,73,0.00,,---,0.00,VWS V14.01,2013-06-03 01:45:00,
2013-06-02 21:46:00,77.9,68.6,29.95,SSE,158,4.0,9.0,73,0.00,,---,0.00,VWS V14.01,2013-06-03 01:46:00,
2013-06-02 21:47:00,77.9,68.6,29.95,SE,135,3.0,6.0,73,0.00,,---,0.00,VWS V14.01,2013-06-03 01:47:00,
2013-06-02 21:48:00,77.8,68.5,29.95,East,90,1.0,6.0,73,0.00,,---,0.00,VWS V14.01,2013-06-03 01:48:00,
2013-06-02 21:49:00,77.8,68.5,29.94,West,270,3.0,4.0,73,0.00,,---,0.00,VWS V14.01,2013-06-03 01:49:00,
2013-06-02 21:50:00,77.7,68.8,29.94,WSW,248,2.0,5.0,74,0.00,,---,0.00,VWS V14.01,2013-06-03 01:50:00,
2013-06-02 21:51:00,77.7,68.8,29.94,SSE,158,2.0,4.0,74,0.00,,---,0.00,VWS V14.01,2013-06-03 01:51:00,
2013-06-02 21:52:00,77.7,68.8,29.95,SW,225,2.0,4.0,74,0.00,,---,0.00,VWS V14.01,2013-06-03 01:52:00,
2013-06-02 21:53:00,77.7,68.8,29.94,West,270,2.0,3.0,74,0.00,,---,0.00,VWS V14.01,2013-06-03 01:53:00,
2013-06-02 21:54:00,77.6,68.7,29.95,SSW,202,2.0,3.0,74,0.00,,---,0.00,VWS V14.01,2013-06-03 01:54:00,
2013-06-02 21:55:00,77.6,68.7,29.95,ESE,112,2.0,3.0,74,0.00,,---,0.00,VWS V14.01,2013-06-03 01:55:00,
2013-06-02 21:56:00,77.6,68.7,29.95,SW,225,1.0,2.0,74,0.00,,---,0.00,VWS V14.01,2013-06-03 01:56:00,
2013-06-02 21:57:00,77.5,68.6,29.95,SSE,158,2.0,4.0,74,0.00,,---,0.00,VWS V14.01,2013-06-03 01:57:00,
2013-06-02 21:58:00,77.5,68.6,29.95,WSW,248,2.0,4.0,74,0.00,,---,0.00,VWS V14.01,2013-06-03 01:58:00,
2013-06-02 21:59:00,77.5,69.0,29.95,SW,225,1.0,3.0,75,0.00,,---,0.00,VWS V14.01,2013-06-03 01:59:00,
2013-06-02 22:00:00,77.5,69.0,29.95,WSW,248,1.0,4.0,75,0.00,,---,0.00,VWS V14.01,2013-06-03 02:00:00,
2013-06-02 22:01:00,77.4,68.9,29.95,WSW,248,3.0,7.0,75,0.00,,---,0.00,VWS V14.01,2013-06-03 02:01:00,
2013-06-02 22:02:00,77.4,68.9,29.95,West,270,5.0,12.0,75,0.00,,---,0.00,VWS V14.01,2013-06-03 02:02:00,
2013-06-02 22:03:00,77.4,68.9,29.95,SW,225,3.0,5.0,75,0.00,,---,0.00,VWS V14.01,2013-06-03 02:03:00,
2013-06-02 22:04:00,77.3,68.8,29.95,SSE,158,4.0,7.0,75,0.00,,---,0.00,VWS V14.01,2013-06-03 02:04:00,
2013-06-02 22:05:00,77.3,68.8,29.95,SSE,158,6.0,13.0,75,0.00,,---,0.00,VWS V14.01,2013-06-03 02:05:00,
2013-06-02 22:06:00,77.2,68.7,29.95,SW,225,3.0,5.0,75,0.00,,---,0.00,VWS V14.01,2013-06-03 02:06:00,
2013-06-02 22:07:00,77.2,69.1,29.95,SSE,158,5.0,8.0,76,0.00,,---,0.00,VWS V14.01,2013-06-03 02:07:00,
2013-06-02 22:08:00,77.2,69.1,29.95,WNW,292,4.0,8.0,76,0.00,,---,0.00,VWS V14.01,2013-06-03 02:08:00,
2013-06-02 22:09:00,77.1,69.0,29.95,WSW,248,6.0,11.0,76,0.00,,---,0.00,VWS V14.01,2013-06-03 02:09:00,
2013-06-02 22:10:00,77.1,69.0,29.95,West,270,3.0,7.0,76,0.00,,---,0.00,VWS V14.01,2013-06-03 02:10:00,
2013-06-02 22:11:00,77.1,69.0,29.95,WSW,248,3.0,5.0,76,0.00,,---,0.00,VWS V14.01,2013-06-03 02:11:00,
2013-06-02 22:12:00,77.0,68.9,29.95,SSW,202,4.0,6.0,76,0.00,,---,0.00,VWS V14.01,2013-06-03 02:12:00,
2013-06-02 22:13:00,77.0,68.9,29.96,SW,225,4.0,7.0,76,0.00,,---,0.00,VWS V14.01,2013-06-03 02:13:00,
2013-06-02 22:14:00,77.0,68.9,29.96,WNW,292,3.0,5.0,76,0.00,,---,0.00,VWS V14.01,2013-06-03 02:14:00,
2013-06-02 22:15:00,76.9,68.8,29.96,South,180,2.0,6.0,76,0.00,,---,0.00,VWS V14.01,2013-06-03 02:15:00,
2013-06-02 22:16:00,76.9,69.2,29.96,WSW,248,3.0,7.0,77,0.00,,---,0.00,VWS V14.01,2013-06-03 02:16:00,
2013-06-02 22:17:00,76.9,69.2,29.96,WSW,248,3.0,6.0,77,0.00,,---,0.00,VWS V14.01,2013-06-03 02:17:00,
2013-06-02 22:18:00,76.9,69.2,29.96,South,180,5.0,6.0,77,0.00,,---,0.00,VWS V14.01,2013-06-03 02:18:00,
2013-06-02 22:19:00,76.8,69.1,29.96,SW,225,4.0,5.0,77,0.00,,---,0.00,VWS V14.01,2013-06-03 02:19:00,
2013-06-02 22:20:00,76.8,69.1,29.96,SW,225,3.0,5.0,77,0.00,,---,0.00,VWS V14.01,2013-06-03 02:20:00,
2013-06-02 22:21:00,76.8,69.1,29.96,SW,225,3.0,5.0,77,0.00,,---,0.00,VWS V14.01,2013-06-03 02:21:00,
2013-06-02 22:22:00,76.8,69.1,29.96,ENE,68,3.0,5.0,77,0.00,,---,0.00,VWS V14.01,2013-06-03 02:22:00,
2013-06-02 22:23:00,76.8,69.1,29.96,SW,225,5.0,9.0,77,0.00,,---,0.00,VWS V14.01,2013-06-03 02:23:00,
2013-06-02 22:24:00,76.7,68.9,29.96,SW,225,5.0,10.0,77,0.00,,---,0.00,VWS V14.01,2013-06-03 02:24:00,
2013-06-02 22:25:00,76.7,68.9,29.96,West,270,5.0,8.0,77,0.00,,---,0.00,VWS V14.01,2013-06-03 02:25:00,
2013-06-02 22:26:00,76.7,68.9,29.96,WNW,292,5.0,12.0,77,0.00,,---,0.00,VWS V14.01,2013-06-03 02:26:00,
2013-06-02 22:27:00,76.7,68.9,29.96,SSW,202,4.0,8.0,77,0.00,,---,0.00,VWS V14.01,2013-06-03 02:27:00,
2013-06-02 22:28:00,76.6,68.9,29.96,SW,225,5.0,10.0,77,0.00,,---,0.00,VWS V14.01,2013-06-03 02:28:00,
2013-06-02 22:29:00,76.6,68.9,29.96,WNW,292,4.0,5.0,77,0.00,,---,0.00,VWS V14.01,2013-06-03 02:29:00,
2013-06-02 22:30:00,76.6,68.9,29.96,West,270,5.0,8.0,77,0.00,,---,0.00,VWS V14.01,2013-06-03 02:30:00,
2013-06-02 22:31:00,76.5,69.1,29.97,SW,225,5.0,7.0,78,0.00,,---,0.00,VWS V14.01,2013-06-03 02:31:00,
2013-06-02 22:32:00,76.5,69.1,29.97,SSW,202,3.0,7.0,78,0.00,,---,0.00,VWS V14.01,2013-06-03 02:32:00,
2013-06-02 22:33:00,76.5,69.1,29.97,West,270,4.0,6.0,78,0.00,,---,0.00,VWS V14.01,2013-06-03 02:33:00,
2013-06-02 22:34:00,76.5,69.1,29.97,SW,225,2.0,6.0,78,0.00,,---,0.00,VWS V14.01,2013-06-03 02:34:00,
2013-06-02 22:35:00,76.5,69.1,29.97,ESE,112,4.0,8.0,78,0.00,,---,0.00,VWS V14.01,2013-06-03 02:35:00,
2013-06-02 22:36:00,76.4,69.0,29.97,SSW,202,4.0,9.0,78,0.00,,---,0.00,VWS V14.01,2013-06-03 02:36:00,
2013-06-02 22:37:00,76.4,69.0,29.97,WSW,248,4.0,7.0,78,0.00,,---,0.00,VWS V14.01,2013-06-03 02:37:00,
2013-06-02 22:38:00,76.4,69.0,29.97,West,270,3.0,8.0,78,0.00,,---,0.00,VWS V14.01,2013-06-03 02:38:00,
2013-06-02 22:39:00,76.4,69.0,29.97,WSW,248,2.0,6.0,78,0.00,,---,0.00,VWS V14.01,2013-06-03 02:39:00,
2013-06-02 22:40:00,76.4,69.0,29.97,WSW,248,3.0,5.0,78,0.00,,---,0.00,VWS V14.01,2013-06-03 02:40:00,
2013-06-02 22:41:00,76.3,68.9,29.97,WNW,292,2.0,4.0,78,0.00,,---,0.00,VWS V14.01,2013-06-03 02:41:00,
2013-06-02 22:42:00,76.3,68.9,29.97,West,270,1.0,5.0,78,0.00,,---,0.00,VWS V14.01,2013-06-03 02:42:00,
2013-06-02 22:43:00,76.3,68.9,29.97,SW,225,5.0,10.0,78,0.00,,---,0.00,VWS V14.01,2013-06-03 02:43:00,
2013-06-02 22:44:00,76.3,68.9,29.97,West,270,1.0,2.0,78,0.00,,---,0.00,VWS V14.01,2013-06-03 02:44:00,
2013-06-02 22:45:00,76.3,68.9,29.97,NNE,22,3.0,7.0,78,0.00,,---,0.00,VWS V14.01,2013-06-03 02:45:00,
2013-06-02 22:46:00,76.3,68.9,29.97,West,270,5.0,10.0,78,0.00,,---,0.00,VWS V14.01,2013-06-03 02:46:00,
2013-06-02 22:47:00,76.2,69.2,29.97,SW,225,4.0,6.0,79,0.00,,---,0.00,VWS V14.01,2013-06-03 02:47:00,
2013-06-02 22:48:00,76.2,69.2,29.97,SSW,202,6.0,9.0,79,0.00,,---,0.00,VWS V14.01,2013-06-03 02:48:00,
2013-06-02 22:49:00,76.2,69.2,29.97,SW,225,5.0,7.0,79,0.00,,---,0.00,VWS V14.01,2013-06-03 02:49:00,
2013-06-02 22:50:00,76.2,69.2,29.97,WSW,248,4.0,8.0,79,0.00,,---,0.00,VWS V14.01,2013-06-03 02:50:00,
2013-06-02 22:51:00,76.1,69.1,29.98,WSW,248,4.0,8.0,79,0.00,,---,0.00,VWS V14.01,2013-06-03 02:51:00,
2013-06-02 22:52:00,76.1,69.1,29.97,WSW,248,3.0,5.0,79,0.00,,---,0.00,VWS V14.01,2013-06-03 02:52:00,
2013-06-02 22:53:00,76.1,69.1,29.97,South,180,3.0,5.0,79,0.00,,---,0.00,VWS V14.01,2013-06-03 02:53:00,
2013-06-02 22:54:00,76.1,69.1,29.97,SW,225,3.0,6.0,79,0.00,,---,0.00,VWS V14.01,2013-06-03 02:54:00,
2013-06-02 22:55:00,76.1,69.1,29.97,WSW,248,2.0,3.0,79,0.00,,---,0.00,VWS V14.01,2013-06-03 02:55:00,
2013-06-02 22:56:00,76.1,69.1,29.98,WNW,292,2.0,3.0,79,0.00,,---,0.00,VWS V14.01,2013-06-03 02:56:00,
2013-06-02 22:57:00,76.0,69.0,29.97,NW,315,1.0,4.0,79,0.00,,---,0.00,VWS V14.01,2013-06-03 02:57:00,
2013-06-02 22:58:00,76.0,69.0,29.98,WSW,248,1.0,2.0,79,0.00,,---,0.00,VWS V14.01,2013-06-03 02:58:00,
2013-06-02 22:59:00,76.0,69.0,29.98,WSW,248,1.0,3.0,79,0.00,,---,0.00,VWS V14.01,2013-06-03 02:59:00,
2013-06-02 23:00:00,76.0,69.0,29.97,West,270,2.0,5.0,79,0.00,,---,0.00,VWS V14.01,2013-06-03 03:00:00,
2013-06-02 23:01:00,76.0,69.0,29.98,SW,225,3.0,5.0,79,0.00,,---,0.00,VWS V14.01,2013-06-03 03:01:00,
2013-06-02 23:02:00,75.9,69.3,29.98,SW,225,2.0,3.0,80,0.00,,---,0.00,VWS V14.01,2013-06-03 03:02:00,
2013-06-02 23:03:00,75.9,69.3,29.98,West,270,1.0,2.0,80,0.00,,---,0.00,VWS V14.01,2013-06-03 03:03:00,
2013-06-02 23:04:00,75.9,69.3,29.98,SW,225,3.0,6.0,80,0.00,,---,0.00,VWS V14.01,2013-06-03 03:04:00,
2013-06-02 23:05:00,75.9,69.3,29.98,West,270,2.0,5.0,80,0.00,,---,0.00,VWS V14.01,2013-06-03 03:05:00,
2013-06-02 23:06:00,75.9,69.3,29.98,West,270,4.0,9.0,80,0.00,,---,0.00,VWS V14.01,2013-06-03 03:06:00,
2013-06-02 23:07:00,75.8,69.2,29.98,WSW,248,2.0,5.0,80,0.00,,---,0.00,VWS V14.01,2013-06-03 03:07:00,
2013-06-02 23:08:00,75.8,69.2,29.98,SSW,202,2.0,4.0,80,0.00,,---,0.00,VWS V14.01,2013-06-03 03:08:00,
2013-06-02 23:09:00,75.8,69.2,29.98,SW,225,5.0,6.0,80,0.00,,---,0.00,VWS V14.01,2013-06-03 03:09:00,
2013-06-02 23:10:00,75.8,69.2,29.98,West,270,3.0,6.0,80,0.00,,---,0.00,VWS V14.01,2013-06-03 03:10:00,
2013-06-02 23:11:00,75.7,69.1,29.98,WSW,248,3.0,4.0,80,0.00,,---,0.00,VWS V14.01,2013-06-03 03:11:00,
2013-06-02 23:12:00,75.7,69.1,29.98,WSW,248,4.0,11.0,80,0.00,,---,0.00,VWS V14.01,2013-06-03 03:12:00,
2013-06-02 23:13:00,75.7,69.1,29.98,West,270,6.0,10.0,80,0.00,,---,0.00,VWS V14.01,2013-06-03 03:13:00,
2013-06-02 23:14:00,75.7,69.1,29.98,SSE,158,4.0,6.0,80,0.00,,---,0.00,VWS V14.01,2013-06-03 03:14:00,
2013-06-02 23:15:00,75.7,69.1,29.98,West,270,2.0,3.0,80,0.00,,---,0.00,VWS V14.01,2013-06-03 03:15:00,
2013-06-02 23:16:00,75.7,69.1,29.98,WSW,248,2.0,4.0,80,0.00,,---,0.00,VWS V14.01,2013-06-03 03:16:00,
2013-06-02 23:17:00,75.7,69.5,29.98,SW,225,5.0,7.0,81,0.00,,---,0.00,VWS V14.01,2013-06-03 03:17:00,
2013-06-02 23:18:00,75.6,69.4,29.99,SW,225,5.0,8.0,81,0.00,,---,0.00,VWS V14.01,2013-06-03 03:18:00,
2013-06-02 23:19:00,75.6,69.4,29.99,WSW,248,4.0,7.0,81,0.00,,---,0.00,VWS V14.01,2013-06-03 03:19:00,
2013-06-02 23:20:00,75.6,69.4,29.99,WSW,248,5.0,7.0,81,0.00,,---,0.00,VWS V14.01,2013-06-03 03:20:00,
2013-06-02 23:21:00,75.5,69.3,29.99,WSW,248,2.0,3.0,81,0.00,,---,0.00,VWS V14.01,2013-06-03 03:21:00,
2013-06-02 23:22:00,75.5,69.3,29.99,WSW,248,2.0,3.0,81,0.00,,---,0.00,VWS V14.01,2013-06-03 03:22:00,
2013-06-02 23:23:00,75.5,69.3,29.99,WSW,248,4.0,8.0,81,0.00,,---,0.00,VWS V14.01,2013-06-03 03:23:00,
2013-06-02 23:24:00,75.5,69.3,29.99,SW,225,4.0,7.0,81,0.00,,---,0.00,VWS V14.01,2013-06-03 03:24:00,
2013-06-02 23:25:00,75.5,69.3,29.99,South,180,3.0,5.0,81,0.00,,---,0.00,VWS V14.01,2013-06-03 03:25:00,
2013-06-02 23:26:00,75.5,69.3,29.99,WSW,248,4.0,8.0,81,0.00,,---,0.00,VWS V14.01,2013-06-03 03:26:00,
2013-06-02 23:27:00,75.4,69.2,29.99,WSW,248,2.0,4.0,81,0.00,,---,0.00,VWS V14.01,2013-06-03 03:27:00,
2013-06-02 23:28:00,75.4,69.2,29.99,WSW,248,4.0,6.0,81,0.00,,---,0.00,VWS V14.01,2013-06-03 03:28:00,
2013-06-02 23:29:00,75.4,69.2,29.99,SW,225,3.0,4.0,81,0.00,,---,0.00,VWS V14.01,2013-06-03 03:29:00,
2013-06-02 23:30:00,75.4,69.2,29.99,SSW,202,3.0,4.0,81,0.00,,---,0.00,VWS V14.01,2013-06-03 03:30:00,
2013-06-02 23:31:00,75.4,69.2,29.99,WSW,248,2.0,3.0,81,0.00,,---,0.00,VWS V14.01,2013-06-03 03:31:00,
2013-06-02 23:32:00,75.4,69.2,29.99,WSW,248,4.0,8.0,81,0.00,,---,0.00,VWS V14.01,2013-06-03 03:32:00,
2013-06-02 23:33:00,75.4,69.2,29.99,SE,135,1.0,3.0,81,0.00,,---,0.00,VWS V14.01,2013-06-03 03:33:00,
2013-06-02 23:34:00,75.4,69.2,29.99,SW,225,2.0,6.0,81,0.00,,---,0.00,VWS V14.01,2013-06-03 03:34:00,
2013-06-02 23:35:00,75.3,69.4,29.99,SSW,202,4.0,6.0,82,0.00,,---,0.00,VWS V14.01,2013-06-03 03:35:00,
2013-06-02 23:36:00,75.3,69.4,29.99,South,180,2.0,5.0,82,0.00,,---,0.00,VWS V14.01,2013-06-03 03:36:00,
2013-06-02 23:37:00,75.3,69.4,29.99,SW,225,3.0,7.0,82,0.00,,---,0.00,VWS V14.01,2013-06-03 03:37:00,
2013-06-02 23:38:00,75.3,69.4,29.99,SW,225,3.0,8.0,82,0.00,,---,0.00,VWS V14.01,2013-06-03 03:38:00,
2013-06-02 23:39:00,75.3,69.4,29.99,SW,225,5.0,7.0,82,0.00,,---,0.00,VWS V14.01,2013-06-03 03:39:00,
2013-06-02 23:40:00,75.3,69.4,29.99,SW,225,5.0,10.0,82,0.00,,---,0.00,VWS V14.01,2013-06-03 03:40:00,
2013-06-02 23:41:00,75.3,69.4,29.99,WSW,248,3.0,5.0,82,0.00,,---,0.00,VWS V14.01,2013-06-03 03:41:00,
2013-06-02 23:42:00,75.2,69.3,29.99,SW,225,2.0,3.0,82,0.00,,---,0.00,VWS V14.01,2013-06-03 03:42:00,
2013-06-02 23:43:00,75.2,69.3,29.99,WSW,248,2.0,4.0,82,0.00,,---,0.00,VWS V14.01,2013-06-03 03:43:00,
2013-06-02 23:44:00,75.2,69.3,29.99,SW,225,3.0,5.0,82,0.00,,---,0.00,VWS V14.01,2013-06-03 03:44:00,
2013-06-02 23:45:00,75.2,69.3,29.99,NW,315,2.0,3.0,82,0.00,,---,0.00,VWS V14.01,2013-06-03 03:45:00,
2013-06-02 23:46:00,75.2,69.3,29.99,WSW,248,3.0,6.0,82,0.00,,---,0.00,VWS V14.01,2013-06-03 03:46:00,
2013-06-02 23:47:00,75.2,69.3,29.99,SW,225,2.0,4.0,82,0.00,,---,0.00,VWS V14.01,2013-06-03 03:47:00,
2013-06-02 23:48:00,75.1,69.2,29.99,SW,225,3.0,5.0,82,0.00,,---,0.00,VWS V14.01,2013-06-03 03:48:00,
2013-06-02 23:49:00,75.1,69.2,29.99,WSW,248,5.0,10.0,82,0.00,,---,0.00,VWS V14.01,2013-06-03 03:49:00,
2013-06-02 23:50:00,75.1,69.2,29.99,SSW,202,5.0,7.0,82,0.00,,---,0.00,VWS V14.01,2013-06-03 03:50:00,
2013-06-02 23:51:00,75.1,69.2,29.99,SSW,202,5.0,9.0,82,0.00,,---,0.00,VWS V14.01,2013-06-03 03:51:00,
2013-06-02 23:52:00,75.1,69.2,29.99,SW,225,2.0,5.0,82,0.00,,---,0.00,VWS V14.01,2013-06-03 03:52:00,
2013-06-02 23:53:00,75.1,69.6,29.99,South,180,5.0,7.0,83,0.00,,---,0.00,VWS V14.01,2013-06-03 03:53:00,
2013-06-02 23:54:00,75.1,69.6,29.99,SW,225,3.0,5.0,83,0.00,,---,0.00,VWS V14.01,2013-06-03 03:54:00,
2013-06-02 23:55:00,75.1,69.6,29.99,SW,225,2.0,4.0,83,0.00,,---,0.00,VWS V14.01,2013-06-03 03:55:00,
2013-06-02 23:56:00,75.1,69.6,29.99,SSW,202,4.0,5.0,83,0.00,,---,0.00,VWS V14.01,2013-06-03 03:56:00,
2013-06-02 23:57:00,75.0,69.5,29.99,SSW,202,3.0,7.0,83,0.00,,---,0.00,VWS V14.01,2013-06-03 03:57:00,
2013-06-02 23:58:00,75.0,69.5,29.99,SW,225,5.0,8.0,83,0.00,,---,0.00,VWS V14.01,2013-06-03 03:58:00,
2013-06-02 23:59:00,75.0,69.5,29.99,SW,225,2.0,3.0,83,0.00,,---,0.00,VWS V14.01,2013-06-03 03:59:00,